<?xml version="1.0" encoding="UTF-8" standalone="no" ?>
<gpx xmlns="http://www.topografix.com/GPX/1/1" xmlns:xsi="http://www.w3.org/2001/XMLSchema-instance" xsi:schemaLocation="http://www.topografix.com/GPX/1/1 http://www.topografix.com/GPX/1/1/gpx.xsd" version="1.1" creator="VisuGPX - https://www.visugpx.com">
  <metadata>
    <name>L.P.P. Rando Mardi du 30/06/2015</name>
    <desc><![CDATA[Autours de St Laurent s/S, départ "La Clé des Champs" (env 9.5 Km)]]></desc>
  </metadata>
  <trk>
    <name><![CDATA[L.P.P. Rando Mardi du 30/06/2015_1]]></name>
    <trkseg>
      <trkpt lat="46.95456" lon="-0.89035">
        <ele>202</ele>
        <time>2015-06-30T06:48:25.000Z</time>
      </trkpt>
      <trkpt lat="46.95443" lon="-0.89041">
        <ele>188</ele>
        <time>2015-06-30T06:48:58.000Z</time>
      </trkpt>
      <trkpt lat="46.95443" lon="-0.89041">
        <ele>188</ele>
        <time>2015-06-30T06:49:03.000Z</time>
      </trkpt>
      <trkpt lat="46.95443" lon="-0.89041">
        <ele>188</ele>
        <time>2015-06-30T06:49:05.000Z</time>
      </trkpt>
      <trkpt lat="46.95431" lon="-0.89032">
        <ele>188</ele>
        <time>2015-06-30T06:49:18.000Z</time>
      </trkpt>
      <trkpt lat="46.95431" lon="-0.89032">
        <ele>188</ele>
        <time>2015-06-30T06:49:22.000Z</time>
      </trkpt>
      <trkpt lat="46.95431" lon="-0.89032">
        <ele>188</ele>
        <time>2015-06-30T06:49:30.000Z</time>
      </trkpt>
      <trkpt lat="46.95431" lon="-0.89032">
        <ele>188</ele>
        <time>2015-06-30T06:49:32.000Z</time>
      </trkpt>
      <trkpt lat="46.95413" lon="-0.89031">
        <ele>187</ele>
        <time>2015-06-30T06:49:36.000Z</time>
      </trkpt>
      <trkpt lat="46.95413" lon="-0.89031">
        <ele>187</ele>
        <time>2015-06-30T06:49:46.000Z</time>
      </trkpt>
      <trkpt lat="46.95413" lon="-0.89031">
        <ele>187</ele>
        <time>2015-06-30T06:49:48.000Z</time>
      </trkpt>
      <trkpt lat="46.95394" lon="-0.8904">
        <ele>187</ele>
        <time>2015-06-30T06:50:00.000Z</time>
      </trkpt>
      <trkpt lat="46.95383" lon="-0.89044">
        <ele>186</ele>
        <time>2015-06-30T06:50:10.000Z</time>
      </trkpt>
      <trkpt lat="46.9537" lon="-0.89039">
        <ele>187</ele>
        <time>2015-06-30T06:50:22.000Z</time>
      </trkpt>
      <trkpt lat="46.95364" lon="-0.89038">
        <ele>187</ele>
        <time>2015-06-30T06:50:30.000Z</time>
      </trkpt>
      <trkpt lat="46.95359" lon="-0.89038">
        <ele>188</ele>
        <time>2015-06-30T06:50:34.000Z</time>
      </trkpt>
      <trkpt lat="46.95359" lon="-0.89038">
        <ele>188</ele>
        <time>2015-06-30T06:50:36.000Z</time>
      </trkpt>
      <trkpt lat="46.95359" lon="-0.89038">
        <ele>188</ele>
        <time>2015-06-30T06:50:38.000Z</time>
      </trkpt>
      <trkpt lat="46.95352" lon="-0.89037">
        <ele>188</ele>
        <time>2015-06-30T06:50:42.000Z</time>
      </trkpt>
      <trkpt lat="46.95348" lon="-0.89038">
        <ele>188</ele>
        <time>2015-06-30T06:50:44.000Z</time>
      </trkpt>
      <trkpt lat="46.95342" lon="-0.89041">
        <ele>189</ele>
        <time>2015-06-30T06:50:48.000Z</time>
      </trkpt>
      <trkpt lat="46.95338" lon="-0.89045">
        <ele>189</ele>
        <time>2015-06-30T06:50:50.000Z</time>
      </trkpt>
      <trkpt lat="46.95334" lon="-0.89051">
        <ele>189</ele>
        <time>2015-06-30T06:50:56.000Z</time>
      </trkpt>
      <trkpt lat="46.9533" lon="-0.89056">
        <ele>189</ele>
        <time>2015-06-30T06:51:00.000Z</time>
      </trkpt>
      <trkpt lat="46.95327" lon="-0.89061">
        <ele>189</ele>
        <time>2015-06-30T06:51:04.000Z</time>
      </trkpt>
      <trkpt lat="46.95327" lon="-0.89061">
        <ele>189</ele>
        <time>2015-06-30T06:51:06.000Z</time>
      </trkpt>
      <trkpt lat="46.95327" lon="-0.89061">
        <ele>189</ele>
        <time>2015-06-30T06:51:08.000Z</time>
      </trkpt>
      <trkpt lat="46.95327" lon="-0.89061">
        <ele>189</ele>
        <time>2015-06-30T06:51:10.000Z</time>
      </trkpt>
      <trkpt lat="46.95327" lon="-0.89061">
        <ele>189</ele>
        <time>2015-06-30T06:51:12.000Z</time>
      </trkpt>
      <trkpt lat="46.95327" lon="-0.89061">
        <ele>189</ele>
        <time>2015-06-30T06:51:14.000Z</time>
      </trkpt>
      <trkpt lat="46.95327" lon="-0.89061">
        <ele>189</ele>
        <time>2015-06-30T06:51:16.000Z</time>
      </trkpt>
      <trkpt lat="46.95327" lon="-0.89061">
        <ele>189</ele>
        <time>2015-06-30T06:51:18.000Z</time>
      </trkpt>
      <trkpt lat="46.95327" lon="-0.89061">
        <ele>189</ele>
        <time>2015-06-30T06:51:20.000Z</time>
      </trkpt>
      <trkpt lat="46.95327" lon="-0.89061">
        <ele>189</ele>
        <time>2015-06-30T06:51:22.000Z</time>
      </trkpt>
      <trkpt lat="46.95327" lon="-0.89061">
        <ele>189</ele>
        <time>2015-06-30T06:51:24.000Z</time>
      </trkpt>
      <trkpt lat="46.95316" lon="-0.89079">
        <ele>190</ele>
        <time>2015-06-30T06:51:30.000Z</time>
      </trkpt>
      <trkpt lat="46.95309" lon="-0.8909">
        <ele>190</ele>
        <time>2015-06-30T06:51:32.000Z</time>
      </trkpt>
      <trkpt lat="46.95306" lon="-0.89097">
        <ele>190</ele>
        <time>2015-06-30T06:51:34.000Z</time>
      </trkpt>
      <trkpt lat="46.95303" lon="-0.89103">
        <ele>190</ele>
        <time>2015-06-30T06:51:36.000Z</time>
      </trkpt>
      <trkpt lat="46.953" lon="-0.89111">
        <ele>191</ele>
        <time>2015-06-30T06:51:40.000Z</time>
      </trkpt>
      <trkpt lat="46.95298" lon="-0.89118">
        <ele>191</ele>
        <time>2015-06-30T06:51:44.000Z</time>
      </trkpt>
      <trkpt lat="46.95296" lon="-0.89124">
        <ele>191</ele>
        <time>2015-06-30T06:51:48.000Z</time>
      </trkpt>
      <trkpt lat="46.95296" lon="-0.89124">
        <ele>191</ele>
        <time>2015-06-30T06:51:50.000Z</time>
      </trkpt>
      <trkpt lat="46.95294" lon="-0.8913">
        <ele>191</ele>
        <time>2015-06-30T06:51:52.000Z</time>
      </trkpt>
      <trkpt lat="46.95294" lon="-0.8913">
        <ele>191</ele>
        <time>2015-06-30T06:51:54.000Z</time>
      </trkpt>
      <trkpt lat="46.95294" lon="-0.8913">
        <ele>191</ele>
        <time>2015-06-30T06:51:56.000Z</time>
      </trkpt>
      <trkpt lat="46.95294" lon="-0.8913">
        <ele>191</ele>
        <time>2015-06-30T06:51:58.000Z</time>
      </trkpt>
      <trkpt lat="46.95294" lon="-0.8913">
        <ele>191</ele>
        <time>2015-06-30T06:52:00.000Z</time>
      </trkpt>
      <trkpt lat="46.95294" lon="-0.8913">
        <ele>191</ele>
        <time>2015-06-30T06:52:02.000Z</time>
      </trkpt>
      <trkpt lat="46.95294" lon="-0.8913">
        <ele>191</ele>
        <time>2015-06-30T06:52:04.000Z</time>
      </trkpt>
      <trkpt lat="46.95294" lon="-0.8913">
        <ele>191</ele>
        <time>2015-06-30T06:52:06.000Z</time>
      </trkpt>
      <trkpt lat="46.95294" lon="-0.8913">
        <ele>191</ele>
        <time>2015-06-30T06:52:08.000Z</time>
      </trkpt>
      <trkpt lat="46.9529" lon="-0.8915">
        <ele>191</ele>
        <time>2015-06-30T06:52:12.000Z</time>
      </trkpt>
      <trkpt lat="46.95287" lon="-0.89162">
        <ele>191</ele>
        <time>2015-06-30T06:52:14.000Z</time>
      </trkpt>
      <trkpt lat="46.95287" lon="-0.8917">
        <ele>191</ele>
        <time>2015-06-30T06:52:16.000Z</time>
      </trkpt>
      <trkpt lat="46.95285" lon="-0.89178">
        <ele>191</ele>
        <time>2015-06-30T06:52:20.000Z</time>
      </trkpt>
      <trkpt lat="46.95285" lon="-0.89184">
        <ele>191</ele>
        <time>2015-06-30T06:52:22.000Z</time>
      </trkpt>
      <trkpt lat="46.95284" lon="-0.89191">
        <ele>191</ele>
        <time>2015-06-30T06:52:26.000Z</time>
      </trkpt>
      <trkpt lat="46.95284" lon="-0.89191">
        <ele>191</ele>
        <time>2015-06-30T06:52:28.000Z</time>
      </trkpt>
      <trkpt lat="46.95284" lon="-0.89191">
        <ele>191</ele>
        <time>2015-06-30T06:52:30.000Z</time>
      </trkpt>
      <trkpt lat="46.95284" lon="-0.89191">
        <ele>191</ele>
        <time>2015-06-30T06:52:32.000Z</time>
      </trkpt>
      <trkpt lat="46.95284" lon="-0.89191">
        <ele>191</ele>
        <time>2015-06-30T06:52:34.000Z</time>
      </trkpt>
      <trkpt lat="46.95284" lon="-0.89191">
        <ele>191</ele>
        <time>2015-06-30T06:52:36.000Z</time>
      </trkpt>
      <trkpt lat="46.95284" lon="-0.89191">
        <ele>191</ele>
        <time>2015-06-30T06:52:38.000Z</time>
      </trkpt>
      <trkpt lat="46.95284" lon="-0.89191">
        <ele>191</ele>
        <time>2015-06-30T06:52:40.000Z</time>
      </trkpt>
      <trkpt lat="46.95284" lon="-0.89191">
        <ele>191</ele>
        <time>2015-06-30T06:52:42.000Z</time>
      </trkpt>
      <trkpt lat="46.95284" lon="-0.89191">
        <ele>191</ele>
        <time>2015-06-30T06:52:44.000Z</time>
      </trkpt>
      <trkpt lat="46.95284" lon="-0.89191">
        <ele>191</ele>
        <time>2015-06-30T06:52:46.000Z</time>
      </trkpt>
      <trkpt lat="46.95284" lon="-0.89191">
        <ele>191</ele>
        <time>2015-06-30T06:52:48.000Z</time>
      </trkpt>
      <trkpt lat="46.95279" lon="-0.89215">
        <ele>191</ele>
        <time>2015-06-30T06:52:50.000Z</time>
      </trkpt>
      <trkpt lat="46.95276" lon="-0.89229">
        <ele>192</ele>
        <time>2015-06-30T06:52:52.000Z</time>
      </trkpt>
      <trkpt lat="46.95274" lon="-0.89238">
        <ele>192</ele>
        <time>2015-06-30T06:52:54.000Z</time>
      </trkpt>
      <trkpt lat="46.95271" lon="-0.89245">
        <ele>192</ele>
        <time>2015-06-30T06:52:58.000Z</time>
      </trkpt>
      <trkpt lat="46.95271" lon="-0.89245">
        <ele>192</ele>
        <time>2015-06-30T06:53:00.000Z</time>
      </trkpt>
      <trkpt lat="46.95271" lon="-0.89245">
        <ele>192</ele>
        <time>2015-06-30T06:53:02.000Z</time>
      </trkpt>
      <trkpt lat="46.95271" lon="-0.89245">
        <ele>192</ele>
        <time>2015-06-30T06:53:04.000Z</time>
      </trkpt>
      <trkpt lat="46.95271" lon="-0.89245">
        <ele>192</ele>
        <time>2015-06-30T06:53:06.000Z</time>
      </trkpt>
      <trkpt lat="46.95271" lon="-0.89245">
        <ele>192</ele>
        <time>2015-06-30T06:53:08.000Z</time>
      </trkpt>
      <trkpt lat="46.95271" lon="-0.89245">
        <ele>192</ele>
        <time>2015-06-30T06:53:10.000Z</time>
      </trkpt>
      <trkpt lat="46.95271" lon="-0.89245">
        <ele>192</ele>
        <time>2015-06-30T06:53:12.000Z</time>
      </trkpt>
      <trkpt lat="46.95271" lon="-0.89245">
        <ele>192</ele>
        <time>2015-06-30T06:53:14.000Z</time>
      </trkpt>
      <trkpt lat="46.95271" lon="-0.89245">
        <ele>192</ele>
        <time>2015-06-30T06:53:16.000Z</time>
      </trkpt>
      <trkpt lat="46.95259" lon="-0.89263">
        <ele>193</ele>
        <time>2015-06-30T06:53:20.000Z</time>
      </trkpt>
      <trkpt lat="46.95253" lon="-0.89273">
        <ele>193</ele>
        <time>2015-06-30T06:53:22.000Z</time>
      </trkpt>
      <trkpt lat="46.95248" lon="-0.89279">
        <ele>193</ele>
        <time>2015-06-30T06:53:24.000Z</time>
      </trkpt>
      <trkpt lat="46.95243" lon="-0.89284">
        <ele>193</ele>
        <time>2015-06-30T06:53:28.000Z</time>
      </trkpt>
      <trkpt lat="46.95243" lon="-0.89284">
        <ele>193</ele>
        <time>2015-06-30T06:53:30.000Z</time>
      </trkpt>
      <trkpt lat="46.9524" lon="-0.8929">
        <ele>193</ele>
        <time>2015-06-30T06:53:32.000Z</time>
      </trkpt>
      <trkpt lat="46.9524" lon="-0.8929">
        <ele>193</ele>
        <time>2015-06-30T06:53:34.000Z</time>
      </trkpt>
      <trkpt lat="46.9524" lon="-0.8929">
        <ele>193</ele>
        <time>2015-06-30T06:53:36.000Z</time>
      </trkpt>
      <trkpt lat="46.9524" lon="-0.8929">
        <ele>193</ele>
        <time>2015-06-30T06:53:38.000Z</time>
      </trkpt>
      <trkpt lat="46.9524" lon="-0.8929">
        <ele>193</ele>
        <time>2015-06-30T06:53:40.000Z</time>
      </trkpt>
      <trkpt lat="46.9524" lon="-0.8929">
        <ele>193</ele>
        <time>2015-06-30T06:53:42.000Z</time>
      </trkpt>
      <trkpt lat="46.9524" lon="-0.8929">
        <ele>193</ele>
        <time>2015-06-30T06:53:44.000Z</time>
      </trkpt>
      <trkpt lat="46.9524" lon="-0.8929">
        <ele>193</ele>
        <time>2015-06-30T06:53:46.000Z</time>
      </trkpt>
      <trkpt lat="46.9524" lon="-0.8929">
        <ele>193</ele>
        <time>2015-06-30T06:53:54.000Z</time>
      </trkpt>
      <trkpt lat="46.9524" lon="-0.8929">
        <ele>193</ele>
        <time>2015-06-30T06:53:56.000Z</time>
      </trkpt>
      <trkpt lat="46.9524" lon="-0.8929">
        <ele>193</ele>
        <time>2015-06-30T06:53:58.000Z</time>
      </trkpt>
      <trkpt lat="46.9524" lon="-0.8929">
        <ele>193</ele>
        <time>2015-06-30T06:54:00.000Z</time>
      </trkpt>
      <trkpt lat="46.9524" lon="-0.8929">
        <ele>193</ele>
        <time>2015-06-30T06:54:06.000Z</time>
      </trkpt>
      <trkpt lat="46.9524" lon="-0.8929">
        <ele>193</ele>
        <time>2015-06-30T06:54:08.000Z</time>
      </trkpt>
      <trkpt lat="46.9524" lon="-0.8929">
        <ele>193</ele>
        <time>2015-06-30T06:54:10.000Z</time>
      </trkpt>
      <trkpt lat="46.9524" lon="-0.8929">
        <ele>193</ele>
        <time>2015-06-30T06:54:12.000Z</time>
      </trkpt>
      <trkpt lat="46.9524" lon="-0.8929">
        <ele>193</ele>
        <time>2015-06-30T06:54:14.000Z</time>
      </trkpt>
      <trkpt lat="46.9524" lon="-0.8929">
        <ele>193</ele>
        <time>2015-06-30T06:54:16.000Z</time>
      </trkpt>
      <trkpt lat="46.9524" lon="-0.8929">
        <ele>193</ele>
        <time>2015-06-30T06:54:18.000Z</time>
      </trkpt>
      <trkpt lat="46.95221" lon="-0.89315">
        <ele>195</ele>
        <time>2015-06-30T06:54:22.000Z</time>
      </trkpt>
      <trkpt lat="46.9521" lon="-0.89326">
        <ele>196</ele>
        <time>2015-06-30T06:54:24.000Z</time>
      </trkpt>
      <trkpt lat="46.95204" lon="-0.8933">
        <ele>196</ele>
        <time>2015-06-30T06:54:26.000Z</time>
      </trkpt>
      <trkpt lat="46.95199" lon="-0.89327">
        <ele>196</ele>
        <time>2015-06-30T06:54:32.000Z</time>
      </trkpt>
      <trkpt lat="46.95195" lon="-0.89323">
        <ele>196</ele>
        <time>2015-06-30T06:54:36.000Z</time>
      </trkpt>
      <trkpt lat="46.95195" lon="-0.89323">
        <ele>196</ele>
        <time>2015-06-30T06:54:38.000Z</time>
      </trkpt>
      <trkpt lat="46.95191" lon="-0.89319">
        <ele>196</ele>
        <time>2015-06-30T06:54:40.000Z</time>
      </trkpt>
      <trkpt lat="46.95187" lon="-0.89317">
        <ele>196</ele>
        <time>2015-06-30T06:54:46.000Z</time>
      </trkpt>
      <trkpt lat="46.95187" lon="-0.89317">
        <ele>196</ele>
        <time>2015-06-30T06:54:48.000Z</time>
      </trkpt>
      <trkpt lat="46.95187" lon="-0.89317">
        <ele>196</ele>
        <time>2015-06-30T06:54:50.000Z</time>
      </trkpt>
      <trkpt lat="46.95187" lon="-0.89317">
        <ele>196</ele>
        <time>2015-06-30T06:54:52.000Z</time>
      </trkpt>
      <trkpt lat="46.95187" lon="-0.89317">
        <ele>196</ele>
        <time>2015-06-30T06:54:54.000Z</time>
      </trkpt>
      <trkpt lat="46.95187" lon="-0.89317">
        <ele>196</ele>
        <time>2015-06-30T06:54:56.000Z</time>
      </trkpt>
      <trkpt lat="46.9518" lon="-0.89326">
        <ele>198</ele>
        <time>2015-06-30T06:55:00.000Z</time>
      </trkpt>
      <trkpt lat="46.95176" lon="-0.89332">
        <ele>198</ele>
        <time>2015-06-30T06:55:02.000Z</time>
      </trkpt>
      <trkpt lat="46.95172" lon="-0.89336">
        <ele>199</ele>
        <time>2015-06-30T06:55:06.000Z</time>
      </trkpt>
      <trkpt lat="46.95168" lon="-0.8934">
        <ele>199</ele>
        <time>2015-06-30T06:55:10.000Z</time>
      </trkpt>
      <trkpt lat="46.95168" lon="-0.8934">
        <ele>199</ele>
        <time>2015-06-30T06:55:14.000Z</time>
      </trkpt>
      <trkpt lat="46.95168" lon="-0.8934">
        <ele>199</ele>
        <time>2015-06-30T06:55:16.000Z</time>
      </trkpt>
      <trkpt lat="46.9516" lon="-0.89344">
        <ele>199</ele>
        <time>2015-06-30T06:55:20.000Z</time>
      </trkpt>
      <trkpt lat="46.95155" lon="-0.89346">
        <ele>200</ele>
        <time>2015-06-30T06:55:22.000Z</time>
      </trkpt>
      <trkpt lat="46.9515" lon="-0.89349">
        <ele>200</ele>
        <time>2015-06-30T06:55:26.000Z</time>
      </trkpt>
      <trkpt lat="46.95144" lon="-0.89351">
        <ele>200</ele>
        <time>2015-06-30T06:55:30.000Z</time>
      </trkpt>
      <trkpt lat="46.95144" lon="-0.89351">
        <ele>200</ele>
        <time>2015-06-30T06:55:34.000Z</time>
      </trkpt>
      <trkpt lat="46.95144" lon="-0.89351">
        <ele>200</ele>
        <time>2015-06-30T06:55:36.000Z</time>
      </trkpt>
      <trkpt lat="46.95144" lon="-0.89351">
        <ele>200</ele>
        <time>2015-06-30T06:55:38.000Z</time>
      </trkpt>
      <trkpt lat="46.95134" lon="-0.8935">
        <ele>202</ele>
        <time>2015-06-30T06:55:44.000Z</time>
      </trkpt>
      <trkpt lat="46.95127" lon="-0.89349">
        <ele>202</ele>
        <time>2015-06-30T06:55:46.000Z</time>
      </trkpt>
      <trkpt lat="46.95122" lon="-0.89348">
        <ele>202</ele>
        <time>2015-06-30T06:55:50.000Z</time>
      </trkpt>
      <trkpt lat="46.95117" lon="-0.89351">
        <ele>202</ele>
        <time>2015-06-30T06:55:54.000Z</time>
      </trkpt>
      <trkpt lat="46.95117" lon="-0.89351">
        <ele>202</ele>
        <time>2015-06-30T06:55:56.000Z</time>
      </trkpt>
      <trkpt lat="46.95117" lon="-0.89351">
        <ele>202</ele>
        <time>2015-06-30T06:55:58.000Z</time>
      </trkpt>
      <trkpt lat="46.95111" lon="-0.89355">
        <ele>202</ele>
        <time>2015-06-30T06:56:02.000Z</time>
      </trkpt>
      <trkpt lat="46.95106" lon="-0.89358">
        <ele>202</ele>
        <time>2015-06-30T06:56:04.000Z</time>
      </trkpt>
      <trkpt lat="46.95101" lon="-0.8936">
        <ele>202</ele>
        <time>2015-06-30T06:56:08.000Z</time>
      </trkpt>
      <trkpt lat="46.95101" lon="-0.8936">
        <ele>202</ele>
        <time>2015-06-30T06:56:10.000Z</time>
      </trkpt>
      <trkpt lat="46.95097" lon="-0.89362">
        <ele>202</ele>
        <time>2015-06-30T06:56:12.000Z</time>
      </trkpt>
      <trkpt lat="46.95097" lon="-0.89362">
        <ele>202</ele>
        <time>2015-06-30T06:56:14.000Z</time>
      </trkpt>
      <trkpt lat="46.95097" lon="-0.89362">
        <ele>202</ele>
        <time>2015-06-30T06:56:16.000Z</time>
      </trkpt>
      <trkpt lat="46.95089" lon="-0.89363">
        <ele>203</ele>
        <time>2015-06-30T06:56:20.000Z</time>
      </trkpt>
      <trkpt lat="46.95084" lon="-0.89364">
        <ele>203</ele>
        <time>2015-06-30T06:56:22.000Z</time>
      </trkpt>
      <trkpt lat="46.95084" lon="-0.89364">
        <ele>203</ele>
        <time>2015-06-30T06:56:24.000Z</time>
      </trkpt>
      <trkpt lat="46.95084" lon="-0.89364">
        <ele>203</ele>
        <time>2015-06-30T06:56:26.000Z</time>
      </trkpt>
      <trkpt lat="46.95084" lon="-0.89364">
        <ele>203</ele>
        <time>2015-06-30T06:56:28.000Z</time>
      </trkpt>
      <trkpt lat="46.95084" lon="-0.89364">
        <ele>203</ele>
        <time>2015-06-30T06:56:30.000Z</time>
      </trkpt>
      <trkpt lat="46.95084" lon="-0.89364">
        <ele>203</ele>
        <time>2015-06-30T06:56:32.000Z</time>
      </trkpt>
      <trkpt lat="46.95071" lon="-0.89366">
        <ele>203</ele>
        <time>2015-06-30T06:56:40.000Z</time>
      </trkpt>
      <trkpt lat="46.95064" lon="-0.89366">
        <ele>203</ele>
        <time>2015-06-30T06:56:42.000Z</time>
      </trkpt>
      <trkpt lat="46.9506" lon="-0.89367">
        <ele>204</ele>
        <time>2015-06-30T06:56:44.000Z</time>
      </trkpt>
      <trkpt lat="46.95055" lon="-0.89368">
        <ele>204</ele>
        <time>2015-06-30T06:56:48.000Z</time>
      </trkpt>
      <trkpt lat="46.9505" lon="-0.89369">
        <ele>205</ele>
        <time>2015-06-30T06:56:52.000Z</time>
      </trkpt>
      <trkpt lat="46.9505" lon="-0.89369">
        <ele>205</ele>
        <time>2015-06-30T06:56:54.000Z</time>
      </trkpt>
      <trkpt lat="46.9505" lon="-0.89369">
        <ele>205</ele>
        <time>2015-06-30T06:56:56.000Z</time>
      </trkpt>
      <trkpt lat="46.9505" lon="-0.89369">
        <ele>205</ele>
        <time>2015-06-30T06:56:58.000Z</time>
      </trkpt>
      <trkpt lat="46.9505" lon="-0.89369">
        <ele>205</ele>
        <time>2015-06-30T06:57:00.000Z</time>
      </trkpt>
      <trkpt lat="46.95041" lon="-0.89372">
        <ele>205</ele>
        <time>2015-06-30T06:57:04.000Z</time>
      </trkpt>
      <trkpt lat="46.95034" lon="-0.89375">
        <ele>205</ele>
        <time>2015-06-30T06:57:06.000Z</time>
      </trkpt>
      <trkpt lat="46.95029" lon="-0.89377">
        <ele>206</ele>
        <time>2015-06-30T06:57:10.000Z</time>
      </trkpt>
      <trkpt lat="46.95029" lon="-0.89377">
        <ele>206</ele>
        <time>2015-06-30T06:57:12.000Z</time>
      </trkpt>
      <trkpt lat="46.95029" lon="-0.89377">
        <ele>206</ele>
        <time>2015-06-30T06:57:14.000Z</time>
      </trkpt>
      <trkpt lat="46.95023" lon="-0.89379">
        <ele>206</ele>
        <time>2015-06-30T06:57:16.000Z</time>
      </trkpt>
      <trkpt lat="46.95018" lon="-0.8938">
        <ele>206</ele>
        <time>2015-06-30T06:57:20.000Z</time>
      </trkpt>
      <trkpt lat="46.95013" lon="-0.8938">
        <ele>206</ele>
        <time>2015-06-30T06:57:24.000Z</time>
      </trkpt>
      <trkpt lat="46.95008" lon="-0.8938">
        <ele>206</ele>
        <time>2015-06-30T06:57:28.000Z</time>
      </trkpt>
      <trkpt lat="46.95008" lon="-0.8938">
        <ele>206</ele>
        <time>2015-06-30T06:57:30.000Z</time>
      </trkpt>
      <trkpt lat="46.95008" lon="-0.8938">
        <ele>206</ele>
        <time>2015-06-30T06:57:32.000Z</time>
      </trkpt>
      <trkpt lat="46.95008" lon="-0.8938">
        <ele>206</ele>
        <time>2015-06-30T06:57:34.000Z</time>
      </trkpt>
      <trkpt lat="46.95008" lon="-0.8938">
        <ele>206</ele>
        <time>2015-06-30T06:57:36.000Z</time>
      </trkpt>
      <trkpt lat="46.95008" lon="-0.8938">
        <ele>206</ele>
        <time>2015-06-30T06:57:38.000Z</time>
      </trkpt>
      <trkpt lat="46.95008" lon="-0.8938">
        <ele>206</ele>
        <time>2015-06-30T06:57:40.000Z</time>
      </trkpt>
      <trkpt lat="46.95008" lon="-0.8938">
        <ele>206</ele>
        <time>2015-06-30T06:57:42.000Z</time>
      </trkpt>
      <trkpt lat="46.95008" lon="-0.8938">
        <ele>206</ele>
        <time>2015-06-30T06:57:44.000Z</time>
      </trkpt>
      <trkpt lat="46.95008" lon="-0.8938">
        <ele>206</ele>
        <time>2015-06-30T06:57:46.000Z</time>
      </trkpt>
      <trkpt lat="46.95008" lon="-0.8938">
        <ele>206</ele>
        <time>2015-06-30T06:57:48.000Z</time>
      </trkpt>
      <trkpt lat="46.95008" lon="-0.8938">
        <ele>206</ele>
        <time>2015-06-30T06:57:50.000Z</time>
      </trkpt>
      <trkpt lat="46.95008" lon="-0.8938">
        <ele>206</ele>
        <time>2015-06-30T06:57:52.000Z</time>
      </trkpt>
      <trkpt lat="46.95008" lon="-0.8938">
        <ele>206</ele>
        <time>2015-06-30T06:57:54.000Z</time>
      </trkpt>
      <trkpt lat="46.95008" lon="-0.8938">
        <ele>206</ele>
        <time>2015-06-30T06:57:56.000Z</time>
      </trkpt>
      <trkpt lat="46.95008" lon="-0.8938">
        <ele>206</ele>
        <time>2015-06-30T06:57:58.000Z</time>
      </trkpt>
      <trkpt lat="46.95008" lon="-0.8938">
        <ele>206</ele>
        <time>2015-06-30T06:58:00.000Z</time>
      </trkpt>
      <trkpt lat="46.94987" lon="-0.89379">
        <ele>207</ele>
        <time>2015-06-30T06:58:04.000Z</time>
      </trkpt>
      <trkpt lat="46.94975" lon="-0.89379">
        <ele>207</ele>
        <time>2015-06-30T06:58:06.000Z</time>
      </trkpt>
      <trkpt lat="46.94969" lon="-0.8938">
        <ele>207</ele>
        <time>2015-06-30T06:58:08.000Z</time>
      </trkpt>
      <trkpt lat="46.94969" lon="-0.8938">
        <ele>207</ele>
        <time>2015-06-30T06:58:10.000Z</time>
      </trkpt>
      <trkpt lat="46.94963" lon="-0.89381">
        <ele>207</ele>
        <time>2015-06-30T06:58:12.000Z</time>
      </trkpt>
      <trkpt lat="46.94958" lon="-0.89382">
        <ele>207</ele>
        <time>2015-06-30T06:58:14.000Z</time>
      </trkpt>
      <trkpt lat="46.94954" lon="-0.89384">
        <ele>207</ele>
        <time>2015-06-30T06:58:18.000Z</time>
      </trkpt>
      <trkpt lat="46.94949" lon="-0.89386">
        <ele>207</ele>
        <time>2015-06-30T06:58:22.000Z</time>
      </trkpt>
      <trkpt lat="46.94949" lon="-0.89386">
        <ele>207</ele>
        <time>2015-06-30T06:58:24.000Z</time>
      </trkpt>
      <trkpt lat="46.94949" lon="-0.89386">
        <ele>207</ele>
        <time>2015-06-30T06:58:26.000Z</time>
      </trkpt>
      <trkpt lat="46.94949" lon="-0.89386">
        <ele>207</ele>
        <time>2015-06-30T06:58:28.000Z</time>
      </trkpt>
      <trkpt lat="46.94941" lon="-0.89387">
        <ele>207</ele>
        <time>2015-06-30T06:58:32.000Z</time>
      </trkpt>
      <trkpt lat="46.94937" lon="-0.89388">
        <ele>207</ele>
        <time>2015-06-30T06:58:34.000Z</time>
      </trkpt>
      <trkpt lat="46.94931" lon="-0.89389">
        <ele>208</ele>
        <time>2015-06-30T06:58:40.000Z</time>
      </trkpt>
      <trkpt lat="46.94926" lon="-0.8939">
        <ele>208</ele>
        <time>2015-06-30T06:58:44.000Z</time>
      </trkpt>
      <trkpt lat="46.94926" lon="-0.8939">
        <ele>208</ele>
        <time>2015-06-30T06:58:46.000Z</time>
      </trkpt>
      <trkpt lat="46.94926" lon="-0.8939">
        <ele>208</ele>
        <time>2015-06-30T06:58:48.000Z</time>
      </trkpt>
      <trkpt lat="46.94926" lon="-0.8939">
        <ele>208</ele>
        <time>2015-06-30T06:58:50.000Z</time>
      </trkpt>
      <trkpt lat="46.94917" lon="-0.89392">
        <ele>210</ele>
        <time>2015-06-30T06:58:54.000Z</time>
      </trkpt>
      <trkpt lat="46.9491" lon="-0.89394">
        <ele>210</ele>
        <time>2015-06-30T06:58:56.000Z</time>
      </trkpt>
      <trkpt lat="46.94905" lon="-0.89396">
        <ele>210</ele>
        <time>2015-06-30T06:59:00.000Z</time>
      </trkpt>
      <trkpt lat="46.94905" lon="-0.89396">
        <ele>210</ele>
        <time>2015-06-30T06:59:02.000Z</time>
      </trkpt>
      <trkpt lat="46.94898" lon="-0.89399">
        <ele>210</ele>
        <time>2015-06-30T06:59:06.000Z</time>
      </trkpt>
      <trkpt lat="46.94893" lon="-0.89401">
        <ele>210</ele>
        <time>2015-06-30T06:59:08.000Z</time>
      </trkpt>
      <trkpt lat="46.94893" lon="-0.89401">
        <ele>210</ele>
        <time>2015-06-30T06:59:14.000Z</time>
      </trkpt>
      <trkpt lat="46.94893" lon="-0.89401">
        <ele>210</ele>
        <time>2015-06-30T06:59:16.000Z</time>
      </trkpt>
      <trkpt lat="46.94893" lon="-0.89401">
        <ele>210</ele>
        <time>2015-06-30T06:59:18.000Z</time>
      </trkpt>
      <trkpt lat="46.94893" lon="-0.89401">
        <ele>210</ele>
        <time>2015-06-30T06:59:20.000Z</time>
      </trkpt>
      <trkpt lat="46.94893" lon="-0.89401">
        <ele>210</ele>
        <time>2015-06-30T06:59:22.000Z</time>
      </trkpt>
      <trkpt lat="46.94882" lon="-0.89404">
        <ele>211</ele>
        <time>2015-06-30T06:59:26.000Z</time>
      </trkpt>
      <trkpt lat="46.94875" lon="-0.89405">
        <ele>212</ele>
        <time>2015-06-30T06:59:28.000Z</time>
      </trkpt>
      <trkpt lat="46.9487" lon="-0.89406">
        <ele>212</ele>
        <time>2015-06-30T06:59:30.000Z</time>
      </trkpt>
      <trkpt lat="46.94865" lon="-0.89406">
        <ele>212</ele>
        <time>2015-06-30T06:59:34.000Z</time>
      </trkpt>
      <trkpt lat="46.94865" lon="-0.89406">
        <ele>212</ele>
        <time>2015-06-30T06:59:36.000Z</time>
      </trkpt>
      <trkpt lat="46.94865" lon="-0.89406">
        <ele>212</ele>
        <time>2015-06-30T06:59:38.000Z</time>
      </trkpt>
      <trkpt lat="46.94865" lon="-0.89406">
        <ele>212</ele>
        <time>2015-06-30T06:59:40.000Z</time>
      </trkpt>
      <trkpt lat="46.94865" lon="-0.89406">
        <ele>212</ele>
        <time>2015-06-30T06:59:42.000Z</time>
      </trkpt>
      <trkpt lat="46.94865" lon="-0.89406">
        <ele>212</ele>
        <time>2015-06-30T06:59:44.000Z</time>
      </trkpt>
      <trkpt lat="46.94865" lon="-0.89406">
        <ele>212</ele>
        <time>2015-06-30T06:59:46.000Z</time>
      </trkpt>
      <trkpt lat="46.94865" lon="-0.89406">
        <ele>212</ele>
        <time>2015-06-30T06:59:48.000Z</time>
      </trkpt>
      <trkpt lat="46.94865" lon="-0.89406">
        <ele>212</ele>
        <time>2015-06-30T06:59:54.000Z</time>
      </trkpt>
      <trkpt lat="46.94865" lon="-0.89406">
        <ele>212</ele>
        <time>2015-06-30T06:59:56.000Z</time>
      </trkpt>
      <trkpt lat="46.94865" lon="-0.89406">
        <ele>212</ele>
        <time>2015-06-30T06:59:58.000Z</time>
      </trkpt>
      <trkpt lat="46.94865" lon="-0.89406">
        <ele>212</ele>
        <time>2015-06-30T07:00:00.000Z</time>
      </trkpt>
      <trkpt lat="46.94865" lon="-0.89406">
        <ele>212</ele>
        <time>2015-06-30T07:00:02.000Z</time>
      </trkpt>
      <trkpt lat="46.94865" lon="-0.89406">
        <ele>212</ele>
        <time>2015-06-30T07:00:04.000Z</time>
      </trkpt>
      <trkpt lat="46.94845" lon="-0.89403">
        <ele>216</ele>
        <time>2015-06-30T07:00:08.000Z</time>
      </trkpt>
      <trkpt lat="46.94834" lon="-0.89401">
        <ele>216</ele>
        <time>2015-06-30T07:00:10.000Z</time>
      </trkpt>
      <trkpt lat="46.94827" lon="-0.89398">
        <ele>216</ele>
        <time>2015-06-30T07:00:12.000Z</time>
      </trkpt>
      <trkpt lat="46.94822" lon="-0.89396">
        <ele>216</ele>
        <time>2015-06-30T07:00:16.000Z</time>
      </trkpt>
      <trkpt lat="46.94822" lon="-0.89396">
        <ele>216</ele>
        <time>2015-06-30T07:00:18.000Z</time>
      </trkpt>
      <trkpt lat="46.94822" lon="-0.89396">
        <ele>216</ele>
        <time>2015-06-30T07:00:20.000Z</time>
      </trkpt>
      <trkpt lat="46.94822" lon="-0.89396">
        <ele>216</ele>
        <time>2015-06-30T07:00:22.000Z</time>
      </trkpt>
      <trkpt lat="46.94816" lon="-0.89389">
        <ele>217</ele>
        <time>2015-06-30T07:00:24.000Z</time>
      </trkpt>
      <trkpt lat="46.94812" lon="-0.89384">
        <ele>218</ele>
        <time>2015-06-30T07:00:26.000Z</time>
      </trkpt>
      <trkpt lat="46.94807" lon="-0.8938">
        <ele>218</ele>
        <time>2015-06-30T07:00:30.000Z</time>
      </trkpt>
      <trkpt lat="46.94803" lon="-0.89376">
        <ele>218</ele>
        <time>2015-06-30T07:00:34.000Z</time>
      </trkpt>
      <trkpt lat="46.94803" lon="-0.89376">
        <ele>218</ele>
        <time>2015-06-30T07:00:36.000Z</time>
      </trkpt>
      <trkpt lat="46.94798" lon="-0.89372">
        <ele>219</ele>
        <time>2015-06-30T07:00:38.000Z</time>
      </trkpt>
      <trkpt lat="46.94793" lon="-0.89369">
        <ele>219</ele>
        <time>2015-06-30T07:00:42.000Z</time>
      </trkpt>
      <trkpt lat="46.94788" lon="-0.89367">
        <ele>219</ele>
        <time>2015-06-30T07:00:46.000Z</time>
      </trkpt>
      <trkpt lat="46.94782" lon="-0.89365">
        <ele>219</ele>
        <time>2015-06-30T07:00:50.000Z</time>
      </trkpt>
      <trkpt lat="46.94782" lon="-0.89365">
        <ele>219</ele>
        <time>2015-06-30T07:00:52.000Z</time>
      </trkpt>
      <trkpt lat="46.94782" lon="-0.89365">
        <ele>219</ele>
        <time>2015-06-30T07:00:54.000Z</time>
      </trkpt>
      <trkpt lat="46.94782" lon="-0.89365">
        <ele>219</ele>
        <time>2015-06-30T07:00:56.000Z</time>
      </trkpt>
      <trkpt lat="46.94782" lon="-0.89365">
        <ele>219</ele>
        <time>2015-06-30T07:00:58.000Z</time>
      </trkpt>
      <trkpt lat="46.94782" lon="-0.89365">
        <ele>219</ele>
        <time>2015-06-30T07:01:00.000Z</time>
      </trkpt>
      <trkpt lat="46.94782" lon="-0.89365">
        <ele>219</ele>
        <time>2015-06-30T07:01:02.000Z</time>
      </trkpt>
      <trkpt lat="46.94782" lon="-0.89365">
        <ele>219</ele>
        <time>2015-06-30T07:01:04.000Z</time>
      </trkpt>
      <trkpt lat="46.94782" lon="-0.89365">
        <ele>219</ele>
        <time>2015-06-30T07:01:06.000Z</time>
      </trkpt>
      <trkpt lat="46.94768" lon="-0.89356">
        <ele>221</ele>
        <time>2015-06-30T07:01:12.000Z</time>
      </trkpt>
      <trkpt lat="46.94768" lon="-0.89356">
        <ele>221</ele>
        <time>2015-06-30T07:01:14.000Z</time>
      </trkpt>
      <trkpt lat="46.94768" lon="-0.89356">
        <ele>221</ele>
        <time>2015-06-30T07:01:16.000Z</time>
      </trkpt>
      <trkpt lat="46.94768" lon="-0.89356">
        <ele>221</ele>
        <time>2015-06-30T07:01:18.000Z</time>
      </trkpt>
      <trkpt lat="46.94768" lon="-0.89356">
        <ele>221</ele>
        <time>2015-06-30T07:01:20.000Z</time>
      </trkpt>
      <trkpt lat="46.94768" lon="-0.89356">
        <ele>221</ele>
        <time>2015-06-30T07:01:22.000Z</time>
      </trkpt>
      <trkpt lat="46.94768" lon="-0.89356">
        <ele>221</ele>
        <time>2015-06-30T07:01:24.000Z</time>
      </trkpt>
      <trkpt lat="46.94768" lon="-0.89356">
        <ele>221</ele>
        <time>2015-06-30T07:01:26.000Z</time>
      </trkpt>
      <trkpt lat="46.94768" lon="-0.89356">
        <ele>221</ele>
        <time>2015-06-30T07:01:28.000Z</time>
      </trkpt>
      <trkpt lat="46.94768" lon="-0.89356">
        <ele>221</ele>
        <time>2015-06-30T07:01:30.000Z</time>
      </trkpt>
      <trkpt lat="46.94768" lon="-0.89356">
        <ele>221</ele>
        <time>2015-06-30T07:01:32.000Z</time>
      </trkpt>
      <trkpt lat="46.94749" lon="-0.89341">
        <ele>222</ele>
        <time>2015-06-30T07:01:36.000Z</time>
      </trkpt>
      <trkpt lat="46.94738" lon="-0.89332">
        <ele>222</ele>
        <time>2015-06-30T07:01:38.000Z</time>
      </trkpt>
      <trkpt lat="46.94732" lon="-0.89326">
        <ele>222</ele>
        <time>2015-06-30T07:01:40.000Z</time>
      </trkpt>
      <trkpt lat="46.94727" lon="-0.89322">
        <ele>222</ele>
        <time>2015-06-30T07:01:42.000Z</time>
      </trkpt>
      <trkpt lat="46.94724" lon="-0.89318">
        <ele>222</ele>
        <time>2015-06-30T07:01:46.000Z</time>
      </trkpt>
      <trkpt lat="46.94724" lon="-0.89318">
        <ele>222</ele>
        <time>2015-06-30T07:01:48.000Z</time>
      </trkpt>
      <trkpt lat="46.94724" lon="-0.89318">
        <ele>222</ele>
        <time>2015-06-30T07:01:50.000Z</time>
      </trkpt>
      <trkpt lat="46.94724" lon="-0.89318">
        <ele>222</ele>
        <time>2015-06-30T07:01:52.000Z</time>
      </trkpt>
      <trkpt lat="46.94724" lon="-0.89318">
        <ele>222</ele>
        <time>2015-06-30T07:01:54.000Z</time>
      </trkpt>
      <trkpt lat="46.94724" lon="-0.89318">
        <ele>222</ele>
        <time>2015-06-30T07:01:56.000Z</time>
      </trkpt>
      <trkpt lat="46.94712" lon="-0.89312">
        <ele>224</ele>
        <time>2015-06-30T07:02:02.000Z</time>
      </trkpt>
      <trkpt lat="46.94704" lon="-0.89309">
        <ele>224</ele>
        <time>2015-06-30T07:02:04.000Z</time>
      </trkpt>
      <trkpt lat="46.94704" lon="-0.89309">
        <ele>224</ele>
        <time>2015-06-30T07:02:06.000Z</time>
      </trkpt>
      <trkpt lat="46.94704" lon="-0.89309">
        <ele>224</ele>
        <time>2015-06-30T07:02:08.000Z</time>
      </trkpt>
      <trkpt lat="46.94704" lon="-0.89309">
        <ele>224</ele>
        <time>2015-06-30T07:02:10.000Z</time>
      </trkpt>
      <trkpt lat="46.94695" lon="-0.89303">
        <ele>224</ele>
        <time>2015-06-30T07:02:14.000Z</time>
      </trkpt>
      <trkpt lat="46.94689" lon="-0.89298">
        <ele>224</ele>
        <time>2015-06-30T07:02:16.000Z</time>
      </trkpt>
      <trkpt lat="46.94685" lon="-0.89296">
        <ele>224</ele>
        <time>2015-06-30T07:02:18.000Z</time>
      </trkpt>
      <trkpt lat="46.9468" lon="-0.89294">
        <ele>224</ele>
        <time>2015-06-30T07:02:22.000Z</time>
      </trkpt>
      <trkpt lat="46.94675" lon="-0.89292">
        <ele>224</ele>
        <time>2015-06-30T07:02:26.000Z</time>
      </trkpt>
      <trkpt lat="46.94675" lon="-0.89292">
        <ele>224</ele>
        <time>2015-06-30T07:02:28.000Z</time>
      </trkpt>
      <trkpt lat="46.94675" lon="-0.89292">
        <ele>224</ele>
        <time>2015-06-30T07:02:30.000Z</time>
      </trkpt>
      <trkpt lat="46.94675" lon="-0.89292">
        <ele>224</ele>
        <time>2015-06-30T07:02:32.000Z</time>
      </trkpt>
      <trkpt lat="46.94675" lon="-0.89292">
        <ele>224</ele>
        <time>2015-06-30T07:02:34.000Z</time>
      </trkpt>
      <trkpt lat="46.94675" lon="-0.89292">
        <ele>224</ele>
        <time>2015-06-30T07:02:36.000Z</time>
      </trkpt>
      <trkpt lat="46.94675" lon="-0.89292">
        <ele>224</ele>
        <time>2015-06-30T07:02:38.000Z</time>
      </trkpt>
      <trkpt lat="46.94675" lon="-0.89292">
        <ele>224</ele>
        <time>2015-06-30T07:02:40.000Z</time>
      </trkpt>
      <trkpt lat="46.94675" lon="-0.89292">
        <ele>224</ele>
        <time>2015-06-30T07:02:44.000Z</time>
      </trkpt>
      <trkpt lat="46.94675" lon="-0.89292">
        <ele>224</ele>
        <time>2015-06-30T07:02:46.000Z</time>
      </trkpt>
      <trkpt lat="46.94659" lon="-0.89289">
        <ele>227</ele>
        <time>2015-06-30T07:02:48.000Z</time>
      </trkpt>
      <trkpt lat="46.94649" lon="-0.89287">
        <ele>227</ele>
        <time>2015-06-30T07:02:50.000Z</time>
      </trkpt>
      <trkpt lat="46.94643" lon="-0.89285">
        <ele>227</ele>
        <time>2015-06-30T07:02:52.000Z</time>
      </trkpt>
      <trkpt lat="46.94643" lon="-0.89285">
        <ele>227</ele>
        <time>2015-06-30T07:02:54.000Z</time>
      </trkpt>
      <trkpt lat="46.94643" lon="-0.89285">
        <ele>227</ele>
        <time>2015-06-30T07:02:56.000Z</time>
      </trkpt>
      <trkpt lat="46.94643" lon="-0.89285">
        <ele>227</ele>
        <time>2015-06-30T07:02:58.000Z</time>
      </trkpt>
      <trkpt lat="46.94643" lon="-0.89285">
        <ele>227</ele>
        <time>2015-06-30T07:03:00.000Z</time>
      </trkpt>
      <trkpt lat="46.94643" lon="-0.89285">
        <ele>227</ele>
        <time>2015-06-30T07:03:02.000Z</time>
      </trkpt>
      <trkpt lat="46.94643" lon="-0.89285">
        <ele>227</ele>
        <time>2015-06-30T07:03:04.000Z</time>
      </trkpt>
      <trkpt lat="46.94629" lon="-0.89286">
        <ele>228</ele>
        <time>2015-06-30T07:03:10.000Z</time>
      </trkpt>
      <trkpt lat="46.94622" lon="-0.89286">
        <ele>228</ele>
        <time>2015-06-30T07:03:12.000Z</time>
      </trkpt>
      <trkpt lat="46.94616" lon="-0.89286">
        <ele>228</ele>
        <time>2015-06-30T07:03:14.000Z</time>
      </trkpt>
      <trkpt lat="46.94612" lon="-0.89284">
        <ele>228</ele>
        <time>2015-06-30T07:03:18.000Z</time>
      </trkpt>
      <trkpt lat="46.94612" lon="-0.89284">
        <ele>228</ele>
        <time>2015-06-30T07:03:20.000Z</time>
      </trkpt>
      <trkpt lat="46.94612" lon="-0.89284">
        <ele>228</ele>
        <time>2015-06-30T07:03:22.000Z</time>
      </trkpt>
      <trkpt lat="46.94612" lon="-0.89284">
        <ele>228</ele>
        <time>2015-06-30T07:03:24.000Z</time>
      </trkpt>
      <trkpt lat="46.94612" lon="-0.89284">
        <ele>228</ele>
        <time>2015-06-30T07:03:26.000Z</time>
      </trkpt>
      <trkpt lat="46.94612" lon="-0.89284">
        <ele>228</ele>
        <time>2015-06-30T07:03:34.000Z</time>
      </trkpt>
      <trkpt lat="46.94612" lon="-0.89284">
        <ele>228</ele>
        <time>2015-06-30T07:03:36.000Z</time>
      </trkpt>
      <trkpt lat="46.94612" lon="-0.89284">
        <ele>228</ele>
        <time>2015-06-30T07:03:38.000Z</time>
      </trkpt>
      <trkpt lat="46.94595" lon="-0.89276">
        <ele>227</ele>
        <time>2015-06-30T07:03:44.000Z</time>
      </trkpt>
      <trkpt lat="46.94595" lon="-0.89276">
        <ele>227</ele>
        <time>2015-06-30T07:03:46.000Z</time>
      </trkpt>
      <trkpt lat="46.94595" lon="-0.89276">
        <ele>227</ele>
        <time>2015-06-30T07:03:48.000Z</time>
      </trkpt>
      <trkpt lat="46.94595" lon="-0.89276">
        <ele>227</ele>
        <time>2015-06-30T07:03:50.000Z</time>
      </trkpt>
      <trkpt lat="46.94595" lon="-0.89276">
        <ele>227</ele>
        <time>2015-06-30T07:03:52.000Z</time>
      </trkpt>
      <trkpt lat="46.94595" lon="-0.89276">
        <ele>227</ele>
        <time>2015-06-30T07:03:54.000Z</time>
      </trkpt>
      <trkpt lat="46.94578" lon="-0.89267">
        <ele>227</ele>
        <time>2015-06-30T07:03:58.000Z</time>
      </trkpt>
      <trkpt lat="46.94569" lon="-0.89261">
        <ele>227</ele>
        <time>2015-06-30T07:04:00.000Z</time>
      </trkpt>
      <trkpt lat="46.94563" lon="-0.89256">
        <ele>227</ele>
        <time>2015-06-30T07:04:02.000Z</time>
      </trkpt>
      <trkpt lat="46.94558" lon="-0.89252">
        <ele>227</ele>
        <time>2015-06-30T07:04:06.000Z</time>
      </trkpt>
      <trkpt lat="46.94558" lon="-0.89252">
        <ele>227</ele>
        <time>2015-06-30T07:04:08.000Z</time>
      </trkpt>
      <trkpt lat="46.94558" lon="-0.89252">
        <ele>227</ele>
        <time>2015-06-30T07:04:10.000Z</time>
      </trkpt>
      <trkpt lat="46.94558" lon="-0.89252">
        <ele>227</ele>
        <time>2015-06-30T07:04:12.000Z</time>
      </trkpt>
      <trkpt lat="46.94558" lon="-0.89252">
        <ele>227</ele>
        <time>2015-06-30T07:04:14.000Z</time>
      </trkpt>
      <trkpt lat="46.94558" lon="-0.89252">
        <ele>227</ele>
        <time>2015-06-30T07:04:16.000Z</time>
      </trkpt>
      <trkpt lat="46.94548" lon="-0.89245">
        <ele>225</ele>
        <time>2015-06-30T07:04:20.000Z</time>
      </trkpt>
      <trkpt lat="46.94542" lon="-0.8924">
        <ele>225</ele>
        <time>2015-06-30T07:04:22.000Z</time>
      </trkpt>
      <trkpt lat="46.94538" lon="-0.89237">
        <ele>225</ele>
        <time>2015-06-30T07:04:24.000Z</time>
      </trkpt>
      <trkpt lat="46.94538" lon="-0.89237">
        <ele>225</ele>
        <time>2015-06-30T07:04:26.000Z</time>
      </trkpt>
      <trkpt lat="46.94534" lon="-0.89233">
        <ele>225</ele>
        <time>2015-06-30T07:04:28.000Z</time>
      </trkpt>
      <trkpt lat="46.94528" lon="-0.8923">
        <ele>225</ele>
        <time>2015-06-30T07:04:32.000Z</time>
      </trkpt>
      <trkpt lat="46.94524" lon="-0.89226">
        <ele>224</ele>
        <time>2015-06-30T07:04:36.000Z</time>
      </trkpt>
      <trkpt lat="46.94521" lon="-0.89221">
        <ele>224</ele>
        <time>2015-06-30T07:04:40.000Z</time>
      </trkpt>
      <trkpt lat="46.94521" lon="-0.89221">
        <ele>224</ele>
        <time>2015-06-30T07:04:42.000Z</time>
      </trkpt>
      <trkpt lat="46.94521" lon="-0.89221">
        <ele>224</ele>
        <time>2015-06-30T07:04:44.000Z</time>
      </trkpt>
      <trkpt lat="46.94521" lon="-0.89221">
        <ele>224</ele>
        <time>2015-06-30T07:04:46.000Z</time>
      </trkpt>
      <trkpt lat="46.94521" lon="-0.89221">
        <ele>224</ele>
        <time>2015-06-30T07:04:48.000Z</time>
      </trkpt>
      <trkpt lat="46.94521" lon="-0.89221">
        <ele>224</ele>
        <time>2015-06-30T07:04:50.000Z</time>
      </trkpt>
      <trkpt lat="46.94521" lon="-0.89221">
        <ele>224</ele>
        <time>2015-06-30T07:04:52.000Z</time>
      </trkpt>
      <trkpt lat="46.94521" lon="-0.89221">
        <ele>224</ele>
        <time>2015-06-30T07:04:54.000Z</time>
      </trkpt>
      <trkpt lat="46.94521" lon="-0.89221">
        <ele>224</ele>
        <time>2015-06-30T07:04:56.000Z</time>
      </trkpt>
      <trkpt lat="46.94521" lon="-0.89221">
        <ele>224</ele>
        <time>2015-06-30T07:04:58.000Z</time>
      </trkpt>
      <trkpt lat="46.94513" lon="-0.89201">
        <ele>223</ele>
        <time>2015-06-30T07:05:02.000Z</time>
      </trkpt>
      <trkpt lat="46.94509" lon="-0.8919">
        <ele>223</ele>
        <time>2015-06-30T07:05:04.000Z</time>
      </trkpt>
      <trkpt lat="46.94507" lon="-0.89183">
        <ele>223</ele>
        <time>2015-06-30T07:05:06.000Z</time>
      </trkpt>
      <trkpt lat="46.94507" lon="-0.89183">
        <ele>223</ele>
        <time>2015-06-30T07:05:08.000Z</time>
      </trkpt>
      <trkpt lat="46.94507" lon="-0.89183">
        <ele>223</ele>
        <time>2015-06-30T07:05:10.000Z</time>
      </trkpt>
      <trkpt lat="46.94507" lon="-0.89183">
        <ele>223</ele>
        <time>2015-06-30T07:05:12.000Z</time>
      </trkpt>
      <trkpt lat="46.94506" lon="-0.8917">
        <ele>223</ele>
        <time>2015-06-30T07:05:16.000Z</time>
      </trkpt>
      <trkpt lat="46.94505" lon="-0.89161">
        <ele>223</ele>
        <time>2015-06-30T07:05:18.000Z</time>
      </trkpt>
      <trkpt lat="46.94505" lon="-0.89153">
        <ele>223</ele>
        <time>2015-06-30T07:05:22.000Z</time>
      </trkpt>
      <trkpt lat="46.94505" lon="-0.89145">
        <ele>223</ele>
        <time>2015-06-30T07:05:26.000Z</time>
      </trkpt>
      <trkpt lat="46.94505" lon="-0.89145">
        <ele>223</ele>
        <time>2015-06-30T07:05:28.000Z</time>
      </trkpt>
      <trkpt lat="46.94505" lon="-0.89145">
        <ele>223</ele>
        <time>2015-06-30T07:05:30.000Z</time>
      </trkpt>
      <trkpt lat="46.94505" lon="-0.89145">
        <ele>223</ele>
        <time>2015-06-30T07:05:32.000Z</time>
      </trkpt>
      <trkpt lat="46.94506" lon="-0.89129">
        <ele>224</ele>
        <time>2015-06-30T07:05:38.000Z</time>
      </trkpt>
      <trkpt lat="46.94506" lon="-0.8912">
        <ele>224</ele>
        <time>2015-06-30T07:05:40.000Z</time>
      </trkpt>
      <trkpt lat="46.94506" lon="-0.89113">
        <ele>225</ele>
        <time>2015-06-30T07:05:42.000Z</time>
      </trkpt>
      <trkpt lat="46.94506" lon="-0.89113">
        <ele>225</ele>
        <time>2015-06-30T07:05:44.000Z</time>
      </trkpt>
      <trkpt lat="46.94506" lon="-0.89113">
        <ele>225</ele>
        <time>2015-06-30T07:05:46.000Z</time>
      </trkpt>
      <trkpt lat="46.94506" lon="-0.89113">
        <ele>225</ele>
        <time>2015-06-30T07:05:48.000Z</time>
      </trkpt>
      <trkpt lat="46.94506" lon="-0.89113">
        <ele>225</ele>
        <time>2015-06-30T07:05:50.000Z</time>
      </trkpt>
      <trkpt lat="46.94506" lon="-0.89113">
        <ele>225</ele>
        <time>2015-06-30T07:05:52.000Z</time>
      </trkpt>
      <trkpt lat="46.94506" lon="-0.89113">
        <ele>225</ele>
        <time>2015-06-30T07:05:54.000Z</time>
      </trkpt>
      <trkpt lat="46.94506" lon="-0.89113">
        <ele>225</ele>
        <time>2015-06-30T07:05:56.000Z</time>
      </trkpt>
      <trkpt lat="46.94506" lon="-0.89113">
        <ele>225</ele>
        <time>2015-06-30T07:05:58.000Z</time>
      </trkpt>
      <trkpt lat="46.94506" lon="-0.89113">
        <ele>225</ele>
        <time>2015-06-30T07:06:00.000Z</time>
      </trkpt>
      <trkpt lat="46.94495" lon="-0.89098">
        <ele>225</ele>
        <time>2015-06-30T07:06:06.000Z</time>
      </trkpt>
      <trkpt lat="46.94489" lon="-0.8909">
        <ele>225</ele>
        <time>2015-06-30T07:06:08.000Z</time>
      </trkpt>
      <trkpt lat="46.94484" lon="-0.89086">
        <ele>225</ele>
        <time>2015-06-30T07:06:10.000Z</time>
      </trkpt>
      <trkpt lat="46.94484" lon="-0.89086">
        <ele>225</ele>
        <time>2015-06-30T07:06:12.000Z</time>
      </trkpt>
      <trkpt lat="46.94479" lon="-0.89083">
        <ele>226</ele>
        <time>2015-06-30T07:06:14.000Z</time>
      </trkpt>
      <trkpt lat="46.94474" lon="-0.8908">
        <ele>226</ele>
        <time>2015-06-30T07:06:16.000Z</time>
      </trkpt>
      <trkpt lat="46.94469" lon="-0.89076">
        <ele>225</ele>
        <time>2015-06-30T07:06:22.000Z</time>
      </trkpt>
      <trkpt lat="46.94465" lon="-0.89074">
        <ele>225</ele>
        <time>2015-06-30T07:06:26.000Z</time>
      </trkpt>
      <trkpt lat="46.94465" lon="-0.89074">
        <ele>225</ele>
        <time>2015-06-30T07:06:28.000Z</time>
      </trkpt>
      <trkpt lat="46.94465" lon="-0.89074">
        <ele>225</ele>
        <time>2015-06-30T07:06:30.000Z</time>
      </trkpt>
      <trkpt lat="46.94465" lon="-0.89074">
        <ele>225</ele>
        <time>2015-06-30T07:06:32.000Z</time>
      </trkpt>
      <trkpt lat="46.94465" lon="-0.89074">
        <ele>225</ele>
        <time>2015-06-30T07:06:34.000Z</time>
      </trkpt>
      <trkpt lat="46.94465" lon="-0.89074">
        <ele>225</ele>
        <time>2015-06-30T07:06:36.000Z</time>
      </trkpt>
      <trkpt lat="46.94465" lon="-0.89074">
        <ele>225</ele>
        <time>2015-06-30T07:06:38.000Z</time>
      </trkpt>
      <trkpt lat="46.94465" lon="-0.89074">
        <ele>225</ele>
        <time>2015-06-30T07:06:40.000Z</time>
      </trkpt>
      <trkpt lat="46.94465" lon="-0.89074">
        <ele>225</ele>
        <time>2015-06-30T07:06:42.000Z</time>
      </trkpt>
      <trkpt lat="46.94465" lon="-0.89074">
        <ele>225</ele>
        <time>2015-06-30T07:06:44.000Z</time>
      </trkpt>
      <trkpt lat="46.94465" lon="-0.89074">
        <ele>225</ele>
        <time>2015-06-30T07:06:46.000Z</time>
      </trkpt>
      <trkpt lat="46.94448" lon="-0.89068">
        <ele>224</ele>
        <time>2015-06-30T07:06:50.000Z</time>
      </trkpt>
      <trkpt lat="46.94439" lon="-0.89064">
        <ele>224</ele>
        <time>2015-06-30T07:06:52.000Z</time>
      </trkpt>
      <trkpt lat="46.94433" lon="-0.89062">
        <ele>225</ele>
        <time>2015-06-30T07:06:54.000Z</time>
      </trkpt>
      <trkpt lat="46.94428" lon="-0.8906">
        <ele>225</ele>
        <time>2015-06-30T07:06:58.000Z</time>
      </trkpt>
      <trkpt lat="46.94428" lon="-0.8906">
        <ele>225</ele>
        <time>2015-06-30T07:07:00.000Z</time>
      </trkpt>
      <trkpt lat="46.94428" lon="-0.8906">
        <ele>225</ele>
        <time>2015-06-30T07:07:02.000Z</time>
      </trkpt>
      <trkpt lat="46.94428" lon="-0.8906">
        <ele>225</ele>
        <time>2015-06-30T07:07:04.000Z</time>
      </trkpt>
      <trkpt lat="46.94417" lon="-0.89055">
        <ele>225</ele>
        <time>2015-06-30T07:07:10.000Z</time>
      </trkpt>
      <trkpt lat="46.94411" lon="-0.89052">
        <ele>224</ele>
        <time>2015-06-30T07:07:12.000Z</time>
      </trkpt>
      <trkpt lat="46.94406" lon="-0.89049">
        <ele>224</ele>
        <time>2015-06-30T07:07:16.000Z</time>
      </trkpt>
      <trkpt lat="46.94406" lon="-0.89049">
        <ele>224</ele>
        <time>2015-06-30T07:07:18.000Z</time>
      </trkpt>
      <trkpt lat="46.94406" lon="-0.89049">
        <ele>224</ele>
        <time>2015-06-30T07:07:20.000Z</time>
      </trkpt>
      <trkpt lat="46.94406" lon="-0.89049">
        <ele>224</ele>
        <time>2015-06-30T07:07:22.000Z</time>
      </trkpt>
      <trkpt lat="46.94406" lon="-0.89049">
        <ele>224</ele>
        <time>2015-06-30T07:07:24.000Z</time>
      </trkpt>
      <trkpt lat="46.94406" lon="-0.89049">
        <ele>224</ele>
        <time>2015-06-30T07:07:26.000Z</time>
      </trkpt>
      <trkpt lat="46.94406" lon="-0.89049">
        <ele>224</ele>
        <time>2015-06-30T07:07:28.000Z</time>
      </trkpt>
      <trkpt lat="46.94393" lon="-0.89045">
        <ele>224</ele>
        <time>2015-06-30T07:07:32.000Z</time>
      </trkpt>
      <trkpt lat="46.94385" lon="-0.89042">
        <ele>224</ele>
        <time>2015-06-30T07:07:34.000Z</time>
      </trkpt>
      <trkpt lat="46.9438" lon="-0.89039">
        <ele>224</ele>
        <time>2015-06-30T07:07:36.000Z</time>
      </trkpt>
      <trkpt lat="46.94374" lon="-0.89037">
        <ele>224</ele>
        <time>2015-06-30T07:07:40.000Z</time>
      </trkpt>
      <trkpt lat="46.94374" lon="-0.89037">
        <ele>224</ele>
        <time>2015-06-30T07:07:42.000Z</time>
      </trkpt>
      <trkpt lat="46.94374" lon="-0.89037">
        <ele>224</ele>
        <time>2015-06-30T07:07:44.000Z</time>
      </trkpt>
      <trkpt lat="46.94374" lon="-0.89037">
        <ele>224</ele>
        <time>2015-06-30T07:07:46.000Z</time>
      </trkpt>
      <trkpt lat="46.94366" lon="-0.89034">
        <ele>224</ele>
        <time>2015-06-30T07:07:50.000Z</time>
      </trkpt>
      <trkpt lat="46.9436" lon="-0.89031">
        <ele>224</ele>
        <time>2015-06-30T07:07:52.000Z</time>
      </trkpt>
      <trkpt lat="46.94356" lon="-0.89028">
        <ele>224</ele>
        <time>2015-06-30T07:07:56.000Z</time>
      </trkpt>
      <trkpt lat="46.94352" lon="-0.89026">
        <ele>224</ele>
        <time>2015-06-30T07:08:00.000Z</time>
      </trkpt>
      <trkpt lat="46.94352" lon="-0.89026">
        <ele>224</ele>
        <time>2015-06-30T07:08:02.000Z</time>
      </trkpt>
      <trkpt lat="46.94352" lon="-0.89026">
        <ele>224</ele>
        <time>2015-06-30T07:08:04.000Z</time>
      </trkpt>
      <trkpt lat="46.94352" lon="-0.89026">
        <ele>224</ele>
        <time>2015-06-30T07:08:06.000Z</time>
      </trkpt>
      <trkpt lat="46.94352" lon="-0.89026">
        <ele>224</ele>
        <time>2015-06-30T07:08:08.000Z</time>
      </trkpt>
      <trkpt lat="46.94352" lon="-0.89026">
        <ele>224</ele>
        <time>2015-06-30T07:08:10.000Z</time>
      </trkpt>
      <trkpt lat="46.94352" lon="-0.89026">
        <ele>224</ele>
        <time>2015-06-30T07:08:12.000Z</time>
      </trkpt>
      <trkpt lat="46.94352" lon="-0.89026">
        <ele>224</ele>
        <time>2015-06-30T07:08:14.000Z</time>
      </trkpt>
      <trkpt lat="46.94343" lon="-0.89013">
        <ele>222</ele>
        <time>2015-06-30T07:08:18.000Z</time>
      </trkpt>
      <trkpt lat="46.94339" lon="-0.89005">
        <ele>222</ele>
        <time>2015-06-30T07:08:20.000Z</time>
      </trkpt>
      <trkpt lat="46.94337" lon="-0.88998">
        <ele>222</ele>
        <time>2015-06-30T07:08:22.000Z</time>
      </trkpt>
      <trkpt lat="46.94335" lon="-0.88992">
        <ele>221</ele>
        <time>2015-06-30T07:08:26.000Z</time>
      </trkpt>
      <trkpt lat="46.94335" lon="-0.88992">
        <ele>221</ele>
        <time>2015-06-30T07:08:28.000Z</time>
      </trkpt>
      <trkpt lat="46.94334" lon="-0.88985">
        <ele>221</ele>
        <time>2015-06-30T07:08:30.000Z</time>
      </trkpt>
      <trkpt lat="46.94334" lon="-0.88985">
        <ele>221</ele>
        <time>2015-06-30T07:08:32.000Z</time>
      </trkpt>
      <trkpt lat="46.94334" lon="-0.88985">
        <ele>221</ele>
        <time>2015-06-30T07:08:34.000Z</time>
      </trkpt>
      <trkpt lat="46.94334" lon="-0.88985">
        <ele>221</ele>
        <time>2015-06-30T07:08:36.000Z</time>
      </trkpt>
      <trkpt lat="46.94334" lon="-0.88985">
        <ele>221</ele>
        <time>2015-06-30T07:08:38.000Z</time>
      </trkpt>
      <trkpt lat="46.94334" lon="-0.88985">
        <ele>221</ele>
        <time>2015-06-30T07:08:40.000Z</time>
      </trkpt>
      <trkpt lat="46.94334" lon="-0.88985">
        <ele>221</ele>
        <time>2015-06-30T07:08:42.000Z</time>
      </trkpt>
      <trkpt lat="46.94334" lon="-0.88985">
        <ele>221</ele>
        <time>2015-06-30T07:08:48.000Z</time>
      </trkpt>
      <trkpt lat="46.94334" lon="-0.88985">
        <ele>221</ele>
        <time>2015-06-30T07:08:50.000Z</time>
      </trkpt>
      <trkpt lat="46.94331" lon="-0.88964">
        <ele>219</ele>
        <time>2015-06-30T07:08:52.000Z</time>
      </trkpt>
      <trkpt lat="46.94329" lon="-0.88951">
        <ele>219</ele>
        <time>2015-06-30T07:08:54.000Z</time>
      </trkpt>
      <trkpt lat="46.94327" lon="-0.88943">
        <ele>219</ele>
        <time>2015-06-30T07:08:56.000Z</time>
      </trkpt>
      <trkpt lat="46.94327" lon="-0.88943">
        <ele>219</ele>
        <time>2015-06-30T07:08:58.000Z</time>
      </trkpt>
      <trkpt lat="46.94327" lon="-0.88943">
        <ele>219</ele>
        <time>2015-06-30T07:09:00.000Z</time>
      </trkpt>
      <trkpt lat="46.94327" lon="-0.88943">
        <ele>219</ele>
        <time>2015-06-30T07:09:02.000Z</time>
      </trkpt>
      <trkpt lat="46.94327" lon="-0.88943">
        <ele>219</ele>
        <time>2015-06-30T07:09:04.000Z</time>
      </trkpt>
      <trkpt lat="46.94327" lon="-0.88943">
        <ele>219</ele>
        <time>2015-06-30T07:09:06.000Z</time>
      </trkpt>
      <trkpt lat="46.94324" lon="-0.88927">
        <ele>219</ele>
        <time>2015-06-30T07:09:10.000Z</time>
      </trkpt>
      <trkpt lat="46.94321" lon="-0.88918">
        <ele>219</ele>
        <time>2015-06-30T07:09:12.000Z</time>
      </trkpt>
      <trkpt lat="46.9432" lon="-0.88911">
        <ele>219</ele>
        <time>2015-06-30T07:09:14.000Z</time>
      </trkpt>
      <trkpt lat="46.94318" lon="-0.88904">
        <ele>218</ele>
        <time>2015-06-30T07:09:18.000Z</time>
      </trkpt>
      <trkpt lat="46.94317" lon="-0.88896">
        <ele>218</ele>
        <time>2015-06-30T07:09:22.000Z</time>
      </trkpt>
      <trkpt lat="46.94317" lon="-0.88896">
        <ele>218</ele>
        <time>2015-06-30T07:09:24.000Z</time>
      </trkpt>
      <trkpt lat="46.94315" lon="-0.88889">
        <ele>218</ele>
        <time>2015-06-30T07:09:26.000Z</time>
      </trkpt>
      <trkpt lat="46.94315" lon="-0.88889">
        <ele>218</ele>
        <time>2015-06-30T07:09:28.000Z</time>
      </trkpt>
      <trkpt lat="46.94315" lon="-0.88889">
        <ele>218</ele>
        <time>2015-06-30T07:09:30.000Z</time>
      </trkpt>
      <trkpt lat="46.94315" lon="-0.88889">
        <ele>218</ele>
        <time>2015-06-30T07:09:32.000Z</time>
      </trkpt>
      <trkpt lat="46.94315" lon="-0.88889">
        <ele>218</ele>
        <time>2015-06-30T07:09:34.000Z</time>
      </trkpt>
      <trkpt lat="46.94315" lon="-0.88889">
        <ele>218</ele>
        <time>2015-06-30T07:09:36.000Z</time>
      </trkpt>
      <trkpt lat="46.94315" lon="-0.88889">
        <ele>218</ele>
        <time>2015-06-30T07:09:38.000Z</time>
      </trkpt>
      <trkpt lat="46.94315" lon="-0.88889">
        <ele>218</ele>
        <time>2015-06-30T07:09:40.000Z</time>
      </trkpt>
      <trkpt lat="46.94315" lon="-0.88889">
        <ele>218</ele>
        <time>2015-06-30T07:09:42.000Z</time>
      </trkpt>
      <trkpt lat="46.94315" lon="-0.88889">
        <ele>218</ele>
        <time>2015-06-30T07:09:44.000Z</time>
      </trkpt>
      <trkpt lat="46.94315" lon="-0.88889">
        <ele>218</ele>
        <time>2015-06-30T07:09:46.000Z</time>
      </trkpt>
      <trkpt lat="46.94315" lon="-0.88889">
        <ele>218</ele>
        <time>2015-06-30T07:09:48.000Z</time>
      </trkpt>
      <trkpt lat="46.9431" lon="-0.88863">
        <ele>217</ele>
        <time>2015-06-30T07:09:54.000Z</time>
      </trkpt>
      <trkpt lat="46.94307" lon="-0.88848">
        <ele>217</ele>
        <time>2015-06-30T07:09:56.000Z</time>
      </trkpt>
      <trkpt lat="46.94305" lon="-0.88838">
        <ele>217</ele>
        <time>2015-06-30T07:09:58.000Z</time>
      </trkpt>
      <trkpt lat="46.94305" lon="-0.88838">
        <ele>217</ele>
        <time>2015-06-30T07:10:00.000Z</time>
      </trkpt>
      <trkpt lat="46.94303" lon="-0.88828">
        <ele>217</ele>
        <time>2015-06-30T07:10:04.000Z</time>
      </trkpt>
      <trkpt lat="46.94302" lon="-0.8882">
        <ele>217</ele>
        <time>2015-06-30T07:10:06.000Z</time>
      </trkpt>
      <trkpt lat="46.943" lon="-0.88813">
        <ele>216</ele>
        <time>2015-06-30T07:10:10.000Z</time>
      </trkpt>
      <trkpt lat="46.943" lon="-0.88813">
        <ele>216</ele>
        <time>2015-06-30T07:10:12.000Z</time>
      </trkpt>
      <trkpt lat="46.943" lon="-0.88813">
        <ele>216</ele>
        <time>2015-06-30T07:10:14.000Z</time>
      </trkpt>
      <trkpt lat="46.943" lon="-0.88813">
        <ele>216</ele>
        <time>2015-06-30T07:10:16.000Z</time>
      </trkpt>
      <trkpt lat="46.943" lon="-0.88813">
        <ele>216</ele>
        <time>2015-06-30T07:10:18.000Z</time>
      </trkpt>
      <trkpt lat="46.943" lon="-0.88813">
        <ele>216</ele>
        <time>2015-06-30T07:10:20.000Z</time>
      </trkpt>
      <trkpt lat="46.943" lon="-0.88813">
        <ele>216</ele>
        <time>2015-06-30T07:10:22.000Z</time>
      </trkpt>
      <trkpt lat="46.94297" lon="-0.88797">
        <ele>215</ele>
        <time>2015-06-30T07:10:26.000Z</time>
      </trkpt>
      <trkpt lat="46.94295" lon="-0.88787">
        <ele>215</ele>
        <time>2015-06-30T07:10:28.000Z</time>
      </trkpt>
      <trkpt lat="46.94293" lon="-0.88779">
        <ele>215</ele>
        <time>2015-06-30T07:10:32.000Z</time>
      </trkpt>
      <trkpt lat="46.94293" lon="-0.88779">
        <ele>215</ele>
        <time>2015-06-30T07:10:34.000Z</time>
      </trkpt>
      <trkpt lat="46.94292" lon="-0.88773">
        <ele>215</ele>
        <time>2015-06-30T07:10:36.000Z</time>
      </trkpt>
      <trkpt lat="46.94292" lon="-0.88773">
        <ele>215</ele>
        <time>2015-06-30T07:10:38.000Z</time>
      </trkpt>
      <trkpt lat="46.94292" lon="-0.88773">
        <ele>215</ele>
        <time>2015-06-30T07:10:40.000Z</time>
      </trkpt>
      <trkpt lat="46.94292" lon="-0.88773">
        <ele>215</ele>
        <time>2015-06-30T07:10:42.000Z</time>
      </trkpt>
      <trkpt lat="46.94292" lon="-0.88773">
        <ele>215</ele>
        <time>2015-06-30T07:10:44.000Z</time>
      </trkpt>
      <trkpt lat="46.94292" lon="-0.88773">
        <ele>215</ele>
        <time>2015-06-30T07:10:46.000Z</time>
      </trkpt>
      <trkpt lat="46.94292" lon="-0.88773">
        <ele>215</ele>
        <time>2015-06-30T07:10:48.000Z</time>
      </trkpt>
      <trkpt lat="46.94292" lon="-0.88773">
        <ele>215</ele>
        <time>2015-06-30T07:10:50.000Z</time>
      </trkpt>
      <trkpt lat="46.94287" lon="-0.88756">
        <ele>215</ele>
        <time>2015-06-30T07:10:54.000Z</time>
      </trkpt>
      <trkpt lat="46.94286" lon="-0.88746">
        <ele>215</ele>
        <time>2015-06-30T07:10:56.000Z</time>
      </trkpt>
      <trkpt lat="46.94286" lon="-0.88738">
        <ele>215</ele>
        <time>2015-06-30T07:10:58.000Z</time>
      </trkpt>
      <trkpt lat="46.94286" lon="-0.88731">
        <ele>215</ele>
        <time>2015-06-30T07:11:02.000Z</time>
      </trkpt>
      <trkpt lat="46.94286" lon="-0.88731">
        <ele>215</ele>
        <time>2015-06-30T07:11:04.000Z</time>
      </trkpt>
      <trkpt lat="46.94287" lon="-0.88723">
        <ele>215</ele>
        <time>2015-06-30T07:11:06.000Z</time>
      </trkpt>
      <trkpt lat="46.94289" lon="-0.88717">
        <ele>215</ele>
        <time>2015-06-30T07:11:10.000Z</time>
      </trkpt>
      <trkpt lat="46.94289" lon="-0.88717">
        <ele>215</ele>
        <time>2015-06-30T07:11:12.000Z</time>
      </trkpt>
      <trkpt lat="46.94289" lon="-0.88717">
        <ele>215</ele>
        <time>2015-06-30T07:11:14.000Z</time>
      </trkpt>
      <trkpt lat="46.94289" lon="-0.88717">
        <ele>215</ele>
        <time>2015-06-30T07:11:16.000Z</time>
      </trkpt>
      <trkpt lat="46.94289" lon="-0.88717">
        <ele>215</ele>
        <time>2015-06-30T07:11:18.000Z</time>
      </trkpt>
      <trkpt lat="46.94295" lon="-0.88703">
        <ele>215</ele>
        <time>2015-06-30T07:11:24.000Z</time>
      </trkpt>
      <trkpt lat="46.94295" lon="-0.88703">
        <ele>215</ele>
        <time>2015-06-30T07:11:26.000Z</time>
      </trkpt>
      <trkpt lat="46.94295" lon="-0.88703">
        <ele>215</ele>
        <time>2015-06-30T07:11:28.000Z</time>
      </trkpt>
      <trkpt lat="46.94295" lon="-0.88703">
        <ele>215</ele>
        <time>2015-06-30T07:11:30.000Z</time>
      </trkpt>
      <trkpt lat="46.94301" lon="-0.88691">
        <ele>215</ele>
        <time>2015-06-30T07:11:32.000Z</time>
      </trkpt>
      <trkpt lat="46.94305" lon="-0.88682">
        <ele>215</ele>
        <time>2015-06-30T07:11:34.000Z</time>
      </trkpt>
      <trkpt lat="46.94308" lon="-0.88676">
        <ele>215</ele>
        <time>2015-06-30T07:11:36.000Z</time>
      </trkpt>
      <trkpt lat="46.94311" lon="-0.8867">
        <ele>215</ele>
        <time>2015-06-30T07:11:40.000Z</time>
      </trkpt>
      <trkpt lat="46.94311" lon="-0.8867">
        <ele>215</ele>
        <time>2015-06-30T07:11:42.000Z</time>
      </trkpt>
      <trkpt lat="46.94313" lon="-0.88664">
        <ele>215</ele>
        <time>2015-06-30T07:11:44.000Z</time>
      </trkpt>
      <trkpt lat="46.94313" lon="-0.88664">
        <ele>215</ele>
        <time>2015-06-30T07:11:46.000Z</time>
      </trkpt>
      <trkpt lat="46.94313" lon="-0.88664">
        <ele>215</ele>
        <time>2015-06-30T07:11:48.000Z</time>
      </trkpt>
      <trkpt lat="46.94313" lon="-0.88664">
        <ele>215</ele>
        <time>2015-06-30T07:11:50.000Z</time>
      </trkpt>
      <trkpt lat="46.94313" lon="-0.88664">
        <ele>215</ele>
        <time>2015-06-30T07:11:52.000Z</time>
      </trkpt>
      <trkpt lat="46.94313" lon="-0.88664">
        <ele>215</ele>
        <time>2015-06-30T07:12:02.000Z</time>
      </trkpt>
      <trkpt lat="46.94317" lon="-0.88646">
        <ele>216</ele>
        <time>2015-06-30T07:12:40.000Z</time>
      </trkpt>
      <trkpt lat="46.94319" lon="-0.88635">
        <ele>216</ele>
        <time>2015-06-30T07:12:42.000Z</time>
      </trkpt>
      <trkpt lat="46.94321" lon="-0.88628">
        <ele>216</ele>
        <time>2015-06-30T07:12:44.000Z</time>
      </trkpt>
      <trkpt lat="46.94323" lon="-0.88621">
        <ele>216</ele>
        <time>2015-06-30T07:12:48.000Z</time>
      </trkpt>
      <trkpt lat="46.94326" lon="-0.88615">
        <ele>215</ele>
        <time>2015-06-30T07:12:52.000Z</time>
      </trkpt>
      <trkpt lat="46.94328" lon="-0.88608">
        <ele>215</ele>
        <time>2015-06-30T07:12:56.000Z</time>
      </trkpt>
      <trkpt lat="46.94331" lon="-0.88602">
        <ele>215</ele>
        <time>2015-06-30T07:12:58.000Z</time>
      </trkpt>
      <trkpt lat="46.94333" lon="-0.88595">
        <ele>215</ele>
        <time>2015-06-30T07:13:02.000Z</time>
      </trkpt>
      <trkpt lat="46.94335" lon="-0.88588">
        <ele>214</ele>
        <time>2015-06-30T07:13:06.000Z</time>
      </trkpt>
      <trkpt lat="46.94338" lon="-0.88582">
        <ele>214</ele>
        <time>2015-06-30T07:13:10.000Z</time>
      </trkpt>
      <trkpt lat="46.94338" lon="-0.88582">
        <ele>214</ele>
        <time>2015-06-30T07:13:12.000Z</time>
      </trkpt>
      <trkpt lat="46.94338" lon="-0.88582">
        <ele>214</ele>
        <time>2015-06-30T07:13:14.000Z</time>
      </trkpt>
      <trkpt lat="46.94338" lon="-0.88582">
        <ele>214</ele>
        <time>2015-06-30T07:13:16.000Z</time>
      </trkpt>
      <trkpt lat="46.94338" lon="-0.88582">
        <ele>214</ele>
        <time>2015-06-30T07:13:18.000Z</time>
      </trkpt>
      <trkpt lat="46.94338" lon="-0.88582">
        <ele>214</ele>
        <time>2015-06-30T07:13:26.000Z</time>
      </trkpt>
      <trkpt lat="46.94344" lon="-0.88569">
        <ele>212</ele>
        <time>2015-06-30T07:13:44.000Z</time>
      </trkpt>
      <trkpt lat="46.94347" lon="-0.88561">
        <ele>212</ele>
        <time>2015-06-30T07:13:46.000Z</time>
      </trkpt>
      <trkpt lat="46.94349" lon="-0.88555">
        <ele>212</ele>
        <time>2015-06-30T07:13:48.000Z</time>
      </trkpt>
      <trkpt lat="46.94352" lon="-0.88549">
        <ele>211</ele>
        <time>2015-06-30T07:13:52.000Z</time>
      </trkpt>
      <trkpt lat="46.94355" lon="-0.88543">
        <ele>211</ele>
        <time>2015-06-30T07:13:54.000Z</time>
      </trkpt>
      <trkpt lat="46.94355" lon="-0.88543">
        <ele>211</ele>
        <time>2015-06-30T07:13:58.000Z</time>
      </trkpt>
      <trkpt lat="46.94355" lon="-0.88543">
        <ele>211</ele>
        <time>2015-06-30T07:14:00.000Z</time>
      </trkpt>
      <trkpt lat="46.94355" lon="-0.88543">
        <ele>211</ele>
        <time>2015-06-30T07:14:02.000Z</time>
      </trkpt>
      <trkpt lat="46.94355" lon="-0.88543">
        <ele>211</ele>
        <time>2015-06-30T07:14:04.000Z</time>
      </trkpt>
      <trkpt lat="46.94355" lon="-0.88543">
        <ele>211</ele>
        <time>2015-06-30T07:14:08.000Z</time>
      </trkpt>
      <trkpt lat="46.94355" lon="-0.88543">
        <ele>211</ele>
        <time>2015-06-30T07:14:10.000Z</time>
      </trkpt>
      <trkpt lat="46.94355" lon="-0.88543">
        <ele>211</ele>
        <time>2015-06-30T07:14:12.000Z</time>
      </trkpt>
      <trkpt lat="46.94355" lon="-0.88543">
        <ele>211</ele>
        <time>2015-06-30T07:14:14.000Z</time>
      </trkpt>
      <trkpt lat="46.94355" lon="-0.88543">
        <ele>211</ele>
        <time>2015-06-30T07:14:16.000Z</time>
      </trkpt>
      <trkpt lat="46.94355" lon="-0.88543">
        <ele>211</ele>
        <time>2015-06-30T07:14:18.000Z</time>
      </trkpt>
      <trkpt lat="46.94364" lon="-0.88518">
        <ele>210</ele>
        <time>2015-06-30T07:14:22.000Z</time>
      </trkpt>
      <trkpt lat="46.94369" lon="-0.88505">
        <ele>210</ele>
        <time>2015-06-30T07:14:24.000Z</time>
      </trkpt>
      <trkpt lat="46.94372" lon="-0.88496">
        <ele>210</ele>
        <time>2015-06-30T07:14:26.000Z</time>
      </trkpt>
      <trkpt lat="46.94374" lon="-0.8849">
        <ele>210</ele>
        <time>2015-06-30T07:14:28.000Z</time>
      </trkpt>
      <trkpt lat="46.94376" lon="-0.88484">
        <ele>210</ele>
        <time>2015-06-30T07:14:34.000Z</time>
      </trkpt>
      <trkpt lat="46.94376" lon="-0.88484">
        <ele>210</ele>
        <time>2015-06-30T07:14:36.000Z</time>
      </trkpt>
      <trkpt lat="46.94376" lon="-0.88484">
        <ele>210</ele>
        <time>2015-06-30T07:14:38.000Z</time>
      </trkpt>
      <trkpt lat="46.94381" lon="-0.88472">
        <ele>209</ele>
        <time>2015-06-30T07:14:44.000Z</time>
      </trkpt>
      <trkpt lat="46.94384" lon="-0.88464">
        <ele>209</ele>
        <time>2015-06-30T07:14:46.000Z</time>
      </trkpt>
      <trkpt lat="46.94384" lon="-0.88464">
        <ele>209</ele>
        <time>2015-06-30T07:14:48.000Z</time>
      </trkpt>
      <trkpt lat="46.94384" lon="-0.88464">
        <ele>209</ele>
        <time>2015-06-30T07:14:50.000Z</time>
      </trkpt>
      <trkpt lat="46.94389" lon="-0.88453">
        <ele>209</ele>
        <time>2015-06-30T07:14:54.000Z</time>
      </trkpt>
      <trkpt lat="46.94393" lon="-0.88446">
        <ele>209</ele>
        <time>2015-06-30T07:14:56.000Z</time>
      </trkpt>
      <trkpt lat="46.94396" lon="-0.88439">
        <ele>208</ele>
        <time>2015-06-30T07:15:00.000Z</time>
      </trkpt>
      <trkpt lat="46.94399" lon="-0.88432">
        <ele>208</ele>
        <time>2015-06-30T07:15:04.000Z</time>
      </trkpt>
      <trkpt lat="46.94399" lon="-0.88432">
        <ele>208</ele>
        <time>2015-06-30T07:15:06.000Z</time>
      </trkpt>
      <trkpt lat="46.94399" lon="-0.88432">
        <ele>208</ele>
        <time>2015-06-30T07:15:08.000Z</time>
      </trkpt>
      <trkpt lat="46.94399" lon="-0.88432">
        <ele>208</ele>
        <time>2015-06-30T07:15:10.000Z</time>
      </trkpt>
      <trkpt lat="46.94399" lon="-0.88432">
        <ele>208</ele>
        <time>2015-06-30T07:15:12.000Z</time>
      </trkpt>
      <trkpt lat="46.94399" lon="-0.88432">
        <ele>208</ele>
        <time>2015-06-30T07:15:14.000Z</time>
      </trkpt>
      <trkpt lat="46.94399" lon="-0.88432">
        <ele>208</ele>
        <time>2015-06-30T07:15:16.000Z</time>
      </trkpt>
      <trkpt lat="46.94399" lon="-0.88432">
        <ele>208</ele>
        <time>2015-06-30T07:15:18.000Z</time>
      </trkpt>
      <trkpt lat="46.94399" lon="-0.88432">
        <ele>208</ele>
        <time>2015-06-30T07:15:20.000Z</time>
      </trkpt>
      <trkpt lat="46.94407" lon="-0.88417">
        <ele>205</ele>
        <time>2015-06-30T07:15:24.000Z</time>
      </trkpt>
      <trkpt lat="46.94413" lon="-0.88408">
        <ele>205</ele>
        <time>2015-06-30T07:15:26.000Z</time>
      </trkpt>
      <trkpt lat="46.94416" lon="-0.88403">
        <ele>205</ele>
        <time>2015-06-30T07:15:28.000Z</time>
      </trkpt>
      <trkpt lat="46.9442" lon="-0.88398">
        <ele>204</ele>
        <time>2015-06-30T07:15:32.000Z</time>
      </trkpt>
      <trkpt lat="46.9442" lon="-0.88398">
        <ele>204</ele>
        <time>2015-06-30T07:15:34.000Z</time>
      </trkpt>
      <trkpt lat="46.9442" lon="-0.88398">
        <ele>204</ele>
        <time>2015-06-30T07:15:36.000Z</time>
      </trkpt>
      <trkpt lat="46.9442" lon="-0.88398">
        <ele>204</ele>
        <time>2015-06-30T07:15:38.000Z</time>
      </trkpt>
      <trkpt lat="46.94429" lon="-0.88394">
        <ele>203</ele>
        <time>2015-06-30T07:15:42.000Z</time>
      </trkpt>
      <trkpt lat="46.94435" lon="-0.88392">
        <ele>203</ele>
        <time>2015-06-30T07:15:44.000Z</time>
      </trkpt>
      <trkpt lat="46.94441" lon="-0.88391">
        <ele>203</ele>
        <time>2015-06-30T07:15:48.000Z</time>
      </trkpt>
      <trkpt lat="46.94441" lon="-0.88391">
        <ele>203</ele>
        <time>2015-06-30T07:15:52.000Z</time>
      </trkpt>
      <trkpt lat="46.94441" lon="-0.88391">
        <ele>203</ele>
        <time>2015-06-30T07:15:54.000Z</time>
      </trkpt>
      <trkpt lat="46.94441" lon="-0.88391">
        <ele>203</ele>
        <time>2015-06-30T07:15:56.000Z</time>
      </trkpt>
      <trkpt lat="46.94441" lon="-0.88391">
        <ele>203</ele>
        <time>2015-06-30T07:16:04.000Z</time>
      </trkpt>
      <trkpt lat="46.94441" lon="-0.88391">
        <ele>203</ele>
        <time>2015-06-30T07:16:06.000Z</time>
      </trkpt>
      <trkpt lat="46.94441" lon="-0.88391">
        <ele>203</ele>
        <time>2015-06-30T07:16:08.000Z</time>
      </trkpt>
      <trkpt lat="46.94441" lon="-0.88391">
        <ele>203</ele>
        <time>2015-06-30T07:16:10.000Z</time>
      </trkpt>
      <trkpt lat="46.94441" lon="-0.88391">
        <ele>203</ele>
        <time>2015-06-30T07:16:12.000Z</time>
      </trkpt>
      <trkpt lat="46.94441" lon="-0.88391">
        <ele>203</ele>
        <time>2015-06-30T07:16:14.000Z</time>
      </trkpt>
      <trkpt lat="46.94441" lon="-0.88391">
        <ele>203</ele>
        <time>2015-06-30T07:16:16.000Z</time>
      </trkpt>
      <trkpt lat="46.94458" lon="-0.88378">
        <ele>200</ele>
        <time>2015-06-30T07:16:20.000Z</time>
      </trkpt>
      <trkpt lat="46.94468" lon="-0.88371">
        <ele>200</ele>
        <time>2015-06-30T07:16:22.000Z</time>
      </trkpt>
      <trkpt lat="46.94474" lon="-0.88367">
        <ele>200</ele>
        <time>2015-06-30T07:16:24.000Z</time>
      </trkpt>
      <trkpt lat="46.94477" lon="-0.88362">
        <ele>199</ele>
        <time>2015-06-30T07:16:28.000Z</time>
      </trkpt>
      <trkpt lat="46.94477" lon="-0.88354">
        <ele>198</ele>
        <time>2015-06-30T07:16:34.000Z</time>
      </trkpt>
      <trkpt lat="46.94476" lon="-0.88346">
        <ele>197</ele>
        <time>2015-06-30T07:16:38.000Z</time>
      </trkpt>
      <trkpt lat="46.94471" lon="-0.8834">
        <ele>196</ele>
        <time>2015-06-30T07:16:44.000Z</time>
      </trkpt>
      <trkpt lat="46.94471" lon="-0.8834">
        <ele>196</ele>
        <time>2015-06-30T07:16:46.000Z</time>
      </trkpt>
      <trkpt lat="46.94471" lon="-0.8834">
        <ele>196</ele>
        <time>2015-06-30T07:16:48.000Z</time>
      </trkpt>
      <trkpt lat="46.94471" lon="-0.8834">
        <ele>196</ele>
        <time>2015-06-30T07:16:50.000Z</time>
      </trkpt>
      <trkpt lat="46.94471" lon="-0.8834">
        <ele>196</ele>
        <time>2015-06-30T07:16:52.000Z</time>
      </trkpt>
      <trkpt lat="46.94471" lon="-0.8834">
        <ele>196</ele>
        <time>2015-06-30T07:16:54.000Z</time>
      </trkpt>
      <trkpt lat="46.94471" lon="-0.8834">
        <ele>196</ele>
        <time>2015-06-30T07:16:56.000Z</time>
      </trkpt>
      <trkpt lat="46.94453" lon="-0.88331">
        <ele>193</ele>
        <time>2015-06-30T07:17:12.000Z</time>
      </trkpt>
      <trkpt lat="46.94443" lon="-0.88327">
        <ele>192</ele>
        <time>2015-06-30T07:17:14.000Z</time>
      </trkpt>
      <trkpt lat="46.94437" lon="-0.88324">
        <ele>192</ele>
        <time>2015-06-30T07:17:16.000Z</time>
      </trkpt>
      <trkpt lat="46.94432" lon="-0.88322">
        <ele>191</ele>
        <time>2015-06-30T07:17:20.000Z</time>
      </trkpt>
      <trkpt lat="46.94432" lon="-0.88322">
        <ele>191</ele>
        <time>2015-06-30T07:17:22.000Z</time>
      </trkpt>
      <trkpt lat="46.94432" lon="-0.88322">
        <ele>191</ele>
        <time>2015-06-30T07:17:24.000Z</time>
      </trkpt>
      <trkpt lat="46.94432" lon="-0.88322">
        <ele>191</ele>
        <time>2015-06-30T07:17:26.000Z</time>
      </trkpt>
      <trkpt lat="46.94432" lon="-0.88322">
        <ele>191</ele>
        <time>2015-06-30T07:17:28.000Z</time>
      </trkpt>
      <trkpt lat="46.94432" lon="-0.88322">
        <ele>191</ele>
        <time>2015-06-30T07:17:30.000Z</time>
      </trkpt>
      <trkpt lat="46.94432" lon="-0.88322">
        <ele>191</ele>
        <time>2015-06-30T07:17:32.000Z</time>
      </trkpt>
      <trkpt lat="46.94432" lon="-0.88322">
        <ele>191</ele>
        <time>2015-06-30T07:17:34.000Z</time>
      </trkpt>
      <trkpt lat="46.94423" lon="-0.88318">
        <ele>188</ele>
        <time>2015-06-30T07:17:38.000Z</time>
      </trkpt>
      <trkpt lat="46.94417" lon="-0.88315">
        <ele>188</ele>
        <time>2015-06-30T07:17:40.000Z</time>
      </trkpt>
      <trkpt lat="46.94413" lon="-0.88311">
        <ele>188</ele>
        <time>2015-06-30T07:17:44.000Z</time>
      </trkpt>
      <trkpt lat="46.94408" lon="-0.88306">
        <ele>188</ele>
        <time>2015-06-30T07:17:50.000Z</time>
      </trkpt>
      <trkpt lat="46.94408" lon="-0.88306">
        <ele>188</ele>
        <time>2015-06-30T07:17:54.000Z</time>
      </trkpt>
      <trkpt lat="46.94403" lon="-0.88302">
        <ele>187</ele>
        <time>2015-06-30T07:17:56.000Z</time>
      </trkpt>
      <trkpt lat="46.94403" lon="-0.88302">
        <ele>187</ele>
        <time>2015-06-30T07:17:58.000Z</time>
      </trkpt>
      <trkpt lat="46.94399" lon="-0.88296">
        <ele>186</ele>
        <time>2015-06-30T07:18:02.000Z</time>
      </trkpt>
      <trkpt lat="46.94396" lon="-0.8829">
        <ele>186</ele>
        <time>2015-06-30T07:18:04.000Z</time>
      </trkpt>
      <trkpt lat="46.94391" lon="-0.88285">
        <ele>185</ele>
        <time>2015-06-30T07:18:08.000Z</time>
      </trkpt>
      <trkpt lat="46.94388" lon="-0.8828">
        <ele>185</ele>
        <time>2015-06-30T07:18:10.000Z</time>
      </trkpt>
      <trkpt lat="46.94384" lon="-0.88276">
        <ele>185</ele>
        <time>2015-06-30T07:18:14.000Z</time>
      </trkpt>
      <trkpt lat="46.94384" lon="-0.88276">
        <ele>185</ele>
        <time>2015-06-30T07:18:16.000Z</time>
      </trkpt>
      <trkpt lat="46.94384" lon="-0.88276">
        <ele>185</ele>
        <time>2015-06-30T07:18:18.000Z</time>
      </trkpt>
      <trkpt lat="46.94384" lon="-0.88276">
        <ele>185</ele>
        <time>2015-06-30T07:18:20.000Z</time>
      </trkpt>
      <trkpt lat="46.94384" lon="-0.88276">
        <ele>185</ele>
        <time>2015-06-30T07:18:22.000Z</time>
      </trkpt>
      <trkpt lat="46.94384" lon="-0.88276">
        <ele>185</ele>
        <time>2015-06-30T07:18:24.000Z</time>
      </trkpt>
      <trkpt lat="46.94374" lon="-0.8826">
        <ele>182</ele>
        <time>2015-06-30T07:18:32.000Z</time>
      </trkpt>
      <trkpt lat="46.94368" lon="-0.8825">
        <ele>182</ele>
        <time>2015-06-30T07:18:34.000Z</time>
      </trkpt>
      <trkpt lat="46.94365" lon="-0.88244">
        <ele>182</ele>
        <time>2015-06-30T07:18:36.000Z</time>
      </trkpt>
      <trkpt lat="46.94362" lon="-0.88237">
        <ele>182</ele>
        <time>2015-06-30T07:18:42.000Z</time>
      </trkpt>
      <trkpt lat="46.94362" lon="-0.88237">
        <ele>182</ele>
        <time>2015-06-30T07:18:44.000Z</time>
      </trkpt>
      <trkpt lat="46.94362" lon="-0.88237">
        <ele>182</ele>
        <time>2015-06-30T07:18:46.000Z</time>
      </trkpt>
      <trkpt lat="46.94362" lon="-0.88237">
        <ele>182</ele>
        <time>2015-06-30T07:18:48.000Z</time>
      </trkpt>
      <trkpt lat="46.94362" lon="-0.88237">
        <ele>182</ele>
        <time>2015-06-30T07:18:50.000Z</time>
      </trkpt>
      <trkpt lat="46.94362" lon="-0.88237">
        <ele>182</ele>
        <time>2015-06-30T07:18:52.000Z</time>
      </trkpt>
      <trkpt lat="46.94362" lon="-0.88237">
        <ele>182</ele>
        <time>2015-06-30T07:18:54.000Z</time>
      </trkpt>
      <trkpt lat="46.94362" lon="-0.88237">
        <ele>182</ele>
        <time>2015-06-30T07:18:56.000Z</time>
      </trkpt>
      <trkpt lat="46.94362" lon="-0.88237">
        <ele>182</ele>
        <time>2015-06-30T07:18:58.000Z</time>
      </trkpt>
      <trkpt lat="46.94356" lon="-0.88222">
        <ele>180</ele>
        <time>2015-06-30T07:19:02.000Z</time>
      </trkpt>
      <trkpt lat="46.94353" lon="-0.88212">
        <ele>180</ele>
        <time>2015-06-30T07:19:04.000Z</time>
      </trkpt>
      <trkpt lat="46.94353" lon="-0.88212">
        <ele>180</ele>
        <time>2015-06-30T07:19:06.000Z</time>
      </trkpt>
      <trkpt lat="46.94353" lon="-0.88212">
        <ele>180</ele>
        <time>2015-06-30T07:19:08.000Z</time>
      </trkpt>
      <trkpt lat="46.94353" lon="-0.88212">
        <ele>180</ele>
        <time>2015-06-30T07:19:10.000Z</time>
      </trkpt>
      <trkpt lat="46.94345" lon="-0.88198">
        <ele>178</ele>
        <time>2015-06-30T07:19:20.000Z</time>
      </trkpt>
      <trkpt lat="46.94341" lon="-0.88189">
        <ele>177</ele>
        <time>2015-06-30T07:19:22.000Z</time>
      </trkpt>
      <trkpt lat="46.94337" lon="-0.88184">
        <ele>177</ele>
        <time>2015-06-30T07:19:24.000Z</time>
      </trkpt>
      <trkpt lat="46.94337" lon="-0.88184">
        <ele>177</ele>
        <time>2015-06-30T07:19:26.000Z</time>
      </trkpt>
      <trkpt lat="46.94337" lon="-0.88184">
        <ele>177</ele>
        <time>2015-06-30T07:19:28.000Z</time>
      </trkpt>
      <trkpt lat="46.94331" lon="-0.88179">
        <ele>176</ele>
        <time>2015-06-30T07:19:30.000Z</time>
      </trkpt>
      <trkpt lat="46.94326" lon="-0.88174">
        <ele>175</ele>
        <time>2015-06-30T07:19:34.000Z</time>
      </trkpt>
      <trkpt lat="46.9432" lon="-0.88169">
        <ele>174</ele>
        <time>2015-06-30T07:19:38.000Z</time>
      </trkpt>
      <trkpt lat="46.94316" lon="-0.88164">
        <ele>174</ele>
        <time>2015-06-30T07:19:40.000Z</time>
      </trkpt>
      <trkpt lat="46.94316" lon="-0.88164">
        <ele>174</ele>
        <time>2015-06-30T07:19:44.000Z</time>
      </trkpt>
      <trkpt lat="46.94316" lon="-0.88164">
        <ele>174</ele>
        <time>2015-06-30T07:19:50.000Z</time>
      </trkpt>
      <trkpt lat="46.94316" lon="-0.88164">
        <ele>174</ele>
        <time>2015-06-30T07:19:52.000Z</time>
      </trkpt>
      <trkpt lat="46.94323" lon="-0.88143">
        <ele>170</ele>
        <time>2015-06-30T07:20:18.000Z</time>
      </trkpt>
      <trkpt lat="46.94323" lon="-0.88143">
        <ele>170</ele>
        <time>2015-06-30T07:20:20.000Z</time>
      </trkpt>
      <trkpt lat="46.94323" lon="-0.88143">
        <ele>170</ele>
        <time>2015-06-30T07:20:22.000Z</time>
      </trkpt>
      <trkpt lat="46.94334" lon="-0.88051">
        <ele>169</ele>
        <time>2015-06-30T07:23:40.000Z</time>
      </trkpt>
      <trkpt lat="46.94334" lon="-0.88051">
        <ele>169</ele>
        <time>2015-06-30T07:23:44.000Z</time>
      </trkpt>
      <trkpt lat="46.94334" lon="-0.88051">
        <ele>169</ele>
        <time>2015-06-30T07:23:46.000Z</time>
      </trkpt>
      <trkpt lat="46.94336" lon="-0.87978">
        <ele>169</ele>
        <time>2015-06-30T07:24:14.000Z</time>
      </trkpt>
      <trkpt lat="46.94337" lon="-0.87939">
        <ele>169</ele>
        <time>2015-06-30T07:24:16.000Z</time>
      </trkpt>
      <trkpt lat="46.94338" lon="-0.87917">
        <ele>169</ele>
        <time>2015-06-30T07:24:18.000Z</time>
      </trkpt>
      <trkpt lat="46.94339" lon="-0.87905">
        <ele>169</ele>
        <time>2015-06-30T07:24:20.000Z</time>
      </trkpt>
      <trkpt lat="46.94339" lon="-0.87896">
        <ele>170</ele>
        <time>2015-06-30T07:24:22.000Z</time>
      </trkpt>
      <trkpt lat="46.9434" lon="-0.87882">
        <ele>170</ele>
        <time>2015-06-30T07:24:26.000Z</time>
      </trkpt>
      <trkpt lat="46.9434" lon="-0.87882">
        <ele>170</ele>
        <time>2015-06-30T07:24:28.000Z</time>
      </trkpt>
      <trkpt lat="46.9434" lon="-0.87882">
        <ele>170</ele>
        <time>2015-06-30T07:24:30.000Z</time>
      </trkpt>
      <trkpt lat="46.9434" lon="-0.87882">
        <ele>170</ele>
        <time>2015-06-30T07:24:32.000Z</time>
      </trkpt>
      <trkpt lat="46.9434" lon="-0.87882">
        <ele>170</ele>
        <time>2015-06-30T07:24:34.000Z</time>
      </trkpt>
      <trkpt lat="46.9434" lon="-0.87882">
        <ele>170</ele>
        <time>2015-06-30T07:24:36.000Z</time>
      </trkpt>
      <trkpt lat="46.9434" lon="-0.87882">
        <ele>170</ele>
        <time>2015-06-30T07:24:38.000Z</time>
      </trkpt>
      <trkpt lat="46.9434" lon="-0.87882">
        <ele>170</ele>
        <time>2015-06-30T07:24:40.000Z</time>
      </trkpt>
      <trkpt lat="46.9434" lon="-0.87882">
        <ele>170</ele>
        <time>2015-06-30T07:24:42.000Z</time>
      </trkpt>
      <trkpt lat="46.9434" lon="-0.87882">
        <ele>170</ele>
        <time>2015-06-30T07:24:50.000Z</time>
      </trkpt>
      <trkpt lat="46.9434" lon="-0.87882">
        <ele>170</ele>
        <time>2015-06-30T07:24:52.000Z</time>
      </trkpt>
      <trkpt lat="46.94317" lon="-0.87854">
        <ele>173</ele>
        <time>2015-06-30T07:25:40.000Z</time>
      </trkpt>
      <trkpt lat="46.94304" lon="-0.8784">
        <ele>173</ele>
        <time>2015-06-30T07:25:42.000Z</time>
      </trkpt>
      <trkpt lat="46.94297" lon="-0.87832">
        <ele>173</ele>
        <time>2015-06-30T07:25:44.000Z</time>
      </trkpt>
      <trkpt lat="46.94297" lon="-0.87832">
        <ele>173</ele>
        <time>2015-06-30T07:25:46.000Z</time>
      </trkpt>
      <trkpt lat="46.94297" lon="-0.87832">
        <ele>173</ele>
        <time>2015-06-30T07:25:48.000Z</time>
      </trkpt>
      <trkpt lat="46.94297" lon="-0.87832">
        <ele>173</ele>
        <time>2015-06-30T07:25:50.000Z</time>
      </trkpt>
      <trkpt lat="46.94297" lon="-0.87832">
        <ele>173</ele>
        <time>2015-06-30T07:25:52.000Z</time>
      </trkpt>
      <trkpt lat="46.94286" lon="-0.87824">
        <ele>174</ele>
        <time>2015-06-30T07:25:56.000Z</time>
      </trkpt>
      <trkpt lat="46.94286" lon="-0.87824">
        <ele>174</ele>
        <time>2015-06-30T07:25:58.000Z</time>
      </trkpt>
      <trkpt lat="46.94286" lon="-0.87824">
        <ele>174</ele>
        <time>2015-06-30T07:26:38.000Z</time>
      </trkpt>
      <trkpt lat="46.94242" lon="-0.87786">
        <ele>163</ele>
        <time>2015-06-30T07:27:16.000Z</time>
      </trkpt>
      <trkpt lat="46.94219" lon="-0.87766">
        <ele>163</ele>
        <time>2015-06-30T07:27:18.000Z</time>
      </trkpt>
      <trkpt lat="46.94207" lon="-0.87755">
        <ele>163</ele>
        <time>2015-06-30T07:27:20.000Z</time>
      </trkpt>
      <trkpt lat="46.942" lon="-0.87749">
        <ele>162</ele>
        <time>2015-06-30T07:27:22.000Z</time>
      </trkpt>
      <trkpt lat="46.94196" lon="-0.87745">
        <ele>162</ele>
        <time>2015-06-30T07:27:24.000Z</time>
      </trkpt>
      <trkpt lat="46.94196" lon="-0.87745">
        <ele>162</ele>
        <time>2015-06-30T07:27:26.000Z</time>
      </trkpt>
      <trkpt lat="46.94196" lon="-0.87745">
        <ele>162</ele>
        <time>2015-06-30T07:27:28.000Z</time>
      </trkpt>
      <trkpt lat="46.94196" lon="-0.87745">
        <ele>162</ele>
        <time>2015-06-30T07:27:30.000Z</time>
      </trkpt>
      <trkpt lat="46.94196" lon="-0.87745">
        <ele>162</ele>
        <time>2015-06-30T07:27:32.000Z</time>
      </trkpt>
      <trkpt lat="46.94196" lon="-0.87745">
        <ele>162</ele>
        <time>2015-06-30T07:27:34.000Z</time>
      </trkpt>
      <trkpt lat="46.94196" lon="-0.87745">
        <ele>162</ele>
        <time>2015-06-30T07:27:36.000Z</time>
      </trkpt>
      <trkpt lat="46.94196" lon="-0.87745">
        <ele>162</ele>
        <time>2015-06-30T07:27:38.000Z</time>
      </trkpt>
      <trkpt lat="46.94196" lon="-0.87745">
        <ele>162</ele>
        <time>2015-06-30T07:27:40.000Z</time>
      </trkpt>
      <trkpt lat="46.94196" lon="-0.87745">
        <ele>162</ele>
        <time>2015-06-30T07:27:42.000Z</time>
      </trkpt>
      <trkpt lat="46.94196" lon="-0.87745">
        <ele>162</ele>
        <time>2015-06-30T07:27:44.000Z</time>
      </trkpt>
      <trkpt lat="46.94196" lon="-0.87745">
        <ele>162</ele>
        <time>2015-06-30T07:27:46.000Z</time>
      </trkpt>
      <trkpt lat="46.94196" lon="-0.87745">
        <ele>162</ele>
        <time>2015-06-30T07:27:48.000Z</time>
      </trkpt>
      <trkpt lat="46.94196" lon="-0.87745">
        <ele>162</ele>
        <time>2015-06-30T07:27:50.000Z</time>
      </trkpt>
      <trkpt lat="46.94196" lon="-0.87745">
        <ele>162</ele>
        <time>2015-06-30T07:28:00.000Z</time>
      </trkpt>
      <trkpt lat="46.94196" lon="-0.87745">
        <ele>162</ele>
        <time>2015-06-30T07:28:02.000Z</time>
      </trkpt>
      <trkpt lat="46.94213" lon="-0.87708">
        <ele>189</ele>
        <time>2015-06-30T07:32:48.000Z</time>
      </trkpt>
      <trkpt lat="46.94223" lon="-0.87689">
        <ele>189</ele>
        <time>2015-06-30T07:32:50.000Z</time>
      </trkpt>
      <trkpt lat="46.94223" lon="-0.87689">
        <ele>189</ele>
        <time>2015-06-30T07:32:52.000Z</time>
      </trkpt>
      <trkpt lat="46.94223" lon="-0.87689">
        <ele>189</ele>
        <time>2015-06-30T07:32:54.000Z</time>
      </trkpt>
      <trkpt lat="46.94223" lon="-0.87689">
        <ele>189</ele>
        <time>2015-06-30T07:32:56.000Z</time>
      </trkpt>
      <trkpt lat="46.94223" lon="-0.87689">
        <ele>189</ele>
        <time>2015-06-30T07:32:58.000Z</time>
      </trkpt>
      <trkpt lat="46.94234" lon="-0.87679">
        <ele>188</ele>
        <time>2015-06-30T07:33:02.000Z</time>
      </trkpt>
      <trkpt lat="46.9424" lon="-0.87673">
        <ele>188</ele>
        <time>2015-06-30T07:33:04.000Z</time>
      </trkpt>
      <trkpt lat="46.9424" lon="-0.87673">
        <ele>188</ele>
        <time>2015-06-30T07:33:06.000Z</time>
      </trkpt>
      <trkpt lat="46.94244" lon="-0.87668">
        <ele>189</ele>
        <time>2015-06-30T07:33:08.000Z</time>
      </trkpt>
      <trkpt lat="46.94244" lon="-0.87668">
        <ele>189</ele>
        <time>2015-06-30T07:33:14.000Z</time>
      </trkpt>
      <trkpt lat="46.94244" lon="-0.87668">
        <ele>189</ele>
        <time>2015-06-30T07:33:16.000Z</time>
      </trkpt>
      <trkpt lat="46.94244" lon="-0.87668">
        <ele>189</ele>
        <time>2015-06-30T07:33:18.000Z</time>
      </trkpt>
      <trkpt lat="46.94244" lon="-0.87668">
        <ele>189</ele>
        <time>2015-06-30T07:33:20.000Z</time>
      </trkpt>
      <trkpt lat="46.94244" lon="-0.87668">
        <ele>189</ele>
        <time>2015-06-30T07:33:22.000Z</time>
      </trkpt>
      <trkpt lat="46.94244" lon="-0.87668">
        <ele>189</ele>
        <time>2015-06-30T07:33:54.000Z</time>
      </trkpt>
      <trkpt lat="46.94266" lon="-0.87653">
        <ele>199</ele>
        <time>2015-06-30T07:34:20.000Z</time>
      </trkpt>
      <trkpt lat="46.94278" lon="-0.87646">
        <ele>199</ele>
        <time>2015-06-30T07:34:22.000Z</time>
      </trkpt>
      <trkpt lat="46.94284" lon="-0.87645">
        <ele>200</ele>
        <time>2015-06-30T07:34:24.000Z</time>
      </trkpt>
      <trkpt lat="46.94284" lon="-0.87645">
        <ele>200</ele>
        <time>2015-06-30T07:34:26.000Z</time>
      </trkpt>
      <trkpt lat="46.94292" lon="-0.87649">
        <ele>201</ele>
        <time>2015-06-30T07:34:38.000Z</time>
      </trkpt>
      <trkpt lat="46.94297" lon="-0.87651">
        <ele>201</ele>
        <time>2015-06-30T07:34:40.000Z</time>
      </trkpt>
      <trkpt lat="46.94297" lon="-0.87651">
        <ele>201</ele>
        <time>2015-06-30T07:34:42.000Z</time>
      </trkpt>
      <trkpt lat="46.94297" lon="-0.87651">
        <ele>201</ele>
        <time>2015-06-30T07:34:44.000Z</time>
      </trkpt>
      <trkpt lat="46.94297" lon="-0.87651">
        <ele>201</ele>
        <time>2015-06-30T07:34:48.000Z</time>
      </trkpt>
      <trkpt lat="46.94297" lon="-0.87651">
        <ele>201</ele>
        <time>2015-06-30T07:34:50.000Z</time>
      </trkpt>
      <trkpt lat="46.94309" lon="-0.87647">
        <ele>202</ele>
        <time>2015-06-30T07:35:04.000Z</time>
      </trkpt>
      <trkpt lat="46.94315" lon="-0.87642">
        <ele>203</ele>
        <time>2015-06-30T07:35:06.000Z</time>
      </trkpt>
      <trkpt lat="46.94318" lon="-0.87637">
        <ele>203</ele>
        <time>2015-06-30T07:35:10.000Z</time>
      </trkpt>
      <trkpt lat="46.94318" lon="-0.87637">
        <ele>203</ele>
        <time>2015-06-30T07:35:18.000Z</time>
      </trkpt>
      <trkpt lat="46.94318" lon="-0.87637">
        <ele>203</ele>
        <time>2015-06-30T07:35:20.000Z</time>
      </trkpt>
      <trkpt lat="46.94318" lon="-0.87637">
        <ele>203</ele>
        <time>2015-06-30T07:35:22.000Z</time>
      </trkpt>
      <trkpt lat="46.94318" lon="-0.87623">
        <ele>206</ele>
        <time>2015-06-30T07:35:28.000Z</time>
      </trkpt>
      <trkpt lat="46.94318" lon="-0.87615">
        <ele>206</ele>
        <time>2015-06-30T07:35:30.000Z</time>
      </trkpt>
      <trkpt lat="46.94319" lon="-0.87608">
        <ele>206</ele>
        <time>2015-06-30T07:35:34.000Z</time>
      </trkpt>
      <trkpt lat="46.94319" lon="-0.87608">
        <ele>206</ele>
        <time>2015-06-30T07:35:38.000Z</time>
      </trkpt>
      <trkpt lat="46.94319" lon="-0.87608">
        <ele>206</ele>
        <time>2015-06-30T07:35:40.000Z</time>
      </trkpt>
      <trkpt lat="46.94319" lon="-0.87608">
        <ele>206</ele>
        <time>2015-06-30T07:35:42.000Z</time>
      </trkpt>
      <trkpt lat="46.94319" lon="-0.87608">
        <ele>206</ele>
        <time>2015-06-30T07:35:44.000Z</time>
      </trkpt>
      <trkpt lat="46.94324" lon="-0.87597">
        <ele>208</ele>
        <time>2015-06-30T07:35:48.000Z</time>
      </trkpt>
      <trkpt lat="46.94327" lon="-0.8759">
        <ele>208</ele>
        <time>2015-06-30T07:35:50.000Z</time>
      </trkpt>
      <trkpt lat="46.94327" lon="-0.8759">
        <ele>208</ele>
        <time>2015-06-30T07:35:52.000Z</time>
      </trkpt>
      <trkpt lat="46.94327" lon="-0.8759">
        <ele>208</ele>
        <time>2015-06-30T07:35:54.000Z</time>
      </trkpt>
      <trkpt lat="46.94327" lon="-0.8759">
        <ele>208</ele>
        <time>2015-06-30T07:35:56.000Z</time>
      </trkpt>
      <trkpt lat="46.94327" lon="-0.8759">
        <ele>208</ele>
        <time>2015-06-30T07:35:58.000Z</time>
      </trkpt>
      <trkpt lat="46.94327" lon="-0.8759">
        <ele>208</ele>
        <time>2015-06-30T07:36:00.000Z</time>
      </trkpt>
      <trkpt lat="46.94352" lon="-0.87642">
        <ele>203</ele>
        <time>2015-06-30T07:37:50.000Z</time>
      </trkpt>
      <trkpt lat="46.94364" lon="-0.8767">
        <ele>203</ele>
        <time>2015-06-30T07:37:52.000Z</time>
      </trkpt>
      <trkpt lat="46.94364" lon="-0.8767">
        <ele>203</ele>
        <time>2015-06-30T07:37:54.000Z</time>
      </trkpt>
      <trkpt lat="46.94364" lon="-0.8767">
        <ele>203</ele>
        <time>2015-06-30T07:37:56.000Z</time>
      </trkpt>
      <trkpt lat="46.94364" lon="-0.8767">
        <ele>203</ele>
        <time>2015-06-30T07:37:58.000Z</time>
      </trkpt>
      <trkpt lat="46.94371" lon="-0.87693">
        <ele>203</ele>
        <time>2015-06-30T07:38:00.000Z</time>
      </trkpt>
      <trkpt lat="46.94374" lon="-0.87708">
        <ele>203</ele>
        <time>2015-06-30T07:38:02.000Z</time>
      </trkpt>
      <trkpt lat="46.94376" lon="-0.87716">
        <ele>204</ele>
        <time>2015-06-30T07:38:04.000Z</time>
      </trkpt>
      <trkpt lat="46.94375" lon="-0.87722">
        <ele>204</ele>
        <time>2015-06-30T07:38:14.000Z</time>
      </trkpt>
      <trkpt lat="46.94375" lon="-0.87722">
        <ele>204</ele>
        <time>2015-06-30T07:38:20.000Z</time>
      </trkpt>
      <trkpt lat="46.94375" lon="-0.87722">
        <ele>204</ele>
        <time>2015-06-30T07:38:22.000Z</time>
      </trkpt>
      <trkpt lat="46.94375" lon="-0.87722">
        <ele>204</ele>
        <time>2015-06-30T07:38:24.000Z</time>
      </trkpt>
      <trkpt lat="46.94375" lon="-0.87722">
        <ele>204</ele>
        <time>2015-06-30T07:38:26.000Z</time>
      </trkpt>
      <trkpt lat="46.94375" lon="-0.87722">
        <ele>204</ele>
        <time>2015-06-30T07:38:50.000Z</time>
      </trkpt>
      <trkpt lat="46.94375" lon="-0.87752">
        <ele>197</ele>
        <time>2015-06-30T07:39:20.000Z</time>
      </trkpt>
      <trkpt lat="46.94376" lon="-0.87767">
        <ele>197</ele>
        <time>2015-06-30T07:39:22.000Z</time>
      </trkpt>
      <trkpt lat="46.94377" lon="-0.87775">
        <ele>196</ele>
        <time>2015-06-30T07:39:24.000Z</time>
      </trkpt>
      <trkpt lat="46.94377" lon="-0.87775">
        <ele>196</ele>
        <time>2015-06-30T07:39:26.000Z</time>
      </trkpt>
      <trkpt lat="46.94377" lon="-0.87775">
        <ele>196</ele>
        <time>2015-06-30T07:39:28.000Z</time>
      </trkpt>
      <trkpt lat="46.94377" lon="-0.87775">
        <ele>196</ele>
        <time>2015-06-30T07:39:30.000Z</time>
      </trkpt>
      <trkpt lat="46.94377" lon="-0.87775">
        <ele>196</ele>
        <time>2015-06-30T07:39:32.000Z</time>
      </trkpt>
      <trkpt lat="46.94377" lon="-0.87775">
        <ele>196</ele>
        <time>2015-06-30T07:39:34.000Z</time>
      </trkpt>
      <trkpt lat="46.94377" lon="-0.87775">
        <ele>196</ele>
        <time>2015-06-30T07:39:36.000Z</time>
      </trkpt>
      <trkpt lat="46.94377" lon="-0.87775">
        <ele>196</ele>
        <time>2015-06-30T07:39:38.000Z</time>
      </trkpt>
      <trkpt lat="46.94377" lon="-0.87775">
        <ele>196</ele>
        <time>2015-06-30T07:39:40.000Z</time>
      </trkpt>
      <trkpt lat="46.94377" lon="-0.87775">
        <ele>196</ele>
        <time>2015-06-30T07:39:42.000Z</time>
      </trkpt>
      <trkpt lat="46.94377" lon="-0.87775">
        <ele>196</ele>
        <time>2015-06-30T07:39:44.000Z</time>
      </trkpt>
      <trkpt lat="46.94377" lon="-0.87775">
        <ele>196</ele>
        <time>2015-06-30T07:39:50.000Z</time>
      </trkpt>
      <trkpt lat="46.94377" lon="-0.87775">
        <ele>196</ele>
        <time>2015-06-30T07:39:52.000Z</time>
      </trkpt>
      <trkpt lat="46.94386" lon="-0.87776">
        <ele>192</ele>
        <time>2015-06-30T07:39:54.000Z</time>
      </trkpt>
      <trkpt lat="46.94391" lon="-0.87774">
        <ele>192</ele>
        <time>2015-06-30T07:39:56.000Z</time>
      </trkpt>
      <trkpt lat="46.94395" lon="-0.87769">
        <ele>191</ele>
        <time>2015-06-30T07:40:04.000Z</time>
      </trkpt>
      <trkpt lat="46.94399" lon="-0.87763">
        <ele>190</ele>
        <time>2015-06-30T07:40:08.000Z</time>
      </trkpt>
      <trkpt lat="46.94402" lon="-0.87759">
        <ele>190</ele>
        <time>2015-06-30T07:40:12.000Z</time>
      </trkpt>
      <trkpt lat="46.94402" lon="-0.87759">
        <ele>190</ele>
        <time>2015-06-30T07:40:14.000Z</time>
      </trkpt>
      <trkpt lat="46.94407" lon="-0.87755">
        <ele>189</ele>
        <time>2015-06-30T07:40:16.000Z</time>
      </trkpt>
      <trkpt lat="46.94407" lon="-0.87755">
        <ele>189</ele>
        <time>2015-06-30T07:40:18.000Z</time>
      </trkpt>
      <trkpt lat="46.94407" lon="-0.87755">
        <ele>189</ele>
        <time>2015-06-30T07:40:20.000Z</time>
      </trkpt>
      <trkpt lat="46.94407" lon="-0.87755">
        <ele>189</ele>
        <time>2015-06-30T07:40:22.000Z</time>
      </trkpt>
      <trkpt lat="46.94407" lon="-0.87755">
        <ele>189</ele>
        <time>2015-06-30T07:40:24.000Z</time>
      </trkpt>
      <trkpt lat="46.94407" lon="-0.87755">
        <ele>189</ele>
        <time>2015-06-30T07:40:26.000Z</time>
      </trkpt>
      <trkpt lat="46.94407" lon="-0.87755">
        <ele>189</ele>
        <time>2015-06-30T07:40:28.000Z</time>
      </trkpt>
      <trkpt lat="46.94407" lon="-0.87755">
        <ele>189</ele>
        <time>2015-06-30T07:40:34.000Z</time>
      </trkpt>
      <trkpt lat="46.9443" lon="-0.87754">
        <ele>188</ele>
        <time>2015-06-30T07:40:54.000Z</time>
      </trkpt>
      <trkpt lat="46.94442" lon="-0.87752">
        <ele>188</ele>
        <time>2015-06-30T07:40:56.000Z</time>
      </trkpt>
      <trkpt lat="46.94449" lon="-0.8775">
        <ele>188</ele>
        <time>2015-06-30T07:40:58.000Z</time>
      </trkpt>
      <trkpt lat="46.94453" lon="-0.87747">
        <ele>189</ele>
        <time>2015-06-30T07:41:00.000Z</time>
      </trkpt>
      <trkpt lat="46.94453" lon="-0.87747">
        <ele>189</ele>
        <time>2015-06-30T07:41:06.000Z</time>
      </trkpt>
      <trkpt lat="46.94453" lon="-0.87747">
        <ele>189</ele>
        <time>2015-06-30T07:41:08.000Z</time>
      </trkpt>
      <trkpt lat="46.94453" lon="-0.87747">
        <ele>189</ele>
        <time>2015-06-30T07:41:10.000Z</time>
      </trkpt>
      <trkpt lat="46.94453" lon="-0.87747">
        <ele>189</ele>
        <time>2015-06-30T07:41:12.000Z</time>
      </trkpt>
      <trkpt lat="46.94453" lon="-0.87747">
        <ele>189</ele>
        <time>2015-06-30T07:41:14.000Z</time>
      </trkpt>
      <trkpt lat="46.94453" lon="-0.87747">
        <ele>189</ele>
        <time>2015-06-30T07:41:16.000Z</time>
      </trkpt>
      <trkpt lat="46.94464" lon="-0.87739">
        <ele>193</ele>
        <time>2015-06-30T07:41:22.000Z</time>
      </trkpt>
      <trkpt lat="46.94471" lon="-0.87735">
        <ele>193</ele>
        <time>2015-06-30T07:41:24.000Z</time>
      </trkpt>
      <trkpt lat="46.94475" lon="-0.87732">
        <ele>193</ele>
        <time>2015-06-30T07:41:26.000Z</time>
      </trkpt>
      <trkpt lat="46.9448" lon="-0.87729">
        <ele>194</ele>
        <time>2015-06-30T07:41:30.000Z</time>
      </trkpt>
      <trkpt lat="46.94484" lon="-0.87727">
        <ele>194</ele>
        <time>2015-06-30T07:41:34.000Z</time>
      </trkpt>
      <trkpt lat="46.94488" lon="-0.87724">
        <ele>195</ele>
        <time>2015-06-30T07:41:38.000Z</time>
      </trkpt>
      <trkpt lat="46.94492" lon="-0.8772">
        <ele>195</ele>
        <time>2015-06-30T07:41:42.000Z</time>
      </trkpt>
      <trkpt lat="46.94492" lon="-0.8772">
        <ele>195</ele>
        <time>2015-06-30T07:41:44.000Z</time>
      </trkpt>
      <trkpt lat="46.94492" lon="-0.8772">
        <ele>195</ele>
        <time>2015-06-30T07:41:46.000Z</time>
      </trkpt>
      <trkpt lat="46.94492" lon="-0.8772">
        <ele>195</ele>
        <time>2015-06-30T07:41:48.000Z</time>
      </trkpt>
      <trkpt lat="46.94492" lon="-0.8772">
        <ele>195</ele>
        <time>2015-06-30T07:41:50.000Z</time>
      </trkpt>
      <trkpt lat="46.94492" lon="-0.8772">
        <ele>195</ele>
        <time>2015-06-30T07:41:52.000Z</time>
      </trkpt>
      <trkpt lat="46.94492" lon="-0.8772">
        <ele>195</ele>
        <time>2015-06-30T07:41:54.000Z</time>
      </trkpt>
      <trkpt lat="46.94492" lon="-0.8772">
        <ele>195</ele>
        <time>2015-06-30T07:41:56.000Z</time>
      </trkpt>
      <trkpt lat="46.94492" lon="-0.8772">
        <ele>195</ele>
        <time>2015-06-30T07:41:58.000Z</time>
      </trkpt>
      <trkpt lat="46.94503" lon="-0.87705">
        <ele>196</ele>
        <time>2015-06-30T07:42:02.000Z</time>
      </trkpt>
      <trkpt lat="46.9451" lon="-0.87697">
        <ele>196</ele>
        <time>2015-06-30T07:42:04.000Z</time>
      </trkpt>
      <trkpt lat="46.94514" lon="-0.87691">
        <ele>196</ele>
        <time>2015-06-30T07:42:06.000Z</time>
      </trkpt>
      <trkpt lat="46.94518" lon="-0.87686">
        <ele>196</ele>
        <time>2015-06-30T07:42:10.000Z</time>
      </trkpt>
      <trkpt lat="46.94522" lon="-0.87682">
        <ele>196</ele>
        <time>2015-06-30T07:42:14.000Z</time>
      </trkpt>
      <trkpt lat="46.94522" lon="-0.87682">
        <ele>196</ele>
        <time>2015-06-30T07:42:16.000Z</time>
      </trkpt>
      <trkpt lat="46.94522" lon="-0.87682">
        <ele>196</ele>
        <time>2015-06-30T07:42:18.000Z</time>
      </trkpt>
      <trkpt lat="46.94522" lon="-0.87682">
        <ele>196</ele>
        <time>2015-06-30T07:42:20.000Z</time>
      </trkpt>
      <trkpt lat="46.94522" lon="-0.87682">
        <ele>196</ele>
        <time>2015-06-30T07:42:22.000Z</time>
      </trkpt>
      <trkpt lat="46.94522" lon="-0.87682">
        <ele>196</ele>
        <time>2015-06-30T07:42:24.000Z</time>
      </trkpt>
      <trkpt lat="46.94522" lon="-0.87682">
        <ele>196</ele>
        <time>2015-06-30T07:42:26.000Z</time>
      </trkpt>
      <trkpt lat="46.94522" lon="-0.87682">
        <ele>196</ele>
        <time>2015-06-30T07:42:28.000Z</time>
      </trkpt>
      <trkpt lat="46.94522" lon="-0.87682">
        <ele>196</ele>
        <time>2015-06-30T07:42:30.000Z</time>
      </trkpt>
      <trkpt lat="46.94522" lon="-0.87682">
        <ele>196</ele>
        <time>2015-06-30T07:42:32.000Z</time>
      </trkpt>
      <trkpt lat="46.94522" lon="-0.87682">
        <ele>196</ele>
        <time>2015-06-30T07:42:34.000Z</time>
      </trkpt>
      <trkpt lat="46.94522" lon="-0.87682">
        <ele>196</ele>
        <time>2015-06-30T07:42:36.000Z</time>
      </trkpt>
      <trkpt lat="46.94542" lon="-0.87691">
        <ele>206</ele>
        <time>2015-06-30T07:54:42.000Z</time>
      </trkpt>
      <trkpt lat="46.94553" lon="-0.87694">
        <ele>206</ele>
        <time>2015-06-30T07:54:44.000Z</time>
      </trkpt>
      <trkpt lat="46.94558" lon="-0.87694">
        <ele>206</ele>
        <time>2015-06-30T07:54:46.000Z</time>
      </trkpt>
      <trkpt lat="46.94558" lon="-0.87694">
        <ele>206</ele>
        <time>2015-06-30T07:54:48.000Z</time>
      </trkpt>
      <trkpt lat="46.94558" lon="-0.87694">
        <ele>206</ele>
        <time>2015-06-30T07:54:50.000Z</time>
      </trkpt>
      <trkpt lat="46.94558" lon="-0.87694">
        <ele>206</ele>
        <time>2015-06-30T07:54:52.000Z</time>
      </trkpt>
      <trkpt lat="46.94558" lon="-0.87694">
        <ele>206</ele>
        <time>2015-06-30T07:54:54.000Z</time>
      </trkpt>
      <trkpt lat="46.94558" lon="-0.87694">
        <ele>206</ele>
        <time>2015-06-30T07:54:56.000Z</time>
      </trkpt>
      <trkpt lat="46.94558" lon="-0.87694">
        <ele>206</ele>
        <time>2015-06-30T07:54:58.000Z</time>
      </trkpt>
      <trkpt lat="46.94558" lon="-0.87694">
        <ele>206</ele>
        <time>2015-06-30T07:55:00.000Z</time>
      </trkpt>
      <trkpt lat="46.94569" lon="-0.87703">
        <ele>205</ele>
        <time>2015-06-30T07:55:04.000Z</time>
      </trkpt>
      <trkpt lat="46.94575" lon="-0.87708">
        <ele>205</ele>
        <time>2015-06-30T07:55:06.000Z</time>
      </trkpt>
      <trkpt lat="46.94575" lon="-0.87708">
        <ele>205</ele>
        <time>2015-06-30T07:55:08.000Z</time>
      </trkpt>
      <trkpt lat="46.94575" lon="-0.87708">
        <ele>205</ele>
        <time>2015-06-30T07:55:10.000Z</time>
      </trkpt>
      <trkpt lat="46.94575" lon="-0.87708">
        <ele>205</ele>
        <time>2015-06-30T07:55:12.000Z</time>
      </trkpt>
      <trkpt lat="46.94575" lon="-0.87708">
        <ele>205</ele>
        <time>2015-06-30T07:55:14.000Z</time>
      </trkpt>
      <trkpt lat="46.94575" lon="-0.87708">
        <ele>205</ele>
        <time>2015-06-30T07:55:16.000Z</time>
      </trkpt>
      <trkpt lat="46.94575" lon="-0.87708">
        <ele>205</ele>
        <time>2015-06-30T07:55:18.000Z</time>
      </trkpt>
      <trkpt lat="46.94575" lon="-0.87708">
        <ele>205</ele>
        <time>2015-06-30T07:55:20.000Z</time>
      </trkpt>
      <trkpt lat="46.94575" lon="-0.87708">
        <ele>205</ele>
        <time>2015-06-30T07:55:22.000Z</time>
      </trkpt>
      <trkpt lat="46.94575" lon="-0.87708">
        <ele>205</ele>
        <time>2015-06-30T07:55:50.000Z</time>
      </trkpt>
      <trkpt lat="46.94575" lon="-0.87708">
        <ele>205</ele>
        <time>2015-06-30T07:55:52.000Z</time>
      </trkpt>
      <trkpt lat="46.94575" lon="-0.87708">
        <ele>205</ele>
        <time>2015-06-30T07:55:54.000Z</time>
      </trkpt>
      <trkpt lat="46.94575" lon="-0.87708">
        <ele>205</ele>
        <time>2015-06-30T07:55:56.000Z</time>
      </trkpt>
      <trkpt lat="46.94575" lon="-0.87747">
        <ele>206</ele>
        <time>2015-06-30T07:56:04.000Z</time>
      </trkpt>
      <trkpt lat="46.94574" lon="-0.87767">
        <ele>206</ele>
        <time>2015-06-30T07:56:06.000Z</time>
      </trkpt>
      <trkpt lat="46.94574" lon="-0.87779">
        <ele>206</ele>
        <time>2015-06-30T07:56:08.000Z</time>
      </trkpt>
      <trkpt lat="46.94572" lon="-0.87786">
        <ele>206</ele>
        <time>2015-06-30T07:56:10.000Z</time>
      </trkpt>
      <trkpt lat="46.94572" lon="-0.87786">
        <ele>206</ele>
        <time>2015-06-30T07:56:12.000Z</time>
      </trkpt>
      <trkpt lat="46.94572" lon="-0.87786">
        <ele>206</ele>
        <time>2015-06-30T07:56:14.000Z</time>
      </trkpt>
      <trkpt lat="46.94567" lon="-0.87798">
        <ele>206</ele>
        <time>2015-06-30T07:56:20.000Z</time>
      </trkpt>
      <trkpt lat="46.94564" lon="-0.87805">
        <ele>205</ele>
        <time>2015-06-30T07:56:22.000Z</time>
      </trkpt>
      <trkpt lat="46.94564" lon="-0.87805">
        <ele>205</ele>
        <time>2015-06-30T07:56:24.000Z</time>
      </trkpt>
      <trkpt lat="46.94564" lon="-0.87805">
        <ele>205</ele>
        <time>2015-06-30T07:56:26.000Z</time>
      </trkpt>
      <trkpt lat="46.94564" lon="-0.87805">
        <ele>205</ele>
        <time>2015-06-30T07:56:28.000Z</time>
      </trkpt>
      <trkpt lat="46.94564" lon="-0.87805">
        <ele>205</ele>
        <time>2015-06-30T07:56:30.000Z</time>
      </trkpt>
      <trkpt lat="46.94564" lon="-0.87805">
        <ele>205</ele>
        <time>2015-06-30T07:56:32.000Z</time>
      </trkpt>
      <trkpt lat="46.94564" lon="-0.87805">
        <ele>205</ele>
        <time>2015-06-30T07:56:34.000Z</time>
      </trkpt>
      <trkpt lat="46.94556" lon="-0.87824">
        <ele>204</ele>
        <time>2015-06-30T07:56:44.000Z</time>
      </trkpt>
      <trkpt lat="46.94551" lon="-0.87834">
        <ele>204</ele>
        <time>2015-06-30T07:56:46.000Z</time>
      </trkpt>
      <trkpt lat="46.94548" lon="-0.8784">
        <ele>204</ele>
        <time>2015-06-30T07:56:48.000Z</time>
      </trkpt>
      <trkpt lat="46.94548" lon="-0.8784">
        <ele>204</ele>
        <time>2015-06-30T07:56:50.000Z</time>
      </trkpt>
      <trkpt lat="46.94548" lon="-0.8784">
        <ele>204</ele>
        <time>2015-06-30T07:56:52.000Z</time>
      </trkpt>
      <trkpt lat="46.94548" lon="-0.8784">
        <ele>204</ele>
        <time>2015-06-30T07:56:54.000Z</time>
      </trkpt>
      <trkpt lat="46.94539" lon="-0.87845">
        <ele>204</ele>
        <time>2015-06-30T07:56:58.000Z</time>
      </trkpt>
      <trkpt lat="46.94534" lon="-0.87848">
        <ele>203</ele>
        <time>2015-06-30T07:57:00.000Z</time>
      </trkpt>
      <trkpt lat="46.94529" lon="-0.87853">
        <ele>203</ele>
        <time>2015-06-30T07:57:06.000Z</time>
      </trkpt>
      <trkpt lat="46.94529" lon="-0.87853">
        <ele>203</ele>
        <time>2015-06-30T07:57:08.000Z</time>
      </trkpt>
      <trkpt lat="46.94529" lon="-0.87853">
        <ele>203</ele>
        <time>2015-06-30T07:57:10.000Z</time>
      </trkpt>
      <trkpt lat="46.94529" lon="-0.87853">
        <ele>203</ele>
        <time>2015-06-30T07:57:12.000Z</time>
      </trkpt>
      <trkpt lat="46.94529" lon="-0.87853">
        <ele>203</ele>
        <time>2015-06-30T07:57:14.000Z</time>
      </trkpt>
      <trkpt lat="46.94529" lon="-0.87853">
        <ele>203</ele>
        <time>2015-06-30T07:57:16.000Z</time>
      </trkpt>
      <trkpt lat="46.94529" lon="-0.87853">
        <ele>203</ele>
        <time>2015-06-30T07:57:18.000Z</time>
      </trkpt>
      <trkpt lat="46.94524" lon="-0.87868">
        <ele>201</ele>
        <time>2015-06-30T07:57:24.000Z</time>
      </trkpt>
      <trkpt lat="46.94522" lon="-0.87877">
        <ele>201</ele>
        <time>2015-06-30T07:57:26.000Z</time>
      </trkpt>
      <trkpt lat="46.94522" lon="-0.87877">
        <ele>201</ele>
        <time>2015-06-30T07:57:28.000Z</time>
      </trkpt>
      <trkpt lat="46.94522" lon="-0.87883">
        <ele>201</ele>
        <time>2015-06-30T07:57:30.000Z</time>
      </trkpt>
      <trkpt lat="46.94522" lon="-0.87883">
        <ele>201</ele>
        <time>2015-06-30T07:57:32.000Z</time>
      </trkpt>
      <trkpt lat="46.94522" lon="-0.87883">
        <ele>201</ele>
        <time>2015-06-30T07:57:34.000Z</time>
      </trkpt>
      <trkpt lat="46.94522" lon="-0.87883">
        <ele>201</ele>
        <time>2015-06-30T07:57:38.000Z</time>
      </trkpt>
      <trkpt lat="46.94538" lon="-0.87905">
        <ele>196</ele>
        <time>2015-06-30T07:59:36.000Z</time>
      </trkpt>
      <trkpt lat="46.94547" lon="-0.87917">
        <ele>196</ele>
        <time>2015-06-30T07:59:38.000Z</time>
      </trkpt>
      <trkpt lat="46.94551" lon="-0.87925">
        <ele>196</ele>
        <time>2015-06-30T07:59:40.000Z</time>
      </trkpt>
      <trkpt lat="46.94555" lon="-0.87931">
        <ele>196</ele>
        <time>2015-06-30T07:59:42.000Z</time>
      </trkpt>
      <trkpt lat="46.94558" lon="-0.87938">
        <ele>196</ele>
        <time>2015-06-30T07:59:46.000Z</time>
      </trkpt>
      <trkpt lat="46.94558" lon="-0.87938">
        <ele>196</ele>
        <time>2015-06-30T07:59:48.000Z</time>
      </trkpt>
      <trkpt lat="46.94558" lon="-0.87938">
        <ele>196</ele>
        <time>2015-06-30T07:59:50.000Z</time>
      </trkpt>
      <trkpt lat="46.94558" lon="-0.87938">
        <ele>196</ele>
        <time>2015-06-30T07:59:52.000Z</time>
      </trkpt>
      <trkpt lat="46.94558" lon="-0.87938">
        <ele>196</ele>
        <time>2015-06-30T07:59:54.000Z</time>
      </trkpt>
      <trkpt lat="46.9456" lon="-0.87954">
        <ele>195</ele>
        <time>2015-06-30T08:00:00.000Z</time>
      </trkpt>
      <trkpt lat="46.94562" lon="-0.87963">
        <ele>195</ele>
        <time>2015-06-30T08:00:02.000Z</time>
      </trkpt>
      <trkpt lat="46.94562" lon="-0.87963">
        <ele>195</ele>
        <time>2015-06-30T08:00:04.000Z</time>
      </trkpt>
      <trkpt lat="46.94562" lon="-0.87963">
        <ele>195</ele>
        <time>2015-06-30T08:00:06.000Z</time>
      </trkpt>
      <trkpt lat="46.94562" lon="-0.87963">
        <ele>195</ele>
        <time>2015-06-30T08:00:08.000Z</time>
      </trkpt>
      <trkpt lat="46.94562" lon="-0.87963">
        <ele>195</ele>
        <time>2015-06-30T08:00:10.000Z</time>
      </trkpt>
      <trkpt lat="46.94562" lon="-0.87963">
        <ele>195</ele>
        <time>2015-06-30T08:00:12.000Z</time>
      </trkpt>
      <trkpt lat="46.94562" lon="-0.87963">
        <ele>195</ele>
        <time>2015-06-30T08:00:18.000Z</time>
      </trkpt>
      <trkpt lat="46.94562" lon="-0.87963">
        <ele>195</ele>
        <time>2015-06-30T08:00:20.000Z</time>
      </trkpt>
      <trkpt lat="46.94562" lon="-0.87963">
        <ele>195</ele>
        <time>2015-06-30T08:00:22.000Z</time>
      </trkpt>
      <trkpt lat="46.94562" lon="-0.87963">
        <ele>195</ele>
        <time>2015-06-30T08:00:24.000Z</time>
      </trkpt>
      <trkpt lat="46.94562" lon="-0.87963">
        <ele>195</ele>
        <time>2015-06-30T08:00:26.000Z</time>
      </trkpt>
      <trkpt lat="46.94562" lon="-0.87963">
        <ele>195</ele>
        <time>2015-06-30T08:00:28.000Z</time>
      </trkpt>
      <trkpt lat="46.94562" lon="-0.87963">
        <ele>195</ele>
        <time>2015-06-30T08:00:30.000Z</time>
      </trkpt>
      <trkpt lat="46.94578" lon="-0.8798">
        <ele>189</ele>
        <time>2015-06-30T08:00:52.000Z</time>
      </trkpt>
      <trkpt lat="46.94587" lon="-0.87988">
        <ele>189</ele>
        <time>2015-06-30T08:00:54.000Z</time>
      </trkpt>
      <trkpt lat="46.94587" lon="-0.87988">
        <ele>189</ele>
        <time>2015-06-30T08:00:56.000Z</time>
      </trkpt>
      <trkpt lat="46.94587" lon="-0.87988">
        <ele>189</ele>
        <time>2015-06-30T08:00:58.000Z</time>
      </trkpt>
      <trkpt lat="46.94587" lon="-0.87988">
        <ele>189</ele>
        <time>2015-06-30T08:01:00.000Z</time>
      </trkpt>
      <trkpt lat="46.94587" lon="-0.87988">
        <ele>189</ele>
        <time>2015-06-30T08:01:04.000Z</time>
      </trkpt>
      <trkpt lat="46.94587" lon="-0.87988">
        <ele>189</ele>
        <time>2015-06-30T08:01:06.000Z</time>
      </trkpt>
      <trkpt lat="46.94587" lon="-0.87988">
        <ele>189</ele>
        <time>2015-06-30T08:01:08.000Z</time>
      </trkpt>
      <trkpt lat="46.94587" lon="-0.87988">
        <ele>189</ele>
        <time>2015-06-30T08:01:14.000Z</time>
      </trkpt>
      <trkpt lat="46.94587" lon="-0.87988">
        <ele>189</ele>
        <time>2015-06-30T08:01:30.000Z</time>
      </trkpt>
      <trkpt lat="46.94619" lon="-0.88005">
        <ele>177</ele>
        <time>2015-06-30T08:02:10.000Z</time>
      </trkpt>
      <trkpt lat="46.94619" lon="-0.88005">
        <ele>177</ele>
        <time>2015-06-30T08:02:12.000Z</time>
      </trkpt>
      <trkpt lat="46.94619" lon="-0.88005">
        <ele>177</ele>
        <time>2015-06-30T08:02:14.000Z</time>
      </trkpt>
      <trkpt lat="46.9464" lon="-0.88018">
        <ele>176</ele>
        <time>2015-06-30T08:02:18.000Z</time>
      </trkpt>
      <trkpt lat="46.94653" lon="-0.88025">
        <ele>176</ele>
        <time>2015-06-30T08:02:20.000Z</time>
      </trkpt>
      <trkpt lat="46.94659" lon="-0.88029">
        <ele>175</ele>
        <time>2015-06-30T08:02:22.000Z</time>
      </trkpt>
      <trkpt lat="46.94664" lon="-0.88031">
        <ele>175</ele>
        <time>2015-06-30T08:02:24.000Z</time>
      </trkpt>
      <trkpt lat="46.94664" lon="-0.88031">
        <ele>175</ele>
        <time>2015-06-30T08:02:26.000Z</time>
      </trkpt>
      <trkpt lat="46.94669" lon="-0.88033">
        <ele>174</ele>
        <time>2015-06-30T08:02:28.000Z</time>
      </trkpt>
      <trkpt lat="46.94669" lon="-0.88033">
        <ele>174</ele>
        <time>2015-06-30T08:02:30.000Z</time>
      </trkpt>
      <trkpt lat="46.94669" lon="-0.88033">
        <ele>174</ele>
        <time>2015-06-30T08:02:32.000Z</time>
      </trkpt>
      <trkpt lat="46.94669" lon="-0.88033">
        <ele>174</ele>
        <time>2015-06-30T08:02:34.000Z</time>
      </trkpt>
      <trkpt lat="46.94669" lon="-0.88033">
        <ele>174</ele>
        <time>2015-06-30T08:02:36.000Z</time>
      </trkpt>
      <trkpt lat="46.94678" lon="-0.88035">
        <ele>173</ele>
        <time>2015-06-30T08:02:40.000Z</time>
      </trkpt>
      <trkpt lat="46.94678" lon="-0.88035">
        <ele>173</ele>
        <time>2015-06-30T08:02:42.000Z</time>
      </trkpt>
      <trkpt lat="46.94678" lon="-0.88035">
        <ele>173</ele>
        <time>2015-06-30T08:02:44.000Z</time>
      </trkpt>
      <trkpt lat="46.94678" lon="-0.88035">
        <ele>173</ele>
        <time>2015-06-30T08:02:46.000Z</time>
      </trkpt>
      <trkpt lat="46.94678" lon="-0.88035">
        <ele>173</ele>
        <time>2015-06-30T08:02:48.000Z</time>
      </trkpt>
      <trkpt lat="46.94678" lon="-0.88035">
        <ele>173</ele>
        <time>2015-06-30T08:02:50.000Z</time>
      </trkpt>
      <trkpt lat="46.94688" lon="-0.88032">
        <ele>171</ele>
        <time>2015-06-30T08:02:52.000Z</time>
      </trkpt>
      <trkpt lat="46.94694" lon="-0.8803">
        <ele>171</ele>
        <time>2015-06-30T08:02:54.000Z</time>
      </trkpt>
      <trkpt lat="46.94694" lon="-0.8803">
        <ele>171</ele>
        <time>2015-06-30T08:02:56.000Z</time>
      </trkpt>
      <trkpt lat="46.94694" lon="-0.8803">
        <ele>171</ele>
        <time>2015-06-30T08:02:58.000Z</time>
      </trkpt>
      <trkpt lat="46.94694" lon="-0.8803">
        <ele>171</ele>
        <time>2015-06-30T08:03:00.000Z</time>
      </trkpt>
      <trkpt lat="46.94694" lon="-0.8803">
        <ele>171</ele>
        <time>2015-06-30T08:03:04.000Z</time>
      </trkpt>
      <trkpt lat="46.94708" lon="-0.88027">
        <ele>165</ele>
        <time>2015-06-30T08:03:28.000Z</time>
      </trkpt>
      <trkpt lat="46.94716" lon="-0.88026">
        <ele>164</ele>
        <time>2015-06-30T08:03:30.000Z</time>
      </trkpt>
      <trkpt lat="46.94721" lon="-0.88027">
        <ele>164</ele>
        <time>2015-06-30T08:03:32.000Z</time>
      </trkpt>
      <trkpt lat="46.94726" lon="-0.88031">
        <ele>163</ele>
        <time>2015-06-30T08:03:36.000Z</time>
      </trkpt>
      <trkpt lat="46.94731" lon="-0.88035">
        <ele>162</ele>
        <time>2015-06-30T08:03:40.000Z</time>
      </trkpt>
      <trkpt lat="46.94735" lon="-0.8804">
        <ele>162</ele>
        <time>2015-06-30T08:03:44.000Z</time>
      </trkpt>
      <trkpt lat="46.94735" lon="-0.8804">
        <ele>162</ele>
        <time>2015-06-30T08:03:46.000Z</time>
      </trkpt>
      <trkpt lat="46.94735" lon="-0.8804">
        <ele>162</ele>
        <time>2015-06-30T08:03:48.000Z</time>
      </trkpt>
      <trkpt lat="46.94735" lon="-0.8804">
        <ele>162</ele>
        <time>2015-06-30T08:03:50.000Z</time>
      </trkpt>
      <trkpt lat="46.94735" lon="-0.8804">
        <ele>162</ele>
        <time>2015-06-30T08:03:52.000Z</time>
      </trkpt>
      <trkpt lat="46.94735" lon="-0.8804">
        <ele>162</ele>
        <time>2015-06-30T08:03:54.000Z</time>
      </trkpt>
      <trkpt lat="46.94735" lon="-0.8804">
        <ele>162</ele>
        <time>2015-06-30T08:03:56.000Z</time>
      </trkpt>
      <trkpt lat="46.94735" lon="-0.8804">
        <ele>162</ele>
        <time>2015-06-30T08:04:02.000Z</time>
      </trkpt>
      <trkpt lat="46.94735" lon="-0.8804">
        <ele>162</ele>
        <time>2015-06-30T08:04:04.000Z</time>
      </trkpt>
      <trkpt lat="46.94735" lon="-0.8804">
        <ele>162</ele>
        <time>2015-06-30T08:04:12.000Z</time>
      </trkpt>
      <trkpt lat="46.94735" lon="-0.8804">
        <ele>162</ele>
        <time>2015-06-30T08:04:14.000Z</time>
      </trkpt>
      <trkpt lat="46.94754" lon="-0.88052">
        <ele>157</ele>
        <time>2015-06-30T08:04:28.000Z</time>
      </trkpt>
      <trkpt lat="46.94754" lon="-0.88052">
        <ele>157</ele>
        <time>2015-06-30T08:04:30.000Z</time>
      </trkpt>
      <trkpt lat="46.94768" lon="-0.88058">
        <ele>157</ele>
        <time>2015-06-30T08:04:34.000Z</time>
      </trkpt>
      <trkpt lat="46.94776" lon="-0.8806">
        <ele>157</ele>
        <time>2015-06-30T08:04:36.000Z</time>
      </trkpt>
      <trkpt lat="46.94781" lon="-0.88061">
        <ele>157</ele>
        <time>2015-06-30T08:04:38.000Z</time>
      </trkpt>
      <trkpt lat="46.94781" lon="-0.88061">
        <ele>157</ele>
        <time>2015-06-30T08:04:42.000Z</time>
      </trkpt>
      <trkpt lat="46.94781" lon="-0.88061">
        <ele>157</ele>
        <time>2015-06-30T08:04:44.000Z</time>
      </trkpt>
      <trkpt lat="46.9479" lon="-0.88057">
        <ele>156</ele>
        <time>2015-06-30T08:04:58.000Z</time>
      </trkpt>
      <trkpt lat="46.94795" lon="-0.88056">
        <ele>156</ele>
        <time>2015-06-30T08:05:00.000Z</time>
      </trkpt>
      <trkpt lat="46.948" lon="-0.88054">
        <ele>156</ele>
        <time>2015-06-30T08:05:04.000Z</time>
      </trkpt>
      <trkpt lat="46.948" lon="-0.88054">
        <ele>156</ele>
        <time>2015-06-30T08:05:06.000Z</time>
      </trkpt>
      <trkpt lat="46.948" lon="-0.88054">
        <ele>156</ele>
        <time>2015-06-30T08:05:08.000Z</time>
      </trkpt>
      <trkpt lat="46.94806" lon="-0.88054">
        <ele>155</ele>
        <time>2015-06-30T08:05:10.000Z</time>
      </trkpt>
      <trkpt lat="46.94812" lon="-0.88054">
        <ele>155</ele>
        <time>2015-06-30T08:05:14.000Z</time>
      </trkpt>
      <trkpt lat="46.94818" lon="-0.88055">
        <ele>154</ele>
        <time>2015-06-30T08:05:18.000Z</time>
      </trkpt>
      <trkpt lat="46.94822" lon="-0.88057">
        <ele>154</ele>
        <time>2015-06-30T08:05:20.000Z</time>
      </trkpt>
      <trkpt lat="46.94822" lon="-0.88057">
        <ele>154</ele>
        <time>2015-06-30T08:05:22.000Z</time>
      </trkpt>
      <trkpt lat="46.94822" lon="-0.88057">
        <ele>154</ele>
        <time>2015-06-30T08:05:24.000Z</time>
      </trkpt>
      <trkpt lat="46.94822" lon="-0.88057">
        <ele>154</ele>
        <time>2015-06-30T08:05:26.000Z</time>
      </trkpt>
      <trkpt lat="46.94822" lon="-0.88057">
        <ele>154</ele>
        <time>2015-06-30T08:05:28.000Z</time>
      </trkpt>
      <trkpt lat="46.94822" lon="-0.88057">
        <ele>154</ele>
        <time>2015-06-30T08:05:30.000Z</time>
      </trkpt>
      <trkpt lat="46.94832" lon="-0.88063">
        <ele>155</ele>
        <time>2015-06-30T08:05:34.000Z</time>
      </trkpt>
      <trkpt lat="46.94838" lon="-0.88066">
        <ele>155</ele>
        <time>2015-06-30T08:05:36.000Z</time>
      </trkpt>
      <trkpt lat="46.94843" lon="-0.88068">
        <ele>155</ele>
        <time>2015-06-30T08:05:38.000Z</time>
      </trkpt>
      <trkpt lat="46.94848" lon="-0.8807">
        <ele>156</ele>
        <time>2015-06-30T08:05:42.000Z</time>
      </trkpt>
      <trkpt lat="46.94852" lon="-0.88072">
        <ele>156</ele>
        <time>2015-06-30T08:05:46.000Z</time>
      </trkpt>
      <trkpt lat="46.94852" lon="-0.88072">
        <ele>156</ele>
        <time>2015-06-30T08:05:48.000Z</time>
      </trkpt>
      <trkpt lat="46.94852" lon="-0.88072">
        <ele>156</ele>
        <time>2015-06-30T08:05:50.000Z</time>
      </trkpt>
      <trkpt lat="46.94852" lon="-0.88072">
        <ele>156</ele>
        <time>2015-06-30T08:05:52.000Z</time>
      </trkpt>
      <trkpt lat="46.94852" lon="-0.88072">
        <ele>156</ele>
        <time>2015-06-30T08:05:54.000Z</time>
      </trkpt>
      <trkpt lat="46.94862" lon="-0.8808">
        <ele>156</ele>
        <time>2015-06-30T08:05:58.000Z</time>
      </trkpt>
      <trkpt lat="46.94867" lon="-0.88084">
        <ele>156</ele>
        <time>2015-06-30T08:06:00.000Z</time>
      </trkpt>
      <trkpt lat="46.94871" lon="-0.88087">
        <ele>156</ele>
        <time>2015-06-30T08:06:02.000Z</time>
      </trkpt>
      <trkpt lat="46.94876" lon="-0.88092">
        <ele>156</ele>
        <time>2015-06-30T08:06:06.000Z</time>
      </trkpt>
      <trkpt lat="46.94881" lon="-0.88096">
        <ele>156</ele>
        <time>2015-06-30T08:06:10.000Z</time>
      </trkpt>
      <trkpt lat="46.94881" lon="-0.88096">
        <ele>156</ele>
        <time>2015-06-30T08:06:12.000Z</time>
      </trkpt>
      <trkpt lat="46.94881" lon="-0.88096">
        <ele>156</ele>
        <time>2015-06-30T08:06:14.000Z</time>
      </trkpt>
      <trkpt lat="46.94881" lon="-0.88096">
        <ele>156</ele>
        <time>2015-06-30T08:06:16.000Z</time>
      </trkpt>
      <trkpt lat="46.94881" lon="-0.88096">
        <ele>156</ele>
        <time>2015-06-30T08:06:18.000Z</time>
      </trkpt>
      <trkpt lat="46.94891" lon="-0.88105">
        <ele>157</ele>
        <time>2015-06-30T08:06:24.000Z</time>
      </trkpt>
      <trkpt lat="46.94898" lon="-0.8811">
        <ele>157</ele>
        <time>2015-06-30T08:06:26.000Z</time>
      </trkpt>
      <trkpt lat="46.94902" lon="-0.88113">
        <ele>157</ele>
        <time>2015-06-30T08:06:28.000Z</time>
      </trkpt>
      <trkpt lat="46.94902" lon="-0.88113">
        <ele>157</ele>
        <time>2015-06-30T08:06:32.000Z</time>
      </trkpt>
      <trkpt lat="46.94902" lon="-0.88113">
        <ele>157</ele>
        <time>2015-06-30T08:06:34.000Z</time>
      </trkpt>
      <trkpt lat="46.94902" lon="-0.88113">
        <ele>157</ele>
        <time>2015-06-30T08:06:36.000Z</time>
      </trkpt>
      <trkpt lat="46.94902" lon="-0.88113">
        <ele>157</ele>
        <time>2015-06-30T08:06:38.000Z</time>
      </trkpt>
      <trkpt lat="46.94902" lon="-0.88113">
        <ele>157</ele>
        <time>2015-06-30T08:06:40.000Z</time>
      </trkpt>
      <trkpt lat="46.94914" lon="-0.88121">
        <ele>158</ele>
        <time>2015-06-30T08:06:46.000Z</time>
      </trkpt>
      <trkpt lat="46.94921" lon="-0.88126">
        <ele>158</ele>
        <time>2015-06-30T08:06:48.000Z</time>
      </trkpt>
      <trkpt lat="46.94927" lon="-0.8813">
        <ele>158</ele>
        <time>2015-06-30T08:06:50.000Z</time>
      </trkpt>
      <trkpt lat="46.94932" lon="-0.88133">
        <ele>158</ele>
        <time>2015-06-30T08:06:54.000Z</time>
      </trkpt>
      <trkpt lat="46.94937" lon="-0.88135">
        <ele>158</ele>
        <time>2015-06-30T08:06:58.000Z</time>
      </trkpt>
      <trkpt lat="46.94942" lon="-0.88137">
        <ele>157</ele>
        <time>2015-06-30T08:07:02.000Z</time>
      </trkpt>
      <trkpt lat="46.94942" lon="-0.88137">
        <ele>157</ele>
        <time>2015-06-30T08:07:04.000Z</time>
      </trkpt>
      <trkpt lat="46.94947" lon="-0.88138">
        <ele>158</ele>
        <time>2015-06-30T08:07:06.000Z</time>
      </trkpt>
      <trkpt lat="46.94947" lon="-0.88138">
        <ele>158</ele>
        <time>2015-06-30T08:07:10.000Z</time>
      </trkpt>
      <trkpt lat="46.94947" lon="-0.88138">
        <ele>158</ele>
        <time>2015-06-30T08:07:12.000Z</time>
      </trkpt>
      <trkpt lat="46.94947" lon="-0.88138">
        <ele>158</ele>
        <time>2015-06-30T08:07:14.000Z</time>
      </trkpt>
      <trkpt lat="46.94947" lon="-0.88138">
        <ele>158</ele>
        <time>2015-06-30T08:07:16.000Z</time>
      </trkpt>
      <trkpt lat="46.94947" lon="-0.88138">
        <ele>158</ele>
        <time>2015-06-30T08:07:18.000Z</time>
      </trkpt>
      <trkpt lat="46.94947" lon="-0.88138">
        <ele>158</ele>
        <time>2015-06-30T08:07:20.000Z</time>
      </trkpt>
      <trkpt lat="46.94961" lon="-0.88135">
        <ele>158</ele>
        <time>2015-06-30T08:07:24.000Z</time>
      </trkpt>
      <trkpt lat="46.94969" lon="-0.88133">
        <ele>158</ele>
        <time>2015-06-30T08:07:26.000Z</time>
      </trkpt>
      <trkpt lat="46.94973" lon="-0.88132">
        <ele>158</ele>
        <time>2015-06-30T08:07:28.000Z</time>
      </trkpt>
      <trkpt lat="46.94973" lon="-0.88132">
        <ele>158</ele>
        <time>2015-06-30T08:07:30.000Z</time>
      </trkpt>
      <trkpt lat="46.94973" lon="-0.88132">
        <ele>158</ele>
        <time>2015-06-30T08:07:32.000Z</time>
      </trkpt>
      <trkpt lat="46.94973" lon="-0.88132">
        <ele>158</ele>
        <time>2015-06-30T08:07:34.000Z</time>
      </trkpt>
      <trkpt lat="46.94973" lon="-0.88132">
        <ele>158</ele>
        <time>2015-06-30T08:07:36.000Z</time>
      </trkpt>
      <trkpt lat="46.94973" lon="-0.88132">
        <ele>158</ele>
        <time>2015-06-30T08:07:38.000Z</time>
      </trkpt>
      <trkpt lat="46.94973" lon="-0.88132">
        <ele>158</ele>
        <time>2015-06-30T08:07:40.000Z</time>
      </trkpt>
      <trkpt lat="46.94973" lon="-0.88132">
        <ele>158</ele>
        <time>2015-06-30T08:07:42.000Z</time>
      </trkpt>
      <trkpt lat="46.94987" lon="-0.88134">
        <ele>157</ele>
        <time>2015-06-30T08:07:48.000Z</time>
      </trkpt>
      <trkpt lat="46.94996" lon="-0.88136">
        <ele>157</ele>
        <time>2015-06-30T08:07:50.000Z</time>
      </trkpt>
      <trkpt lat="46.95002" lon="-0.88138">
        <ele>157</ele>
        <time>2015-06-30T08:07:52.000Z</time>
      </trkpt>
      <trkpt lat="46.95007" lon="-0.88141">
        <ele>157</ele>
        <time>2015-06-30T08:07:56.000Z</time>
      </trkpt>
      <trkpt lat="46.95007" lon="-0.88141">
        <ele>157</ele>
        <time>2015-06-30T08:07:58.000Z</time>
      </trkpt>
      <trkpt lat="46.95007" lon="-0.88141">
        <ele>157</ele>
        <time>2015-06-30T08:08:00.000Z</time>
      </trkpt>
      <trkpt lat="46.95007" lon="-0.88141">
        <ele>157</ele>
        <time>2015-06-30T08:08:02.000Z</time>
      </trkpt>
      <trkpt lat="46.95007" lon="-0.88141">
        <ele>157</ele>
        <time>2015-06-30T08:08:04.000Z</time>
      </trkpt>
      <trkpt lat="46.95007" lon="-0.88141">
        <ele>157</ele>
        <time>2015-06-30T08:08:06.000Z</time>
      </trkpt>
      <trkpt lat="46.95007" lon="-0.88141">
        <ele>157</ele>
        <time>2015-06-30T08:08:08.000Z</time>
      </trkpt>
      <trkpt lat="46.95007" lon="-0.88141">
        <ele>157</ele>
        <time>2015-06-30T08:08:10.000Z</time>
      </trkpt>
      <trkpt lat="46.95007" lon="-0.88141">
        <ele>157</ele>
        <time>2015-06-30T08:08:12.000Z</time>
      </trkpt>
      <trkpt lat="46.9502" lon="-0.88155">
        <ele>158</ele>
        <time>2015-06-30T08:08:18.000Z</time>
      </trkpt>
      <trkpt lat="46.95027" lon="-0.88162">
        <ele>158</ele>
        <time>2015-06-30T08:08:20.000Z</time>
      </trkpt>
      <trkpt lat="46.95032" lon="-0.88166">
        <ele>158</ele>
        <time>2015-06-30T08:08:22.000Z</time>
      </trkpt>
      <trkpt lat="46.95036" lon="-0.88171">
        <ele>158</ele>
        <time>2015-06-30T08:08:26.000Z</time>
      </trkpt>
      <trkpt lat="46.9504" lon="-0.88176">
        <ele>159</ele>
        <time>2015-06-30T08:08:30.000Z</time>
      </trkpt>
      <trkpt lat="46.9504" lon="-0.88176">
        <ele>159</ele>
        <time>2015-06-30T08:08:32.000Z</time>
      </trkpt>
      <trkpt lat="46.95044" lon="-0.88182">
        <ele>159</ele>
        <time>2015-06-30T08:08:36.000Z</time>
      </trkpt>
      <trkpt lat="46.95049" lon="-0.88188">
        <ele>159</ele>
        <time>2015-06-30T08:08:40.000Z</time>
      </trkpt>
      <trkpt lat="46.95053" lon="-0.88193">
        <ele>159</ele>
        <time>2015-06-30T08:08:44.000Z</time>
      </trkpt>
      <trkpt lat="46.95053" lon="-0.88193">
        <ele>159</ele>
        <time>2015-06-30T08:08:46.000Z</time>
      </trkpt>
      <trkpt lat="46.95053" lon="-0.88193">
        <ele>159</ele>
        <time>2015-06-30T08:08:48.000Z</time>
      </trkpt>
      <trkpt lat="46.95053" lon="-0.88193">
        <ele>159</ele>
        <time>2015-06-30T08:08:50.000Z</time>
      </trkpt>
      <trkpt lat="46.95053" lon="-0.88193">
        <ele>159</ele>
        <time>2015-06-30T08:08:52.000Z</time>
      </trkpt>
      <trkpt lat="46.95053" lon="-0.88193">
        <ele>159</ele>
        <time>2015-06-30T08:08:54.000Z</time>
      </trkpt>
      <trkpt lat="46.95053" lon="-0.88193">
        <ele>159</ele>
        <time>2015-06-30T08:08:56.000Z</time>
      </trkpt>
      <trkpt lat="46.95053" lon="-0.88193">
        <ele>159</ele>
        <time>2015-06-30T08:08:58.000Z</time>
      </trkpt>
      <trkpt lat="46.95053" lon="-0.88193">
        <ele>159</ele>
        <time>2015-06-30T08:09:00.000Z</time>
      </trkpt>
      <trkpt lat="46.95053" lon="-0.88193">
        <ele>159</ele>
        <time>2015-06-30T08:09:02.000Z</time>
      </trkpt>
      <trkpt lat="46.95053" lon="-0.88193">
        <ele>159</ele>
        <time>2015-06-30T08:09:04.000Z</time>
      </trkpt>
      <trkpt lat="46.95053" lon="-0.88193">
        <ele>159</ele>
        <time>2015-06-30T08:09:06.000Z</time>
      </trkpt>
      <trkpt lat="46.95053" lon="-0.88193">
        <ele>159</ele>
        <time>2015-06-30T08:09:08.000Z</time>
      </trkpt>
      <trkpt lat="46.95053" lon="-0.88193">
        <ele>159</ele>
        <time>2015-06-30T08:09:10.000Z</time>
      </trkpt>
      <trkpt lat="46.95053" lon="-0.88193">
        <ele>159</ele>
        <time>2015-06-30T08:09:12.000Z</time>
      </trkpt>
      <trkpt lat="46.95053" lon="-0.88193">
        <ele>159</ele>
        <time>2015-06-30T08:09:14.000Z</time>
      </trkpt>
      <trkpt lat="46.95053" lon="-0.88193">
        <ele>159</ele>
        <time>2015-06-30T08:09:16.000Z</time>
      </trkpt>
      <trkpt lat="46.95053" lon="-0.88193">
        <ele>159</ele>
        <time>2015-06-30T08:09:18.000Z</time>
      </trkpt>
      <trkpt lat="46.95053" lon="-0.88193">
        <ele>159</ele>
        <time>2015-06-30T08:09:20.000Z</time>
      </trkpt>
      <trkpt lat="46.9507" lon="-0.88224">
        <ele>158</ele>
        <time>2015-06-30T08:09:24.000Z</time>
      </trkpt>
      <trkpt lat="46.95081" lon="-0.88241">
        <ele>157</ele>
        <time>2015-06-30T08:09:26.000Z</time>
      </trkpt>
      <trkpt lat="46.95086" lon="-0.88251">
        <ele>157</ele>
        <time>2015-06-30T08:09:28.000Z</time>
      </trkpt>
      <trkpt lat="46.95089" lon="-0.88258">
        <ele>157</ele>
        <time>2015-06-30T08:09:30.000Z</time>
      </trkpt>
      <trkpt lat="46.95092" lon="-0.88265">
        <ele>157</ele>
        <time>2015-06-30T08:09:34.000Z</time>
      </trkpt>
      <trkpt lat="46.95094" lon="-0.88272">
        <ele>157</ele>
        <time>2015-06-30T08:09:38.000Z</time>
      </trkpt>
      <trkpt lat="46.95097" lon="-0.8828">
        <ele>157</ele>
        <time>2015-06-30T08:09:42.000Z</time>
      </trkpt>
      <trkpt lat="46.95099" lon="-0.88286">
        <ele>157</ele>
        <time>2015-06-30T08:09:46.000Z</time>
      </trkpt>
      <trkpt lat="46.95099" lon="-0.88286">
        <ele>157</ele>
        <time>2015-06-30T08:09:50.000Z</time>
      </trkpt>
      <trkpt lat="46.95099" lon="-0.88286">
        <ele>157</ele>
        <time>2015-06-30T08:09:52.000Z</time>
      </trkpt>
      <trkpt lat="46.95099" lon="-0.88286">
        <ele>157</ele>
        <time>2015-06-30T08:09:54.000Z</time>
      </trkpt>
      <trkpt lat="46.95104" lon="-0.88296">
        <ele>158</ele>
        <time>2015-06-30T08:09:58.000Z</time>
      </trkpt>
      <trkpt lat="46.95108" lon="-0.88303">
        <ele>158</ele>
        <time>2015-06-30T08:10:00.000Z</time>
      </trkpt>
      <trkpt lat="46.95111" lon="-0.88308">
        <ele>158</ele>
        <time>2015-06-30T08:10:02.000Z</time>
      </trkpt>
      <trkpt lat="46.95114" lon="-0.88312">
        <ele>159</ele>
        <time>2015-06-30T08:10:04.000Z</time>
      </trkpt>
      <trkpt lat="46.95114" lon="-0.88312">
        <ele>159</ele>
        <time>2015-06-30T08:10:06.000Z</time>
      </trkpt>
      <trkpt lat="46.95114" lon="-0.88312">
        <ele>159</ele>
        <time>2015-06-30T08:10:08.000Z</time>
      </trkpt>
      <trkpt lat="46.95114" lon="-0.88312">
        <ele>159</ele>
        <time>2015-06-30T08:10:10.000Z</time>
      </trkpt>
      <trkpt lat="46.95114" lon="-0.88312">
        <ele>159</ele>
        <time>2015-06-30T08:10:12.000Z</time>
      </trkpt>
      <trkpt lat="46.95114" lon="-0.88312">
        <ele>159</ele>
        <time>2015-06-30T08:10:14.000Z</time>
      </trkpt>
      <trkpt lat="46.95114" lon="-0.88312">
        <ele>159</ele>
        <time>2015-06-30T08:10:16.000Z</time>
      </trkpt>
      <trkpt lat="46.95114" lon="-0.88312">
        <ele>159</ele>
        <time>2015-06-30T08:10:18.000Z</time>
      </trkpt>
      <trkpt lat="46.95114" lon="-0.88312">
        <ele>159</ele>
        <time>2015-06-30T08:10:20.000Z</time>
      </trkpt>
      <trkpt lat="46.95126" lon="-0.88324">
        <ele>157</ele>
        <time>2015-06-30T08:10:22.000Z</time>
      </trkpt>
      <trkpt lat="46.95126" lon="-0.88324">
        <ele>157</ele>
        <time>2015-06-30T08:10:24.000Z</time>
      </trkpt>
      <trkpt lat="46.95126" lon="-0.88324">
        <ele>157</ele>
        <time>2015-06-30T08:10:26.000Z</time>
      </trkpt>
      <trkpt lat="46.95126" lon="-0.88324">
        <ele>157</ele>
        <time>2015-06-30T08:10:28.000Z</time>
      </trkpt>
      <trkpt lat="46.95136" lon="-0.88335">
        <ele>157</ele>
        <time>2015-06-30T08:10:42.000Z</time>
      </trkpt>
      <trkpt lat="46.95143" lon="-0.88342">
        <ele>157</ele>
        <time>2015-06-30T08:10:44.000Z</time>
      </trkpt>
      <trkpt lat="46.95147" lon="-0.88346">
        <ele>157</ele>
        <time>2015-06-30T08:10:46.000Z</time>
      </trkpt>
      <trkpt lat="46.95147" lon="-0.88346">
        <ele>157</ele>
        <time>2015-06-30T08:10:48.000Z</time>
      </trkpt>
      <trkpt lat="46.95147" lon="-0.88346">
        <ele>157</ele>
        <time>2015-06-30T08:10:50.000Z</time>
      </trkpt>
      <trkpt lat="46.95147" lon="-0.88346">
        <ele>157</ele>
        <time>2015-06-30T08:10:52.000Z</time>
      </trkpt>
      <trkpt lat="46.95147" lon="-0.88346">
        <ele>157</ele>
        <time>2015-06-30T08:10:54.000Z</time>
      </trkpt>
      <trkpt lat="46.95154" lon="-0.88351">
        <ele>157</ele>
        <time>2015-06-30T08:10:58.000Z</time>
      </trkpt>
      <trkpt lat="46.95161" lon="-0.88354">
        <ele>157</ele>
        <time>2015-06-30T08:11:04.000Z</time>
      </trkpt>
      <trkpt lat="46.95166" lon="-0.88356">
        <ele>157</ele>
        <time>2015-06-30T08:11:06.000Z</time>
      </trkpt>
      <trkpt lat="46.95171" lon="-0.88358">
        <ele>156</ele>
        <time>2015-06-30T08:11:10.000Z</time>
      </trkpt>
      <trkpt lat="46.95176" lon="-0.88359">
        <ele>156</ele>
        <time>2015-06-30T08:11:14.000Z</time>
      </trkpt>
      <trkpt lat="46.95176" lon="-0.88359">
        <ele>156</ele>
        <time>2015-06-30T08:11:16.000Z</time>
      </trkpt>
      <trkpt lat="46.95182" lon="-0.88361">
        <ele>156</ele>
        <time>2015-06-30T08:11:18.000Z</time>
      </trkpt>
      <trkpt lat="46.95182" lon="-0.88361">
        <ele>156</ele>
        <time>2015-06-30T08:11:20.000Z</time>
      </trkpt>
      <trkpt lat="46.95182" lon="-0.88361">
        <ele>156</ele>
        <time>2015-06-30T08:11:22.000Z</time>
      </trkpt>
      <trkpt lat="46.95182" lon="-0.88361">
        <ele>156</ele>
        <time>2015-06-30T08:11:24.000Z</time>
      </trkpt>
      <trkpt lat="46.95182" lon="-0.88361">
        <ele>156</ele>
        <time>2015-06-30T08:11:26.000Z</time>
      </trkpt>
      <trkpt lat="46.95182" lon="-0.88361">
        <ele>156</ele>
        <time>2015-06-30T08:11:28.000Z</time>
      </trkpt>
      <trkpt lat="46.95191" lon="-0.8837">
        <ele>156</ele>
        <time>2015-06-30T08:11:34.000Z</time>
      </trkpt>
      <trkpt lat="46.95197" lon="-0.88375">
        <ele>156</ele>
        <time>2015-06-30T08:11:36.000Z</time>
      </trkpt>
      <trkpt lat="46.95201" lon="-0.88377">
        <ele>156</ele>
        <time>2015-06-30T08:11:38.000Z</time>
      </trkpt>
      <trkpt lat="46.95201" lon="-0.88377">
        <ele>156</ele>
        <time>2015-06-30T08:11:44.000Z</time>
      </trkpt>
      <trkpt lat="46.95201" lon="-0.88377">
        <ele>156</ele>
        <time>2015-06-30T08:11:46.000Z</time>
      </trkpt>
      <trkpt lat="46.95217" lon="-0.8838">
        <ele>158</ele>
        <time>2015-06-30T08:12:02.000Z</time>
      </trkpt>
      <trkpt lat="46.95226" lon="-0.88382">
        <ele>158</ele>
        <time>2015-06-30T08:12:04.000Z</time>
      </trkpt>
      <trkpt lat="46.95232" lon="-0.88383">
        <ele>158</ele>
        <time>2015-06-30T08:12:06.000Z</time>
      </trkpt>
      <trkpt lat="46.95237" lon="-0.88384">
        <ele>158</ele>
        <time>2015-06-30T08:12:10.000Z</time>
      </trkpt>
      <trkpt lat="46.95237" lon="-0.88384">
        <ele>158</ele>
        <time>2015-06-30T08:12:12.000Z</time>
      </trkpt>
      <trkpt lat="46.95242" lon="-0.88386">
        <ele>158</ele>
        <time>2015-06-30T08:12:14.000Z</time>
      </trkpt>
      <trkpt lat="46.95247" lon="-0.88387">
        <ele>158</ele>
        <time>2015-06-30T08:12:18.000Z</time>
      </trkpt>
      <trkpt lat="46.95251" lon="-0.88388">
        <ele>158</ele>
        <time>2015-06-30T08:12:22.000Z</time>
      </trkpt>
      <trkpt lat="46.95257" lon="-0.8839">
        <ele>159</ele>
        <time>2015-06-30T08:12:26.000Z</time>
      </trkpt>
      <trkpt lat="46.95262" lon="-0.88392">
        <ele>159</ele>
        <time>2015-06-30T08:12:30.000Z</time>
      </trkpt>
      <trkpt lat="46.95266" lon="-0.88391">
        <ele>159</ele>
        <time>2015-06-30T08:12:34.000Z</time>
      </trkpt>
      <trkpt lat="46.95271" lon="-0.8839">
        <ele>160</ele>
        <time>2015-06-30T08:12:38.000Z</time>
      </trkpt>
      <trkpt lat="46.95271" lon="-0.8839">
        <ele>160</ele>
        <time>2015-06-30T08:12:40.000Z</time>
      </trkpt>
      <trkpt lat="46.95271" lon="-0.8839">
        <ele>160</ele>
        <time>2015-06-30T08:12:42.000Z</time>
      </trkpt>
      <trkpt lat="46.95271" lon="-0.8839">
        <ele>160</ele>
        <time>2015-06-30T08:12:44.000Z</time>
      </trkpt>
      <trkpt lat="46.95271" lon="-0.8839">
        <ele>160</ele>
        <time>2015-06-30T08:12:46.000Z</time>
      </trkpt>
      <trkpt lat="46.95271" lon="-0.8839">
        <ele>160</ele>
        <time>2015-06-30T08:12:48.000Z</time>
      </trkpt>
      <trkpt lat="46.95271" lon="-0.8839">
        <ele>160</ele>
        <time>2015-06-30T08:12:50.000Z</time>
      </trkpt>
      <trkpt lat="46.95271" lon="-0.8839">
        <ele>160</ele>
        <time>2015-06-30T08:12:52.000Z</time>
      </trkpt>
      <trkpt lat="46.95285" lon="-0.88385">
        <ele>161</ele>
        <time>2015-06-30T08:12:58.000Z</time>
      </trkpt>
      <trkpt lat="46.95294" lon="-0.88383">
        <ele>161</ele>
        <time>2015-06-30T08:13:00.000Z</time>
      </trkpt>
      <trkpt lat="46.953" lon="-0.88383">
        <ele>161</ele>
        <time>2015-06-30T08:13:02.000Z</time>
      </trkpt>
      <trkpt lat="46.95305" lon="-0.88383">
        <ele>161</ele>
        <time>2015-06-30T08:13:06.000Z</time>
      </trkpt>
      <trkpt lat="46.9531" lon="-0.88383">
        <ele>161</ele>
        <time>2015-06-30T08:13:10.000Z</time>
      </trkpt>
      <trkpt lat="46.9531" lon="-0.88383">
        <ele>161</ele>
        <time>2015-06-30T08:13:12.000Z</time>
      </trkpt>
      <trkpt lat="46.9531" lon="-0.88383">
        <ele>161</ele>
        <time>2015-06-30T08:13:14.000Z</time>
      </trkpt>
      <trkpt lat="46.9531" lon="-0.88383">
        <ele>161</ele>
        <time>2015-06-30T08:13:16.000Z</time>
      </trkpt>
      <trkpt lat="46.9531" lon="-0.88383">
        <ele>161</ele>
        <time>2015-06-30T08:13:18.000Z</time>
      </trkpt>
      <trkpt lat="46.9531" lon="-0.88383">
        <ele>161</ele>
        <time>2015-06-30T08:13:20.000Z</time>
      </trkpt>
      <trkpt lat="46.9531" lon="-0.88383">
        <ele>161</ele>
        <time>2015-06-30T08:13:22.000Z</time>
      </trkpt>
      <trkpt lat="46.9531" lon="-0.88383">
        <ele>161</ele>
        <time>2015-06-30T08:13:24.000Z</time>
      </trkpt>
      <trkpt lat="46.9531" lon="-0.88383">
        <ele>161</ele>
        <time>2015-06-30T08:13:26.000Z</time>
      </trkpt>
      <trkpt lat="46.9531" lon="-0.88383">
        <ele>161</ele>
        <time>2015-06-30T08:13:28.000Z</time>
      </trkpt>
      <trkpt lat="46.9531" lon="-0.88383">
        <ele>161</ele>
        <time>2015-06-30T08:13:30.000Z</time>
      </trkpt>
      <trkpt lat="46.95335" lon="-0.88381">
        <ele>162</ele>
        <time>2015-06-30T08:14:46.000Z</time>
      </trkpt>
      <trkpt lat="46.95348" lon="-0.88379">
        <ele>161</ele>
        <time>2015-06-30T08:14:48.000Z</time>
      </trkpt>
      <trkpt lat="46.95355" lon="-0.88379">
        <ele>161</ele>
        <time>2015-06-30T08:14:50.000Z</time>
      </trkpt>
      <trkpt lat="46.95359" lon="-0.88379">
        <ele>161</ele>
        <time>2015-06-30T08:14:52.000Z</time>
      </trkpt>
      <trkpt lat="46.95364" lon="-0.88379">
        <ele>160</ele>
        <time>2015-06-30T08:14:56.000Z</time>
      </trkpt>
      <trkpt lat="46.95369" lon="-0.8838">
        <ele>159</ele>
        <time>2015-06-30T08:15:02.000Z</time>
      </trkpt>
      <trkpt lat="46.95374" lon="-0.8838">
        <ele>159</ele>
        <time>2015-06-30T08:15:06.000Z</time>
      </trkpt>
      <trkpt lat="46.95374" lon="-0.8838">
        <ele>159</ele>
        <time>2015-06-30T08:15:08.000Z</time>
      </trkpt>
      <trkpt lat="46.95374" lon="-0.8838">
        <ele>159</ele>
        <time>2015-06-30T08:15:10.000Z</time>
      </trkpt>
      <trkpt lat="46.95374" lon="-0.8838">
        <ele>159</ele>
        <time>2015-06-30T08:15:12.000Z</time>
      </trkpt>
      <trkpt lat="46.95374" lon="-0.8838">
        <ele>159</ele>
        <time>2015-06-30T08:15:14.000Z</time>
      </trkpt>
      <trkpt lat="46.95374" lon="-0.8838">
        <ele>159</ele>
        <time>2015-06-30T08:15:16.000Z</time>
      </trkpt>
      <trkpt lat="46.95388" lon="-0.88383">
        <ele>158</ele>
        <time>2015-06-30T08:15:34.000Z</time>
      </trkpt>
      <trkpt lat="46.95396" lon="-0.88384">
        <ele>158</ele>
        <time>2015-06-30T08:15:36.000Z</time>
      </trkpt>
      <trkpt lat="46.95401" lon="-0.88385">
        <ele>158</ele>
        <time>2015-06-30T08:15:38.000Z</time>
      </trkpt>
      <trkpt lat="46.95401" lon="-0.88385">
        <ele>158</ele>
        <time>2015-06-30T08:15:40.000Z</time>
      </trkpt>
      <trkpt lat="46.95406" lon="-0.88386">
        <ele>157</ele>
        <time>2015-06-30T08:15:42.000Z</time>
      </trkpt>
      <trkpt lat="46.95412" lon="-0.88386">
        <ele>156</ele>
        <time>2015-06-30T08:15:48.000Z</time>
      </trkpt>
      <trkpt lat="46.95417" lon="-0.88385">
        <ele>156</ele>
        <time>2015-06-30T08:15:52.000Z</time>
      </trkpt>
      <trkpt lat="46.95421" lon="-0.88384">
        <ele>156</ele>
        <time>2015-06-30T08:15:56.000Z</time>
      </trkpt>
      <trkpt lat="46.95426" lon="-0.88382">
        <ele>156</ele>
        <time>2015-06-30T08:16:00.000Z</time>
      </trkpt>
      <trkpt lat="46.95426" lon="-0.88382">
        <ele>156</ele>
        <time>2015-06-30T08:16:04.000Z</time>
      </trkpt>
      <trkpt lat="46.95426" lon="-0.88382">
        <ele>156</ele>
        <time>2015-06-30T08:16:06.000Z</time>
      </trkpt>
      <trkpt lat="46.95426" lon="-0.88382">
        <ele>156</ele>
        <time>2015-06-30T08:16:08.000Z</time>
      </trkpt>
      <trkpt lat="46.95426" lon="-0.88382">
        <ele>156</ele>
        <time>2015-06-30T08:16:10.000Z</time>
      </trkpt>
      <trkpt lat="46.95426" lon="-0.88382">
        <ele>156</ele>
        <time>2015-06-30T08:16:12.000Z</time>
      </trkpt>
      <trkpt lat="46.95426" lon="-0.88382">
        <ele>156</ele>
        <time>2015-06-30T08:16:14.000Z</time>
      </trkpt>
      <trkpt lat="46.95426" lon="-0.88382">
        <ele>156</ele>
        <time>2015-06-30T08:16:16.000Z</time>
      </trkpt>
      <trkpt lat="46.95426" lon="-0.88382">
        <ele>156</ele>
        <time>2015-06-30T08:16:18.000Z</time>
      </trkpt>
      <trkpt lat="46.95426" lon="-0.88382">
        <ele>156</ele>
        <time>2015-06-30T08:16:20.000Z</time>
      </trkpt>
      <trkpt lat="46.95426" lon="-0.88382">
        <ele>156</ele>
        <time>2015-06-30T08:16:22.000Z</time>
      </trkpt>
      <trkpt lat="46.95426" lon="-0.88382">
        <ele>156</ele>
        <time>2015-06-30T08:16:24.000Z</time>
      </trkpt>
      <trkpt lat="46.95426" lon="-0.88382">
        <ele>156</ele>
        <time>2015-06-30T08:16:26.000Z</time>
      </trkpt>
      <trkpt lat="46.95426" lon="-0.88382">
        <ele>156</ele>
        <time>2015-06-30T08:16:28.000Z</time>
      </trkpt>
      <trkpt lat="46.95426" lon="-0.88382">
        <ele>156</ele>
        <time>2015-06-30T08:16:32.000Z</time>
      </trkpt>
      <trkpt lat="46.95445" lon="-0.88371">
        <ele>157</ele>
        <time>2015-06-30T08:17:02.000Z</time>
      </trkpt>
      <trkpt lat="46.95457" lon="-0.88364">
        <ele>157</ele>
        <time>2015-06-30T08:17:04.000Z</time>
      </trkpt>
      <trkpt lat="46.95464" lon="-0.88359">
        <ele>157</ele>
        <time>2015-06-30T08:17:06.000Z</time>
      </trkpt>
      <trkpt lat="46.95469" lon="-0.88356">
        <ele>157</ele>
        <time>2015-06-30T08:17:08.000Z</time>
      </trkpt>
      <trkpt lat="46.95473" lon="-0.88352">
        <ele>158</ele>
        <time>2015-06-30T08:17:14.000Z</time>
      </trkpt>
      <trkpt lat="46.95473" lon="-0.88352">
        <ele>158</ele>
        <time>2015-06-30T08:17:16.000Z</time>
      </trkpt>
      <trkpt lat="46.95473" lon="-0.88352">
        <ele>158</ele>
        <time>2015-06-30T08:17:18.000Z</time>
      </trkpt>
      <trkpt lat="46.95473" lon="-0.88352">
        <ele>158</ele>
        <time>2015-06-30T08:17:20.000Z</time>
      </trkpt>
      <trkpt lat="46.95473" lon="-0.88352">
        <ele>158</ele>
        <time>2015-06-30T08:17:26.000Z</time>
      </trkpt>
      <trkpt lat="46.95473" lon="-0.88352">
        <ele>158</ele>
        <time>2015-06-30T08:17:28.000Z</time>
      </trkpt>
      <trkpt lat="46.95473" lon="-0.88352">
        <ele>158</ele>
        <time>2015-06-30T08:17:30.000Z</time>
      </trkpt>
      <trkpt lat="46.95473" lon="-0.88352">
        <ele>158</ele>
        <time>2015-06-30T08:17:32.000Z</time>
      </trkpt>
      <trkpt lat="46.95473" lon="-0.88352">
        <ele>158</ele>
        <time>2015-06-30T08:17:36.000Z</time>
      </trkpt>
      <trkpt lat="46.95473" lon="-0.88352">
        <ele>158</ele>
        <time>2015-06-30T08:17:38.000Z</time>
      </trkpt>
      <trkpt lat="46.95473" lon="-0.88352">
        <ele>158</ele>
        <time>2015-06-30T08:17:40.000Z</time>
      </trkpt>
      <trkpt lat="46.9549" lon="-0.88337">
        <ele>158</ele>
        <time>2015-06-30T08:17:44.000Z</time>
      </trkpt>
      <trkpt lat="46.95499" lon="-0.8833">
        <ele>158</ele>
        <time>2015-06-30T08:17:46.000Z</time>
      </trkpt>
      <trkpt lat="46.95504" lon="-0.88326">
        <ele>158</ele>
        <time>2015-06-30T08:17:48.000Z</time>
      </trkpt>
      <trkpt lat="46.95504" lon="-0.88326">
        <ele>158</ele>
        <time>2015-06-30T08:17:50.000Z</time>
      </trkpt>
      <trkpt lat="46.95509" lon="-0.88323">
        <ele>159</ele>
        <time>2015-06-30T08:17:52.000Z</time>
      </trkpt>
      <trkpt lat="46.95509" lon="-0.88323">
        <ele>159</ele>
        <time>2015-06-30T08:17:54.000Z</time>
      </trkpt>
      <trkpt lat="46.95514" lon="-0.88322">
        <ele>159</ele>
        <time>2015-06-30T08:17:56.000Z</time>
      </trkpt>
      <trkpt lat="46.9552" lon="-0.88322">
        <ele>159</ele>
        <time>2015-06-30T08:18:00.000Z</time>
      </trkpt>
      <trkpt lat="46.9552" lon="-0.88322">
        <ele>159</ele>
        <time>2015-06-30T08:18:02.000Z</time>
      </trkpt>
      <trkpt lat="46.9552" lon="-0.88322">
        <ele>159</ele>
        <time>2015-06-30T08:18:04.000Z</time>
      </trkpt>
      <trkpt lat="46.9552" lon="-0.88322">
        <ele>159</ele>
        <time>2015-06-30T08:18:06.000Z</time>
      </trkpt>
      <trkpt lat="46.95527" lon="-0.88322">
        <ele>160</ele>
        <time>2015-06-30T08:18:08.000Z</time>
      </trkpt>
      <trkpt lat="46.95532" lon="-0.88323">
        <ele>160</ele>
        <time>2015-06-30T08:18:10.000Z</time>
      </trkpt>
      <trkpt lat="46.95537" lon="-0.88325">
        <ele>160</ele>
        <time>2015-06-30T08:18:14.000Z</time>
      </trkpt>
      <trkpt lat="46.95537" lon="-0.88325">
        <ele>160</ele>
        <time>2015-06-30T08:18:20.000Z</time>
      </trkpt>
      <trkpt lat="46.95537" lon="-0.88325">
        <ele>160</ele>
        <time>2015-06-30T08:18:22.000Z</time>
      </trkpt>
      <trkpt lat="46.95537" lon="-0.88325">
        <ele>160</ele>
        <time>2015-06-30T08:18:24.000Z</time>
      </trkpt>
      <trkpt lat="46.95537" lon="-0.88325">
        <ele>160</ele>
        <time>2015-06-30T08:18:26.000Z</time>
      </trkpt>
      <trkpt lat="46.95537" lon="-0.88325">
        <ele>160</ele>
        <time>2015-06-30T08:18:28.000Z</time>
      </trkpt>
      <trkpt lat="46.95537" lon="-0.88325">
        <ele>160</ele>
        <time>2015-06-30T08:18:30.000Z</time>
      </trkpt>
      <trkpt lat="46.95537" lon="-0.88325">
        <ele>160</ele>
        <time>2015-06-30T08:18:32.000Z</time>
      </trkpt>
      <trkpt lat="46.95537" lon="-0.88325">
        <ele>160</ele>
        <time>2015-06-30T08:18:34.000Z</time>
      </trkpt>
      <trkpt lat="46.95537" lon="-0.88325">
        <ele>160</ele>
        <time>2015-06-30T08:18:36.000Z</time>
      </trkpt>
      <trkpt lat="46.95537" lon="-0.88325">
        <ele>160</ele>
        <time>2015-06-30T08:18:38.000Z</time>
      </trkpt>
      <trkpt lat="46.95556" lon="-0.88327">
        <ele>160</ele>
        <time>2015-06-30T08:18:44.000Z</time>
      </trkpt>
      <trkpt lat="46.95567" lon="-0.88329">
        <ele>160</ele>
        <time>2015-06-30T08:18:46.000Z</time>
      </trkpt>
      <trkpt lat="46.95575" lon="-0.88332">
        <ele>160</ele>
        <time>2015-06-30T08:18:48.000Z</time>
      </trkpt>
      <trkpt lat="46.95579" lon="-0.88335">
        <ele>160</ele>
        <time>2015-06-30T08:18:50.000Z</time>
      </trkpt>
      <trkpt lat="46.95579" lon="-0.88335">
        <ele>160</ele>
        <time>2015-06-30T08:18:52.000Z</time>
      </trkpt>
      <trkpt lat="46.95579" lon="-0.88335">
        <ele>160</ele>
        <time>2015-06-30T08:18:54.000Z</time>
      </trkpt>
      <trkpt lat="46.95584" lon="-0.88339">
        <ele>159</ele>
        <time>2015-06-30T08:18:56.000Z</time>
      </trkpt>
      <trkpt lat="46.95588" lon="-0.88344">
        <ele>159</ele>
        <time>2015-06-30T08:19:00.000Z</time>
      </trkpt>
      <trkpt lat="46.95592" lon="-0.88349">
        <ele>158</ele>
        <time>2015-06-30T08:19:04.000Z</time>
      </trkpt>
      <trkpt lat="46.95596" lon="-0.88354">
        <ele>158</ele>
        <time>2015-06-30T08:19:08.000Z</time>
      </trkpt>
      <trkpt lat="46.95596" lon="-0.88354">
        <ele>158</ele>
        <time>2015-06-30T08:19:10.000Z</time>
      </trkpt>
      <trkpt lat="46.95599" lon="-0.8836">
        <ele>158</ele>
        <time>2015-06-30T08:19:12.000Z</time>
      </trkpt>
      <trkpt lat="46.95599" lon="-0.8836">
        <ele>158</ele>
        <time>2015-06-30T08:19:14.000Z</time>
      </trkpt>
      <trkpt lat="46.95599" lon="-0.8836">
        <ele>158</ele>
        <time>2015-06-30T08:19:16.000Z</time>
      </trkpt>
      <trkpt lat="46.95599" lon="-0.8836">
        <ele>158</ele>
        <time>2015-06-30T08:19:18.000Z</time>
      </trkpt>
      <trkpt lat="46.95599" lon="-0.8836">
        <ele>158</ele>
        <time>2015-06-30T08:19:20.000Z</time>
      </trkpt>
      <trkpt lat="46.95606" lon="-0.88367">
        <ele>158</ele>
        <time>2015-06-30T08:19:26.000Z</time>
      </trkpt>
      <trkpt lat="46.95611" lon="-0.88371">
        <ele>158</ele>
        <time>2015-06-30T08:19:28.000Z</time>
      </trkpt>
      <trkpt lat="46.95615" lon="-0.88375">
        <ele>158</ele>
        <time>2015-06-30T08:19:32.000Z</time>
      </trkpt>
      <trkpt lat="46.95615" lon="-0.88375">
        <ele>158</ele>
        <time>2015-06-30T08:19:34.000Z</time>
      </trkpt>
      <trkpt lat="46.95615" lon="-0.88375">
        <ele>158</ele>
        <time>2015-06-30T08:19:36.000Z</time>
      </trkpt>
      <trkpt lat="46.95615" lon="-0.88375">
        <ele>158</ele>
        <time>2015-06-30T08:19:38.000Z</time>
      </trkpt>
      <trkpt lat="46.95623" lon="-0.88379">
        <ele>158</ele>
        <time>2015-06-30T08:19:42.000Z</time>
      </trkpt>
      <trkpt lat="46.95629" lon="-0.88381">
        <ele>158</ele>
        <time>2015-06-30T08:19:44.000Z</time>
      </trkpt>
      <trkpt lat="46.95634" lon="-0.88383">
        <ele>158</ele>
        <time>2015-06-30T08:19:48.000Z</time>
      </trkpt>
      <trkpt lat="46.95634" lon="-0.88383">
        <ele>158</ele>
        <time>2015-06-30T08:19:50.000Z</time>
      </trkpt>
      <trkpt lat="46.95634" lon="-0.88383">
        <ele>158</ele>
        <time>2015-06-30T08:19:52.000Z</time>
      </trkpt>
      <trkpt lat="46.95634" lon="-0.88383">
        <ele>158</ele>
        <time>2015-06-30T08:19:54.000Z</time>
      </trkpt>
      <trkpt lat="46.95634" lon="-0.88383">
        <ele>158</ele>
        <time>2015-06-30T08:19:56.000Z</time>
      </trkpt>
      <trkpt lat="46.95634" lon="-0.88383">
        <ele>158</ele>
        <time>2015-06-30T08:19:58.000Z</time>
      </trkpt>
      <trkpt lat="46.95634" lon="-0.88383">
        <ele>158</ele>
        <time>2015-06-30T08:20:00.000Z</time>
      </trkpt>
      <trkpt lat="46.95634" lon="-0.88383">
        <ele>158</ele>
        <time>2015-06-30T08:20:02.000Z</time>
      </trkpt>
      <trkpt lat="46.95647" lon="-0.88391">
        <ele>157</ele>
        <time>2015-06-30T08:20:06.000Z</time>
      </trkpt>
      <trkpt lat="46.95654" lon="-0.88397">
        <ele>157</ele>
        <time>2015-06-30T08:20:08.000Z</time>
      </trkpt>
      <trkpt lat="46.95659" lon="-0.884">
        <ele>157</ele>
        <time>2015-06-30T08:20:10.000Z</time>
      </trkpt>
      <trkpt lat="46.95664" lon="-0.88403">
        <ele>157</ele>
        <time>2015-06-30T08:20:14.000Z</time>
      </trkpt>
      <trkpt lat="46.95669" lon="-0.88406">
        <ele>157</ele>
        <time>2015-06-30T08:20:18.000Z</time>
      </trkpt>
      <trkpt lat="46.95673" lon="-0.8841">
        <ele>157</ele>
        <time>2015-06-30T08:20:22.000Z</time>
      </trkpt>
      <trkpt lat="46.95677" lon="-0.88414">
        <ele>157</ele>
        <time>2015-06-30T08:20:26.000Z</time>
      </trkpt>
      <trkpt lat="46.95681" lon="-0.88418">
        <ele>156</ele>
        <time>2015-06-30T08:20:30.000Z</time>
      </trkpt>
      <trkpt lat="46.95681" lon="-0.88418">
        <ele>156</ele>
        <time>2015-06-30T08:20:32.000Z</time>
      </trkpt>
      <trkpt lat="46.95681" lon="-0.88418">
        <ele>156</ele>
        <time>2015-06-30T08:20:34.000Z</time>
      </trkpt>
      <trkpt lat="46.95681" lon="-0.88418">
        <ele>156</ele>
        <time>2015-06-30T08:20:36.000Z</time>
      </trkpt>
      <trkpt lat="46.95681" lon="-0.88418">
        <ele>156</ele>
        <time>2015-06-30T08:20:38.000Z</time>
      </trkpt>
      <trkpt lat="46.95681" lon="-0.88418">
        <ele>156</ele>
        <time>2015-06-30T08:20:40.000Z</time>
      </trkpt>
      <trkpt lat="46.95681" lon="-0.88418">
        <ele>156</ele>
        <time>2015-06-30T08:20:42.000Z</time>
      </trkpt>
      <trkpt lat="46.9569" lon="-0.88429">
        <ele>156</ele>
        <time>2015-06-30T08:20:44.000Z</time>
      </trkpt>
      <trkpt lat="46.95695" lon="-0.88436">
        <ele>156</ele>
        <time>2015-06-30T08:20:46.000Z</time>
      </trkpt>
      <trkpt lat="46.95699" lon="-0.88441">
        <ele>156</ele>
        <time>2015-06-30T08:20:48.000Z</time>
      </trkpt>
      <trkpt lat="46.95704" lon="-0.88445">
        <ele>157</ele>
        <time>2015-06-30T08:20:52.000Z</time>
      </trkpt>
      <trkpt lat="46.95707" lon="-0.8845">
        <ele>157</ele>
        <time>2015-06-30T08:20:54.000Z</time>
      </trkpt>
      <trkpt lat="46.95707" lon="-0.8845">
        <ele>157</ele>
        <time>2015-06-30T08:20:56.000Z</time>
      </trkpt>
      <trkpt lat="46.95707" lon="-0.8845">
        <ele>157</ele>
        <time>2015-06-30T08:20:58.000Z</time>
      </trkpt>
      <trkpt lat="46.95707" lon="-0.8845">
        <ele>157</ele>
        <time>2015-06-30T08:21:00.000Z</time>
      </trkpt>
      <trkpt lat="46.95707" lon="-0.8845">
        <ele>157</ele>
        <time>2015-06-30T08:21:02.000Z</time>
      </trkpt>
      <trkpt lat="46.95707" lon="-0.8845">
        <ele>157</ele>
        <time>2015-06-30T08:21:04.000Z</time>
      </trkpt>
      <trkpt lat="46.95707" lon="-0.8845">
        <ele>157</ele>
        <time>2015-06-30T08:21:06.000Z</time>
      </trkpt>
      <trkpt lat="46.95707" lon="-0.8845">
        <ele>157</ele>
        <time>2015-06-30T08:21:08.000Z</time>
      </trkpt>
      <trkpt lat="46.95707" lon="-0.8845">
        <ele>157</ele>
        <time>2015-06-30T08:21:10.000Z</time>
      </trkpt>
      <trkpt lat="46.95707" lon="-0.8845">
        <ele>157</ele>
        <time>2015-06-30T08:21:12.000Z</time>
      </trkpt>
      <trkpt lat="46.95719" lon="-0.8846">
        <ele>158</ele>
        <time>2015-06-30T08:21:16.000Z</time>
      </trkpt>
      <trkpt lat="46.95726" lon="-0.88467">
        <ele>158</ele>
        <time>2015-06-30T08:21:18.000Z</time>
      </trkpt>
      <trkpt lat="46.9573" lon="-0.88471">
        <ele>158</ele>
        <time>2015-06-30T08:21:20.000Z</time>
      </trkpt>
      <trkpt lat="46.95734" lon="-0.88476">
        <ele>158</ele>
        <time>2015-06-30T08:21:24.000Z</time>
      </trkpt>
      <trkpt lat="46.95734" lon="-0.88476">
        <ele>158</ele>
        <time>2015-06-30T08:21:26.000Z</time>
      </trkpt>
      <trkpt lat="46.95734" lon="-0.88476">
        <ele>158</ele>
        <time>2015-06-30T08:21:28.000Z</time>
      </trkpt>
      <trkpt lat="46.95734" lon="-0.88476">
        <ele>158</ele>
        <time>2015-06-30T08:21:30.000Z</time>
      </trkpt>
      <trkpt lat="46.95734" lon="-0.88476">
        <ele>158</ele>
        <time>2015-06-30T08:21:32.000Z</time>
      </trkpt>
      <trkpt lat="46.95743" lon="-0.88485">
        <ele>157</ele>
        <time>2015-06-30T08:21:36.000Z</time>
      </trkpt>
      <trkpt lat="46.95749" lon="-0.8849">
        <ele>157</ele>
        <time>2015-06-30T08:21:38.000Z</time>
      </trkpt>
      <trkpt lat="46.95753" lon="-0.88493">
        <ele>157</ele>
        <time>2015-06-30T08:21:40.000Z</time>
      </trkpt>
      <trkpt lat="46.95757" lon="-0.88497">
        <ele>157</ele>
        <time>2015-06-30T08:21:44.000Z</time>
      </trkpt>
      <trkpt lat="46.9576" lon="-0.88503">
        <ele>157</ele>
        <time>2015-06-30T08:21:48.000Z</time>
      </trkpt>
      <trkpt lat="46.9576" lon="-0.88503">
        <ele>157</ele>
        <time>2015-06-30T08:21:50.000Z</time>
      </trkpt>
      <trkpt lat="46.9576" lon="-0.88503">
        <ele>157</ele>
        <time>2015-06-30T08:21:52.000Z</time>
      </trkpt>
      <trkpt lat="46.9576" lon="-0.88503">
        <ele>157</ele>
        <time>2015-06-30T08:21:54.000Z</time>
      </trkpt>
      <trkpt lat="46.9576" lon="-0.88503">
        <ele>157</ele>
        <time>2015-06-30T08:21:56.000Z</time>
      </trkpt>
      <trkpt lat="46.9576" lon="-0.88503">
        <ele>157</ele>
        <time>2015-06-30T08:21:58.000Z</time>
      </trkpt>
      <trkpt lat="46.9576" lon="-0.88503">
        <ele>157</ele>
        <time>2015-06-30T08:22:00.000Z</time>
      </trkpt>
      <trkpt lat="46.9576" lon="-0.88503">
        <ele>157</ele>
        <time>2015-06-30T08:22:02.000Z</time>
      </trkpt>
      <trkpt lat="46.9576" lon="-0.88503">
        <ele>157</ele>
        <time>2015-06-30T08:22:04.000Z</time>
      </trkpt>
      <trkpt lat="46.9577" lon="-0.88521">
        <ele>156</ele>
        <time>2015-06-30T08:22:08.000Z</time>
      </trkpt>
      <trkpt lat="46.95776" lon="-0.88531">
        <ele>156</ele>
        <time>2015-06-30T08:22:10.000Z</time>
      </trkpt>
      <trkpt lat="46.9578" lon="-0.88537">
        <ele>156</ele>
        <time>2015-06-30T08:22:12.000Z</time>
      </trkpt>
      <trkpt lat="46.95785" lon="-0.88543">
        <ele>157</ele>
        <time>2015-06-30T08:22:16.000Z</time>
      </trkpt>
      <trkpt lat="46.95789" lon="-0.88547">
        <ele>157</ele>
        <time>2015-06-30T08:22:20.000Z</time>
      </trkpt>
      <trkpt lat="46.95789" lon="-0.88547">
        <ele>157</ele>
        <time>2015-06-30T08:22:22.000Z</time>
      </trkpt>
      <trkpt lat="46.95789" lon="-0.88547">
        <ele>157</ele>
        <time>2015-06-30T08:22:24.000Z</time>
      </trkpt>
      <trkpt lat="46.95789" lon="-0.88547">
        <ele>157</ele>
        <time>2015-06-30T08:22:26.000Z</time>
      </trkpt>
      <trkpt lat="46.95789" lon="-0.88547">
        <ele>157</ele>
        <time>2015-06-30T08:22:28.000Z</time>
      </trkpt>
      <trkpt lat="46.95795" lon="-0.88557">
        <ele>157</ele>
        <time>2015-06-30T08:22:32.000Z</time>
      </trkpt>
      <trkpt lat="46.95799" lon="-0.88563">
        <ele>157</ele>
        <time>2015-06-30T08:22:34.000Z</time>
      </trkpt>
      <trkpt lat="46.95802" lon="-0.8857">
        <ele>157</ele>
        <time>2015-06-30T08:22:38.000Z</time>
      </trkpt>
      <trkpt lat="46.95802" lon="-0.8857">
        <ele>157</ele>
        <time>2015-06-30T08:22:40.000Z</time>
      </trkpt>
      <trkpt lat="46.95802" lon="-0.8857">
        <ele>157</ele>
        <time>2015-06-30T08:22:42.000Z</time>
      </trkpt>
      <trkpt lat="46.95802" lon="-0.8857">
        <ele>157</ele>
        <time>2015-06-30T08:22:44.000Z</time>
      </trkpt>
      <trkpt lat="46.95807" lon="-0.88581">
        <ele>157</ele>
        <time>2015-06-30T08:22:48.000Z</time>
      </trkpt>
      <trkpt lat="46.95811" lon="-0.88587">
        <ele>157</ele>
        <time>2015-06-30T08:22:50.000Z</time>
      </trkpt>
      <trkpt lat="46.95814" lon="-0.88594">
        <ele>157</ele>
        <time>2015-06-30T08:22:54.000Z</time>
      </trkpt>
      <trkpt lat="46.95814" lon="-0.88594">
        <ele>157</ele>
        <time>2015-06-30T08:22:56.000Z</time>
      </trkpt>
      <trkpt lat="46.95816" lon="-0.88601">
        <ele>156</ele>
        <time>2015-06-30T08:22:58.000Z</time>
      </trkpt>
      <trkpt lat="46.95816" lon="-0.88601">
        <ele>156</ele>
        <time>2015-06-30T08:23:00.000Z</time>
      </trkpt>
      <trkpt lat="46.95816" lon="-0.88601">
        <ele>156</ele>
        <time>2015-06-30T08:23:02.000Z</time>
      </trkpt>
      <trkpt lat="46.95816" lon="-0.88601">
        <ele>156</ele>
        <time>2015-06-30T08:23:04.000Z</time>
      </trkpt>
      <trkpt lat="46.95816" lon="-0.88601">
        <ele>156</ele>
        <time>2015-06-30T08:23:06.000Z</time>
      </trkpt>
      <trkpt lat="46.95816" lon="-0.88601">
        <ele>156</ele>
        <time>2015-06-30T08:23:08.000Z</time>
      </trkpt>
      <trkpt lat="46.95823" lon="-0.88612">
        <ele>155</ele>
        <time>2015-06-30T08:23:12.000Z</time>
      </trkpt>
      <trkpt lat="46.95827" lon="-0.8862">
        <ele>155</ele>
        <time>2015-06-30T08:23:14.000Z</time>
      </trkpt>
      <trkpt lat="46.95829" lon="-0.88625">
        <ele>154</ele>
        <time>2015-06-30T08:23:16.000Z</time>
      </trkpt>
      <trkpt lat="46.95829" lon="-0.88625">
        <ele>154</ele>
        <time>2015-06-30T08:23:18.000Z</time>
      </trkpt>
      <trkpt lat="46.95829" lon="-0.88625">
        <ele>154</ele>
        <time>2015-06-30T08:23:20.000Z</time>
      </trkpt>
      <trkpt lat="46.95834" lon="-0.88638">
        <ele>152</ele>
        <time>2015-06-30T08:23:28.000Z</time>
      </trkpt>
      <trkpt lat="46.95839" lon="-0.88645">
        <ele>152</ele>
        <time>2015-06-30T08:23:30.000Z</time>
      </trkpt>
      <trkpt lat="46.95842" lon="-0.88651">
        <ele>152</ele>
        <time>2015-06-30T08:23:32.000Z</time>
      </trkpt>
      <trkpt lat="46.95846" lon="-0.88656">
        <ele>152</ele>
        <time>2015-06-30T08:23:36.000Z</time>
      </trkpt>
      <trkpt lat="46.9585" lon="-0.88662">
        <ele>152</ele>
        <time>2015-06-30T08:23:40.000Z</time>
      </trkpt>
      <trkpt lat="46.95853" lon="-0.88667">
        <ele>153</ele>
        <time>2015-06-30T08:23:42.000Z</time>
      </trkpt>
      <trkpt lat="46.95853" lon="-0.88667">
        <ele>153</ele>
        <time>2015-06-30T08:23:44.000Z</time>
      </trkpt>
      <trkpt lat="46.95853" lon="-0.88667">
        <ele>153</ele>
        <time>2015-06-30T08:23:46.000Z</time>
      </trkpt>
      <trkpt lat="46.95853" lon="-0.88667">
        <ele>153</ele>
        <time>2015-06-30T08:23:48.000Z</time>
      </trkpt>
      <trkpt lat="46.95853" lon="-0.88667">
        <ele>153</ele>
        <time>2015-06-30T08:23:50.000Z</time>
      </trkpt>
      <trkpt lat="46.95853" lon="-0.88667">
        <ele>153</ele>
        <time>2015-06-30T08:23:52.000Z</time>
      </trkpt>
      <trkpt lat="46.95853" lon="-0.88667">
        <ele>153</ele>
        <time>2015-06-30T08:23:54.000Z</time>
      </trkpt>
      <trkpt lat="46.95853" lon="-0.88667">
        <ele>153</ele>
        <time>2015-06-30T08:23:56.000Z</time>
      </trkpt>
      <trkpt lat="46.95853" lon="-0.88667">
        <ele>153</ele>
        <time>2015-06-30T08:23:58.000Z</time>
      </trkpt>
      <trkpt lat="46.95853" lon="-0.88667">
        <ele>153</ele>
        <time>2015-06-30T08:24:00.000Z</time>
      </trkpt>
      <trkpt lat="46.95853" lon="-0.88667">
        <ele>153</ele>
        <time>2015-06-30T08:24:04.000Z</time>
      </trkpt>
      <trkpt lat="46.95853" lon="-0.88667">
        <ele>153</ele>
        <time>2015-06-30T08:24:08.000Z</time>
      </trkpt>
      <trkpt lat="46.95853" lon="-0.88667">
        <ele>153</ele>
        <time>2015-06-30T08:24:10.000Z</time>
      </trkpt>
      <trkpt lat="46.95856" lon="-0.88695">
        <ele>154</ele>
        <time>2015-06-30T08:24:30.000Z</time>
      </trkpt>
      <trkpt lat="46.95856" lon="-0.88695">
        <ele>154</ele>
        <time>2015-06-30T08:24:32.000Z</time>
      </trkpt>
      <trkpt lat="46.95856" lon="-0.88695">
        <ele>154</ele>
        <time>2015-06-30T08:24:34.000Z</time>
      </trkpt>
      <trkpt lat="46.95846" lon="-0.88736">
        <ele>156</ele>
        <time>2015-06-30T08:26:30.000Z</time>
      </trkpt>
      <trkpt lat="46.95841" lon="-0.88758">
        <ele>156</ele>
        <time>2015-06-30T08:26:32.000Z</time>
      </trkpt>
      <trkpt lat="46.95839" lon="-0.88769">
        <ele>156</ele>
        <time>2015-06-30T08:26:34.000Z</time>
      </trkpt>
      <trkpt lat="46.95837" lon="-0.88777">
        <ele>156</ele>
        <time>2015-06-30T08:26:36.000Z</time>
      </trkpt>
      <trkpt lat="46.95837" lon="-0.88777">
        <ele>156</ele>
        <time>2015-06-30T08:26:38.000Z</time>
      </trkpt>
      <trkpt lat="46.95837" lon="-0.88777">
        <ele>156</ele>
        <time>2015-06-30T08:26:40.000Z</time>
      </trkpt>
      <trkpt lat="46.95834" lon="-0.88787">
        <ele>156</ele>
        <time>2015-06-30T08:26:44.000Z</time>
      </trkpt>
      <trkpt lat="46.95832" lon="-0.88794">
        <ele>156</ele>
        <time>2015-06-30T08:26:46.000Z</time>
      </trkpt>
      <trkpt lat="46.9583" lon="-0.88801">
        <ele>156</ele>
        <time>2015-06-30T08:26:50.000Z</time>
      </trkpt>
      <trkpt lat="46.95828" lon="-0.88807">
        <ele>156</ele>
        <time>2015-06-30T08:26:54.000Z</time>
      </trkpt>
      <trkpt lat="46.95827" lon="-0.88813">
        <ele>155</ele>
        <time>2015-06-30T08:27:00.000Z</time>
      </trkpt>
      <trkpt lat="46.95824" lon="-0.88819">
        <ele>155</ele>
        <time>2015-06-30T08:27:04.000Z</time>
      </trkpt>
      <trkpt lat="46.95821" lon="-0.88825">
        <ele>155</ele>
        <time>2015-06-30T08:27:08.000Z</time>
      </trkpt>
      <trkpt lat="46.95818" lon="-0.88831">
        <ele>155</ele>
        <time>2015-06-30T08:27:12.000Z</time>
      </trkpt>
      <trkpt lat="46.95818" lon="-0.88831">
        <ele>155</ele>
        <time>2015-06-30T08:27:14.000Z</time>
      </trkpt>
      <trkpt lat="46.95818" lon="-0.88831">
        <ele>155</ele>
        <time>2015-06-30T08:27:16.000Z</time>
      </trkpt>
      <trkpt lat="46.95818" lon="-0.88831">
        <ele>155</ele>
        <time>2015-06-30T08:27:18.000Z</time>
      </trkpt>
      <trkpt lat="46.95818" lon="-0.88831">
        <ele>155</ele>
        <time>2015-06-30T08:27:20.000Z</time>
      </trkpt>
      <trkpt lat="46.95818" lon="-0.88831">
        <ele>155</ele>
        <time>2015-06-30T08:27:22.000Z</time>
      </trkpt>
      <trkpt lat="46.95818" lon="-0.88831">
        <ele>155</ele>
        <time>2015-06-30T08:27:24.000Z</time>
      </trkpt>
      <trkpt lat="46.95818" lon="-0.88831">
        <ele>155</ele>
        <time>2015-06-30T08:27:26.000Z</time>
      </trkpt>
      <trkpt lat="46.95818" lon="-0.88831">
        <ele>155</ele>
        <time>2015-06-30T08:27:28.000Z</time>
      </trkpt>
      <trkpt lat="46.95818" lon="-0.88831">
        <ele>155</ele>
        <time>2015-06-30T08:27:30.000Z</time>
      </trkpt>
      <trkpt lat="46.95818" lon="-0.88831">
        <ele>155</ele>
        <time>2015-06-30T08:27:32.000Z</time>
      </trkpt>
      <trkpt lat="46.95818" lon="-0.88831">
        <ele>155</ele>
        <time>2015-06-30T08:27:34.000Z</time>
      </trkpt>
      <trkpt lat="46.95818" lon="-0.88831">
        <ele>155</ele>
        <time>2015-06-30T08:27:36.000Z</time>
      </trkpt>
      <trkpt lat="46.95818" lon="-0.88831">
        <ele>155</ele>
        <time>2015-06-30T08:27:38.000Z</time>
      </trkpt>
      <trkpt lat="46.95818" lon="-0.88831">
        <ele>155</ele>
        <time>2015-06-30T08:27:40.000Z</time>
      </trkpt>
      <trkpt lat="46.95814" lon="-0.88853">
        <ele>155</ele>
        <time>2015-06-30T08:27:50.000Z</time>
      </trkpt>
      <trkpt lat="46.95812" lon="-0.88865">
        <ele>155</ele>
        <time>2015-06-30T08:27:52.000Z</time>
      </trkpt>
      <trkpt lat="46.95812" lon="-0.88865">
        <ele>155</ele>
        <time>2015-06-30T08:27:54.000Z</time>
      </trkpt>
      <trkpt lat="46.95811" lon="-0.88877">
        <ele>154</ele>
        <time>2015-06-30T08:27:58.000Z</time>
      </trkpt>
      <trkpt lat="46.95811" lon="-0.88884">
        <ele>153</ele>
        <time>2015-06-30T08:28:00.000Z</time>
      </trkpt>
      <trkpt lat="46.95815" lon="-0.88888">
        <ele>154</ele>
        <time>2015-06-30T08:28:08.000Z</time>
      </trkpt>
      <trkpt lat="46.95815" lon="-0.88888">
        <ele>154</ele>
        <time>2015-06-30T08:28:10.000Z</time>
      </trkpt>
      <trkpt lat="46.95815" lon="-0.88888">
        <ele>154</ele>
        <time>2015-06-30T08:28:12.000Z</time>
      </trkpt>
      <trkpt lat="46.95815" lon="-0.88888">
        <ele>154</ele>
        <time>2015-06-30T08:28:14.000Z</time>
      </trkpt>
      <trkpt lat="46.95815" lon="-0.88888">
        <ele>154</ele>
        <time>2015-06-30T08:28:16.000Z</time>
      </trkpt>
      <trkpt lat="46.95815" lon="-0.88888">
        <ele>154</ele>
        <time>2015-06-30T08:28:18.000Z</time>
      </trkpt>
      <trkpt lat="46.95815" lon="-0.88888">
        <ele>154</ele>
        <time>2015-06-30T08:28:20.000Z</time>
      </trkpt>
      <trkpt lat="46.95815" lon="-0.88888">
        <ele>154</ele>
        <time>2015-06-30T08:28:22.000Z</time>
      </trkpt>
      <trkpt lat="46.95823" lon="-0.88887">
        <ele>154</ele>
        <time>2015-06-30T08:28:26.000Z</time>
      </trkpt>
      <trkpt lat="46.95829" lon="-0.88886">
        <ele>154</ele>
        <time>2015-06-30T08:28:28.000Z</time>
      </trkpt>
      <trkpt lat="46.95833" lon="-0.88885">
        <ele>155</ele>
        <time>2015-06-30T08:28:30.000Z</time>
      </trkpt>
      <trkpt lat="46.95838" lon="-0.88884">
        <ele>156</ele>
        <time>2015-06-30T08:28:36.000Z</time>
      </trkpt>
      <trkpt lat="46.95842" lon="-0.88881">
        <ele>156</ele>
        <time>2015-06-30T08:28:40.000Z</time>
      </trkpt>
      <trkpt lat="46.95842" lon="-0.88881">
        <ele>156</ele>
        <time>2015-06-30T08:28:42.000Z</time>
      </trkpt>
      <trkpt lat="46.95842" lon="-0.88881">
        <ele>156</ele>
        <time>2015-06-30T08:28:44.000Z</time>
      </trkpt>
      <trkpt lat="46.95842" lon="-0.88881">
        <ele>156</ele>
        <time>2015-06-30T08:28:46.000Z</time>
      </trkpt>
      <trkpt lat="46.95842" lon="-0.88881">
        <ele>156</ele>
        <time>2015-06-30T08:28:48.000Z</time>
      </trkpt>
      <trkpt lat="46.95842" lon="-0.88881">
        <ele>156</ele>
        <time>2015-06-30T08:28:50.000Z</time>
      </trkpt>
      <trkpt lat="46.95842" lon="-0.88881">
        <ele>156</ele>
        <time>2015-06-30T08:28:52.000Z</time>
      </trkpt>
      <trkpt lat="46.95842" lon="-0.88881">
        <ele>156</ele>
        <time>2015-06-30T08:28:54.000Z</time>
      </trkpt>
      <trkpt lat="46.95842" lon="-0.88881">
        <ele>156</ele>
        <time>2015-06-30T08:28:56.000Z</time>
      </trkpt>
      <trkpt lat="46.95842" lon="-0.88881">
        <ele>156</ele>
        <time>2015-06-30T08:28:58.000Z</time>
      </trkpt>
      <trkpt lat="46.95842" lon="-0.88881">
        <ele>156</ele>
        <time>2015-06-30T08:29:00.000Z</time>
      </trkpt>
      <trkpt lat="46.95842" lon="-0.88881">
        <ele>156</ele>
        <time>2015-06-30T08:29:02.000Z</time>
      </trkpt>
      <trkpt lat="46.95842" lon="-0.88881">
        <ele>156</ele>
        <time>2015-06-30T08:29:04.000Z</time>
      </trkpt>
      <trkpt lat="46.95842" lon="-0.88881">
        <ele>156</ele>
        <time>2015-06-30T08:29:06.000Z</time>
      </trkpt>
      <trkpt lat="46.95842" lon="-0.88881">
        <ele>156</ele>
        <time>2015-06-30T08:29:08.000Z</time>
      </trkpt>
      <trkpt lat="46.95842" lon="-0.88881">
        <ele>156</ele>
        <time>2015-06-30T08:29:10.000Z</time>
      </trkpt>
      <trkpt lat="46.95858" lon="-0.88883">
        <ele>160</ele>
        <time>2015-06-30T08:29:28.000Z</time>
      </trkpt>
      <trkpt lat="46.95858" lon="-0.88883">
        <ele>160</ele>
        <time>2015-06-30T08:29:30.000Z</time>
      </trkpt>
      <trkpt lat="46.95858" lon="-0.88883">
        <ele>160</ele>
        <time>2015-06-30T08:29:32.000Z</time>
      </trkpt>
      <trkpt lat="46.9587" lon="-0.8888">
        <ele>159</ele>
        <time>2015-06-30T08:29:36.000Z</time>
      </trkpt>
      <trkpt lat="46.95877" lon="-0.88878">
        <ele>159</ele>
        <time>2015-06-30T08:29:38.000Z</time>
      </trkpt>
      <trkpt lat="46.95882" lon="-0.88876">
        <ele>160</ele>
        <time>2015-06-30T08:29:40.000Z</time>
      </trkpt>
      <trkpt lat="46.95887" lon="-0.88872">
        <ele>160</ele>
        <time>2015-06-30T08:29:46.000Z</time>
      </trkpt>
      <trkpt lat="46.95887" lon="-0.88872">
        <ele>160</ele>
        <time>2015-06-30T08:29:48.000Z</time>
      </trkpt>
      <trkpt lat="46.95887" lon="-0.88872">
        <ele>160</ele>
        <time>2015-06-30T08:29:50.000Z</time>
      </trkpt>
      <trkpt lat="46.95887" lon="-0.88872">
        <ele>160</ele>
        <time>2015-06-30T08:29:52.000Z</time>
      </trkpt>
      <trkpt lat="46.95887" lon="-0.88872">
        <ele>160</ele>
        <time>2015-06-30T08:29:54.000Z</time>
      </trkpt>
      <trkpt lat="46.95887" lon="-0.88872">
        <ele>160</ele>
        <time>2015-06-30T08:29:56.000Z</time>
      </trkpt>
      <trkpt lat="46.95887" lon="-0.88872">
        <ele>160</ele>
        <time>2015-06-30T08:29:58.000Z</time>
      </trkpt>
      <trkpt lat="46.95895" lon="-0.88868">
        <ele>158</ele>
        <time>2015-06-30T08:30:02.000Z</time>
      </trkpt>
      <trkpt lat="46.959" lon="-0.88867">
        <ele>158</ele>
        <time>2015-06-30T08:30:04.000Z</time>
      </trkpt>
      <trkpt lat="46.959" lon="-0.88867">
        <ele>158</ele>
        <time>2015-06-30T08:30:06.000Z</time>
      </trkpt>
      <trkpt lat="46.959" lon="-0.88867">
        <ele>158</ele>
        <time>2015-06-30T08:30:10.000Z</time>
      </trkpt>
      <trkpt lat="46.959" lon="-0.88867">
        <ele>158</ele>
        <time>2015-06-30T08:30:14.000Z</time>
      </trkpt>
      <trkpt lat="46.9591" lon="-0.88879">
        <ele>159</ele>
        <time>2015-06-30T08:30:38.000Z</time>
      </trkpt>
      <trkpt lat="46.95914" lon="-0.88886">
        <ele>159</ele>
        <time>2015-06-30T08:30:40.000Z</time>
      </trkpt>
      <trkpt lat="46.95918" lon="-0.88892">
        <ele>159</ele>
        <time>2015-06-30T08:30:42.000Z</time>
      </trkpt>
      <trkpt lat="46.95918" lon="-0.88892">
        <ele>159</ele>
        <time>2015-06-30T08:30:44.000Z</time>
      </trkpt>
      <trkpt lat="46.95918" lon="-0.88892">
        <ele>159</ele>
        <time>2015-06-30T08:30:46.000Z</time>
      </trkpt>
      <trkpt lat="46.95918" lon="-0.88892">
        <ele>159</ele>
        <time>2015-06-30T08:30:54.000Z</time>
      </trkpt>
      <trkpt lat="46.9592" lon="-0.88906">
        <ele>159</ele>
        <time>2015-06-30T08:30:56.000Z</time>
      </trkpt>
      <trkpt lat="46.9592" lon="-0.88914">
        <ele>160</ele>
        <time>2015-06-30T08:30:58.000Z</time>
      </trkpt>
      <trkpt lat="46.9592" lon="-0.88914">
        <ele>160</ele>
        <time>2015-06-30T08:31:04.000Z</time>
      </trkpt>
      <trkpt lat="46.9592" lon="-0.88914">
        <ele>160</ele>
        <time>2015-06-30T08:31:06.000Z</time>
      </trkpt>
      <trkpt lat="46.9592" lon="-0.88914">
        <ele>160</ele>
        <time>2015-06-30T08:31:08.000Z</time>
      </trkpt>
      <trkpt lat="46.95912" lon="-0.88927">
        <ele>163</ele>
        <time>2015-06-30T08:31:12.000Z</time>
      </trkpt>
      <trkpt lat="46.95907" lon="-0.88934">
        <ele>163</ele>
        <time>2015-06-30T08:31:14.000Z</time>
      </trkpt>
      <trkpt lat="46.95907" lon="-0.88934">
        <ele>163</ele>
        <time>2015-06-30T08:31:16.000Z</time>
      </trkpt>
      <trkpt lat="46.95907" lon="-0.88934">
        <ele>163</ele>
        <time>2015-06-30T08:31:18.000Z</time>
      </trkpt>
      <trkpt lat="46.959" lon="-0.88943">
        <ele>165</ele>
        <time>2015-06-30T08:31:22.000Z</time>
      </trkpt>
      <trkpt lat="46.95895" lon="-0.88947">
        <ele>166</ele>
        <time>2015-06-30T08:31:24.000Z</time>
      </trkpt>
      <trkpt lat="46.95892" lon="-0.88953">
        <ele>167</ele>
        <time>2015-06-30T08:31:28.000Z</time>
      </trkpt>
      <trkpt lat="46.95889" lon="-0.88959">
        <ele>168</ele>
        <time>2015-06-30T08:31:32.000Z</time>
      </trkpt>
      <trkpt lat="46.95889" lon="-0.88959">
        <ele>168</ele>
        <time>2015-06-30T08:31:36.000Z</time>
      </trkpt>
      <trkpt lat="46.95889" lon="-0.88959">
        <ele>168</ele>
        <time>2015-06-30T08:31:38.000Z</time>
      </trkpt>
      <trkpt lat="46.95889" lon="-0.88959">
        <ele>168</ele>
        <time>2015-06-30T08:31:40.000Z</time>
      </trkpt>
      <trkpt lat="46.95889" lon="-0.88959">
        <ele>168</ele>
        <time>2015-06-30T08:31:42.000Z</time>
      </trkpt>
      <trkpt lat="46.95889" lon="-0.88959">
        <ele>168</ele>
        <time>2015-06-30T08:31:44.000Z</time>
      </trkpt>
      <trkpt lat="46.95889" lon="-0.88959">
        <ele>168</ele>
        <time>2015-06-30T08:31:46.000Z</time>
      </trkpt>
      <trkpt lat="46.95889" lon="-0.88959">
        <ele>168</ele>
        <time>2015-06-30T08:31:48.000Z</time>
      </trkpt>
      <trkpt lat="46.95889" lon="-0.88959">
        <ele>168</ele>
        <time>2015-06-30T08:31:50.000Z</time>
      </trkpt>
      <trkpt lat="46.95889" lon="-0.88959">
        <ele>168</ele>
        <time>2015-06-30T08:31:52.000Z</time>
      </trkpt>
      <trkpt lat="46.95889" lon="-0.88959">
        <ele>168</ele>
        <time>2015-06-30T08:31:54.000Z</time>
      </trkpt>
      <trkpt lat="46.95889" lon="-0.88959">
        <ele>168</ele>
        <time>2015-06-30T08:31:56.000Z</time>
      </trkpt>
      <trkpt lat="46.95889" lon="-0.88959">
        <ele>168</ele>
        <time>2015-06-30T08:31:58.000Z</time>
      </trkpt>
      <trkpt lat="46.95883" lon="-0.88979">
        <ele>167</ele>
        <time>2015-06-30T08:32:10.000Z</time>
      </trkpt>
      <trkpt lat="46.9588" lon="-0.8899">
        <ele>167</ele>
        <time>2015-06-30T08:32:12.000Z</time>
      </trkpt>
      <trkpt lat="46.9588" lon="-0.88998">
        <ele>167</ele>
        <time>2015-06-30T08:32:16.000Z</time>
      </trkpt>
      <trkpt lat="46.95883" lon="-0.89006">
        <ele>167</ele>
        <time>2015-06-30T08:32:22.000Z</time>
      </trkpt>
      <trkpt lat="46.95885" lon="-0.89012">
        <ele>167</ele>
        <time>2015-06-30T08:32:24.000Z</time>
      </trkpt>
      <trkpt lat="46.95886" lon="-0.8902">
        <ele>167</ele>
        <time>2015-06-30T08:32:28.000Z</time>
      </trkpt>
      <trkpt lat="46.95886" lon="-0.8902">
        <ele>167</ele>
        <time>2015-06-30T08:32:30.000Z</time>
      </trkpt>
      <trkpt lat="46.95886" lon="-0.8902">
        <ele>167</ele>
        <time>2015-06-30T08:32:32.000Z</time>
      </trkpt>
      <trkpt lat="46.95892" lon="-0.89032">
        <ele>165</ele>
        <time>2015-06-30T08:32:40.000Z</time>
      </trkpt>
      <trkpt lat="46.95896" lon="-0.89039">
        <ele>165</ele>
        <time>2015-06-30T08:32:42.000Z</time>
      </trkpt>
      <trkpt lat="46.959" lon="-0.89046">
        <ele>165</ele>
        <time>2015-06-30T08:32:48.000Z</time>
      </trkpt>
      <trkpt lat="46.95904" lon="-0.89051">
        <ele>165</ele>
        <time>2015-06-30T08:32:50.000Z</time>
      </trkpt>
      <trkpt lat="46.95907" lon="-0.89056">
        <ele>165</ele>
        <time>2015-06-30T08:32:54.000Z</time>
      </trkpt>
      <trkpt lat="46.95907" lon="-0.89056">
        <ele>165</ele>
        <time>2015-06-30T08:32:56.000Z</time>
      </trkpt>
      <trkpt lat="46.95907" lon="-0.89056">
        <ele>165</ele>
        <time>2015-06-30T08:32:58.000Z</time>
      </trkpt>
      <trkpt lat="46.95914" lon="-0.89069">
        <ele>166</ele>
        <time>2015-06-30T08:33:10.000Z</time>
      </trkpt>
      <trkpt lat="46.95919" lon="-0.89076">
        <ele>166</ele>
        <time>2015-06-30T08:33:12.000Z</time>
      </trkpt>
      <trkpt lat="46.95919" lon="-0.89076">
        <ele>166</ele>
        <time>2015-06-30T08:33:16.000Z</time>
      </trkpt>
      <trkpt lat="46.95919" lon="-0.89076">
        <ele>166</ele>
        <time>2015-06-30T08:33:18.000Z</time>
      </trkpt>
      <trkpt lat="46.95921" lon="-0.89093">
        <ele>167</ele>
        <time>2015-06-30T08:33:56.000Z</time>
      </trkpt>
      <trkpt lat="46.95923" lon="-0.89103">
        <ele>167</ele>
        <time>2015-06-30T08:33:58.000Z</time>
      </trkpt>
      <trkpt lat="46.95924" lon="-0.8911">
        <ele>167</ele>
        <time>2015-06-30T08:34:00.000Z</time>
      </trkpt>
      <trkpt lat="46.95924" lon="-0.8911">
        <ele>167</ele>
        <time>2015-06-30T08:34:02.000Z</time>
      </trkpt>
      <trkpt lat="46.95924" lon="-0.8911">
        <ele>167</ele>
        <time>2015-06-30T08:34:04.000Z</time>
      </trkpt>
      <trkpt lat="46.95924" lon="-0.8911">
        <ele>167</ele>
        <time>2015-06-30T08:34:06.000Z</time>
      </trkpt>
      <trkpt lat="46.95922" lon="-0.89121">
        <ele>166</ele>
        <time>2015-06-30T08:34:10.000Z</time>
      </trkpt>
      <trkpt lat="46.95921" lon="-0.89127">
        <ele>166</ele>
        <time>2015-06-30T08:34:12.000Z</time>
      </trkpt>
      <trkpt lat="46.95919" lon="-0.89135">
        <ele>165</ele>
        <time>2015-06-30T08:34:18.000Z</time>
      </trkpt>
      <trkpt lat="46.95919" lon="-0.89135">
        <ele>165</ele>
        <time>2015-06-30T08:34:20.000Z</time>
      </trkpt>
      <trkpt lat="46.95919" lon="-0.89135">
        <ele>165</ele>
        <time>2015-06-30T08:34:22.000Z</time>
      </trkpt>
      <trkpt lat="46.95918" lon="-0.89143">
        <ele>166</ele>
        <time>2015-06-30T08:34:24.000Z</time>
      </trkpt>
      <trkpt lat="46.95916" lon="-0.89149">
        <ele>167</ele>
        <time>2015-06-30T08:34:28.000Z</time>
      </trkpt>
      <trkpt lat="46.95916" lon="-0.89149">
        <ele>167</ele>
        <time>2015-06-30T08:34:30.000Z</time>
      </trkpt>
      <trkpt lat="46.95917" lon="-0.89156">
        <ele>167</ele>
        <time>2015-06-30T08:34:32.000Z</time>
      </trkpt>
      <trkpt lat="46.95915" lon="-0.89165">
        <ele>168</ele>
        <time>2015-06-30T08:34:36.000Z</time>
      </trkpt>
      <trkpt lat="46.95914" lon="-0.89171">
        <ele>169</ele>
        <time>2015-06-30T08:34:40.000Z</time>
      </trkpt>
      <trkpt lat="46.95914" lon="-0.89171">
        <ele>169</ele>
        <time>2015-06-30T08:34:44.000Z</time>
      </trkpt>
      <trkpt lat="46.95914" lon="-0.89171">
        <ele>169</ele>
        <time>2015-06-30T08:34:46.000Z</time>
      </trkpt>
      <trkpt lat="46.95914" lon="-0.89171">
        <ele>169</ele>
        <time>2015-06-30T08:34:48.000Z</time>
      </trkpt>
      <trkpt lat="46.95914" lon="-0.89171">
        <ele>169</ele>
        <time>2015-06-30T08:34:50.000Z</time>
      </trkpt>
      <trkpt lat="46.95914" lon="-0.89171">
        <ele>169</ele>
        <time>2015-06-30T08:34:52.000Z</time>
      </trkpt>
      <trkpt lat="46.95914" lon="-0.89171">
        <ele>169</ele>
        <time>2015-06-30T08:34:54.000Z</time>
      </trkpt>
      <trkpt lat="46.95914" lon="-0.89171">
        <ele>169</ele>
        <time>2015-06-30T08:34:56.000Z</time>
      </trkpt>
      <trkpt lat="46.9591" lon="-0.89188">
        <ele>175</ele>
        <time>2015-06-30T08:35:00.000Z</time>
      </trkpt>
      <trkpt lat="46.9591" lon="-0.89188">
        <ele>175</ele>
        <time>2015-06-30T08:35:02.000Z</time>
      </trkpt>
      <trkpt lat="46.95907" lon="-0.89199">
        <ele>175</ele>
        <time>2015-06-30T08:35:04.000Z</time>
      </trkpt>
      <trkpt lat="46.95905" lon="-0.89206">
        <ele>176</ele>
        <time>2015-06-30T08:35:06.000Z</time>
      </trkpt>
      <trkpt lat="46.95905" lon="-0.89206">
        <ele>176</ele>
        <time>2015-06-30T08:35:08.000Z</time>
      </trkpt>
      <trkpt lat="46.95905" lon="-0.89206">
        <ele>176</ele>
        <time>2015-06-30T08:35:10.000Z</time>
      </trkpt>
      <trkpt lat="46.95902" lon="-0.89225">
        <ele>179</ele>
        <time>2015-06-30T08:35:22.000Z</time>
      </trkpt>
      <trkpt lat="46.95901" lon="-0.89237">
        <ele>179</ele>
        <time>2015-06-30T08:35:24.000Z</time>
      </trkpt>
      <trkpt lat="46.95901" lon="-0.89237">
        <ele>179</ele>
        <time>2015-06-30T08:35:26.000Z</time>
      </trkpt>
      <trkpt lat="46.95901" lon="-0.89237">
        <ele>179</ele>
        <time>2015-06-30T08:35:28.000Z</time>
      </trkpt>
      <trkpt lat="46.95906" lon="-0.8925">
        <ele>180</ele>
        <time>2015-06-30T08:35:40.000Z</time>
      </trkpt>
      <trkpt lat="46.95909" lon="-0.89257">
        <ele>180</ele>
        <time>2015-06-30T08:35:42.000Z</time>
      </trkpt>
      <trkpt lat="46.95913" lon="-0.89262">
        <ele>179</ele>
        <time>2015-06-30T08:35:46.000Z</time>
      </trkpt>
      <trkpt lat="46.95916" lon="-0.89268">
        <ele>178</ele>
        <time>2015-06-30T08:35:52.000Z</time>
      </trkpt>
      <trkpt lat="46.95916" lon="-0.89268">
        <ele>178</ele>
        <time>2015-06-30T08:35:54.000Z</time>
      </trkpt>
      <trkpt lat="46.95916" lon="-0.89268">
        <ele>178</ele>
        <time>2015-06-30T08:35:56.000Z</time>
      </trkpt>
      <trkpt lat="46.95916" lon="-0.89268">
        <ele>178</ele>
        <time>2015-06-30T08:35:58.000Z</time>
      </trkpt>
      <trkpt lat="46.95916" lon="-0.89268">
        <ele>178</ele>
        <time>2015-06-30T08:36:00.000Z</time>
      </trkpt>
      <trkpt lat="46.95916" lon="-0.89268">
        <ele>178</ele>
        <time>2015-06-30T08:36:02.000Z</time>
      </trkpt>
      <trkpt lat="46.95916" lon="-0.89268">
        <ele>178</ele>
        <time>2015-06-30T08:36:04.000Z</time>
      </trkpt>
      <trkpt lat="46.95916" lon="-0.89268">
        <ele>178</ele>
        <time>2015-06-30T08:36:06.000Z</time>
      </trkpt>
      <trkpt lat="46.95928" lon="-0.89282">
        <ele>176</ele>
        <time>2015-06-30T08:36:10.000Z</time>
      </trkpt>
      <trkpt lat="46.95934" lon="-0.89289">
        <ele>176</ele>
        <time>2015-06-30T08:36:12.000Z</time>
      </trkpt>
      <trkpt lat="46.95934" lon="-0.89289">
        <ele>176</ele>
        <time>2015-06-30T08:36:14.000Z</time>
      </trkpt>
      <trkpt lat="46.9594" lon="-0.89297">
        <ele>175</ele>
        <time>2015-06-30T08:36:18.000Z</time>
      </trkpt>
      <trkpt lat="46.95943" lon="-0.89301">
        <ele>175</ele>
        <time>2015-06-30T08:36:20.000Z</time>
      </trkpt>
      <trkpt lat="46.95948" lon="-0.89307">
        <ele>175</ele>
        <time>2015-06-30T08:36:24.000Z</time>
      </trkpt>
      <trkpt lat="46.95952" lon="-0.8931">
        <ele>175</ele>
        <time>2015-06-30T08:36:26.000Z</time>
      </trkpt>
      <trkpt lat="46.95952" lon="-0.8931">
        <ele>175</ele>
        <time>2015-06-30T08:36:32.000Z</time>
      </trkpt>
      <trkpt lat="46.95952" lon="-0.8931">
        <ele>175</ele>
        <time>2015-06-30T08:36:34.000Z</time>
      </trkpt>
      <trkpt lat="46.95952" lon="-0.8931">
        <ele>175</ele>
        <time>2015-06-30T08:36:36.000Z</time>
      </trkpt>
      <trkpt lat="46.9596" lon="-0.89321">
        <ele>173</ele>
        <time>2015-06-30T08:36:44.000Z</time>
      </trkpt>
      <trkpt lat="46.95965" lon="-0.89328">
        <ele>173</ele>
        <time>2015-06-30T08:36:46.000Z</time>
      </trkpt>
      <trkpt lat="46.95969" lon="-0.89333">
        <ele>173</ele>
        <time>2015-06-30T08:36:48.000Z</time>
      </trkpt>
      <trkpt lat="46.95972" lon="-0.89337">
        <ele>173</ele>
        <time>2015-06-30T08:36:52.000Z</time>
      </trkpt>
      <trkpt lat="46.95977" lon="-0.89342">
        <ele>172</ele>
        <time>2015-06-30T08:36:58.000Z</time>
      </trkpt>
      <trkpt lat="46.95981" lon="-0.89346">
        <ele>171</ele>
        <time>2015-06-30T08:37:00.000Z</time>
      </trkpt>
      <trkpt lat="46.95986" lon="-0.89349">
        <ele>171</ele>
        <time>2015-06-30T08:37:04.000Z</time>
      </trkpt>
      <trkpt lat="46.95991" lon="-0.89352">
        <ele>171</ele>
        <time>2015-06-30T08:37:08.000Z</time>
      </trkpt>
      <trkpt lat="46.95996" lon="-0.89356">
        <ele>170</ele>
        <time>2015-06-30T08:37:12.000Z</time>
      </trkpt>
      <trkpt lat="46.96" lon="-0.89359">
        <ele>170</ele>
        <time>2015-06-30T08:37:16.000Z</time>
      </trkpt>
      <trkpt lat="46.96" lon="-0.89359">
        <ele>170</ele>
        <time>2015-06-30T08:37:18.000Z</time>
      </trkpt>
      <trkpt lat="46.96" lon="-0.89359">
        <ele>170</ele>
        <time>2015-06-30T08:37:20.000Z</time>
      </trkpt>
      <trkpt lat="46.96" lon="-0.89359">
        <ele>170</ele>
        <time>2015-06-30T08:37:22.000Z</time>
      </trkpt>
      <trkpt lat="46.96" lon="-0.89359">
        <ele>170</ele>
        <time>2015-06-30T08:37:24.000Z</time>
      </trkpt>
      <trkpt lat="46.96" lon="-0.89359">
        <ele>170</ele>
        <time>2015-06-30T08:37:26.000Z</time>
      </trkpt>
      <trkpt lat="46.96" lon="-0.89359">
        <ele>170</ele>
        <time>2015-06-30T08:37:28.000Z</time>
      </trkpt>
      <trkpt lat="46.96011" lon="-0.89368">
        <ele>172</ele>
        <time>2015-06-30T08:37:32.000Z</time>
      </trkpt>
      <trkpt lat="46.96017" lon="-0.89374">
        <ele>172</ele>
        <time>2015-06-30T08:37:34.000Z</time>
      </trkpt>
      <trkpt lat="46.96021" lon="-0.89378">
        <ele>172</ele>
        <time>2015-06-30T08:37:36.000Z</time>
      </trkpt>
      <trkpt lat="46.96025" lon="-0.89382">
        <ele>172</ele>
        <time>2015-06-30T08:37:40.000Z</time>
      </trkpt>
      <trkpt lat="46.96029" lon="-0.89387">
        <ele>172</ele>
        <time>2015-06-30T08:37:44.000Z</time>
      </trkpt>
      <trkpt lat="46.96029" lon="-0.89387">
        <ele>172</ele>
        <time>2015-06-30T08:37:46.000Z</time>
      </trkpt>
      <trkpt lat="46.96029" lon="-0.89387">
        <ele>172</ele>
        <time>2015-06-30T08:37:48.000Z</time>
      </trkpt>
      <trkpt lat="46.96036" lon="-0.89393">
        <ele>173</ele>
        <time>2015-06-30T08:37:52.000Z</time>
      </trkpt>
      <trkpt lat="46.9604" lon="-0.89397">
        <ele>173</ele>
        <time>2015-06-30T08:37:54.000Z</time>
      </trkpt>
      <trkpt lat="46.9604" lon="-0.89397">
        <ele>173</ele>
        <time>2015-06-30T08:37:56.000Z</time>
      </trkpt>
      <trkpt lat="46.9604" lon="-0.89397">
        <ele>173</ele>
        <time>2015-06-30T08:37:58.000Z</time>
      </trkpt>
      <trkpt lat="46.9604" lon="-0.89397">
        <ele>173</ele>
        <time>2015-06-30T08:38:00.000Z</time>
      </trkpt>
      <trkpt lat="46.9604" lon="-0.89397">
        <ele>173</ele>
        <time>2015-06-30T08:38:02.000Z</time>
      </trkpt>
      <trkpt lat="46.9604" lon="-0.89397">
        <ele>173</ele>
        <time>2015-06-30T08:38:04.000Z</time>
      </trkpt>
      <trkpt lat="46.9604" lon="-0.89397">
        <ele>173</ele>
        <time>2015-06-30T08:38:06.000Z</time>
      </trkpt>
      <trkpt lat="46.9604" lon="-0.89397">
        <ele>173</ele>
        <time>2015-06-30T08:38:08.000Z</time>
      </trkpt>
      <trkpt lat="46.96051" lon="-0.89408">
        <ele>173</ele>
        <time>2015-06-30T08:38:12.000Z</time>
      </trkpt>
      <trkpt lat="46.96057" lon="-0.89414">
        <ele>173</ele>
        <time>2015-06-30T08:38:14.000Z</time>
      </trkpt>
      <trkpt lat="46.96062" lon="-0.89418">
        <ele>173</ele>
        <time>2015-06-30T08:38:16.000Z</time>
      </trkpt>
      <trkpt lat="46.96066" lon="-0.89424">
        <ele>174</ele>
        <time>2015-06-30T08:38:20.000Z</time>
      </trkpt>
      <trkpt lat="46.96069" lon="-0.89428">
        <ele>174</ele>
        <time>2015-06-30T08:38:24.000Z</time>
      </trkpt>
      <trkpt lat="46.96069" lon="-0.89428">
        <ele>174</ele>
        <time>2015-06-30T08:38:26.000Z</time>
      </trkpt>
      <trkpt lat="46.96072" lon="-0.89434">
        <ele>174</ele>
        <time>2015-06-30T08:38:28.000Z</time>
      </trkpt>
      <trkpt lat="46.96072" lon="-0.89434">
        <ele>174</ele>
        <time>2015-06-30T08:38:30.000Z</time>
      </trkpt>
      <trkpt lat="46.96076" lon="-0.89438">
        <ele>174</ele>
        <time>2015-06-30T08:38:32.000Z</time>
      </trkpt>
      <trkpt lat="46.96076" lon="-0.89438">
        <ele>174</ele>
        <time>2015-06-30T08:38:36.000Z</time>
      </trkpt>
      <trkpt lat="46.96076" lon="-0.89438">
        <ele>174</ele>
        <time>2015-06-30T08:38:38.000Z</time>
      </trkpt>
      <trkpt lat="46.96076" lon="-0.89438">
        <ele>174</ele>
        <time>2015-06-30T08:38:40.000Z</time>
      </trkpt>
      <trkpt lat="46.96076" lon="-0.89438">
        <ele>174</ele>
        <time>2015-06-30T08:38:42.000Z</time>
      </trkpt>
      <trkpt lat="46.96076" lon="-0.89438">
        <ele>174</ele>
        <time>2015-06-30T08:38:44.000Z</time>
      </trkpt>
      <trkpt lat="46.96076" lon="-0.89438">
        <ele>174</ele>
        <time>2015-06-30T08:38:46.000Z</time>
      </trkpt>
      <trkpt lat="46.96076" lon="-0.89438">
        <ele>174</ele>
        <time>2015-06-30T08:38:48.000Z</time>
      </trkpt>
      <trkpt lat="46.96076" lon="-0.89438">
        <ele>174</ele>
        <time>2015-06-30T08:38:50.000Z</time>
      </trkpt>
      <trkpt lat="46.96076" lon="-0.89438">
        <ele>174</ele>
        <time>2015-06-30T08:38:52.000Z</time>
      </trkpt>
      <trkpt lat="46.96076" lon="-0.89438">
        <ele>174</ele>
        <time>2015-06-30T08:38:54.000Z</time>
      </trkpt>
      <trkpt lat="46.96076" lon="-0.89438">
        <ele>174</ele>
        <time>2015-06-30T08:38:56.000Z</time>
      </trkpt>
      <trkpt lat="46.96076" lon="-0.89438">
        <ele>174</ele>
        <time>2015-06-30T08:38:58.000Z</time>
      </trkpt>
      <trkpt lat="46.96076" lon="-0.89438">
        <ele>174</ele>
        <time>2015-06-30T08:39:00.000Z</time>
      </trkpt>
      <trkpt lat="46.96076" lon="-0.89438">
        <ele>174</ele>
        <time>2015-06-30T08:39:02.000Z</time>
      </trkpt>
      <trkpt lat="46.96076" lon="-0.89438">
        <ele>174</ele>
        <time>2015-06-30T08:39:04.000Z</time>
      </trkpt>
      <trkpt lat="46.96076" lon="-0.89438">
        <ele>174</ele>
        <time>2015-06-30T08:39:06.000Z</time>
      </trkpt>
      <trkpt lat="46.96076" lon="-0.89438">
        <ele>174</ele>
        <time>2015-06-30T08:39:08.000Z</time>
      </trkpt>
      <trkpt lat="46.96076" lon="-0.89438">
        <ele>174</ele>
        <time>2015-06-30T08:39:10.000Z</time>
      </trkpt>
      <trkpt lat="46.96094" lon="-0.89467">
        <ele>175</ele>
        <time>2015-06-30T08:39:14.000Z</time>
      </trkpt>
      <trkpt lat="46.96103" lon="-0.89484">
        <ele>174</ele>
        <time>2015-06-30T08:39:16.000Z</time>
      </trkpt>
      <trkpt lat="46.96108" lon="-0.89494">
        <ele>174</ele>
        <time>2015-06-30T08:39:18.000Z</time>
      </trkpt>
      <trkpt lat="46.9611" lon="-0.89502">
        <ele>174</ele>
        <time>2015-06-30T08:39:20.000Z</time>
      </trkpt>
      <trkpt lat="46.96111" lon="-0.89508">
        <ele>174</ele>
        <time>2015-06-30T08:39:24.000Z</time>
      </trkpt>
      <trkpt lat="46.96112" lon="-0.89517">
        <ele>173</ele>
        <time>2015-06-30T08:39:30.000Z</time>
      </trkpt>
      <trkpt lat="46.96111" lon="-0.89524">
        <ele>172</ele>
        <time>2015-06-30T08:39:34.000Z</time>
      </trkpt>
      <trkpt lat="46.96111" lon="-0.89524">
        <ele>172</ele>
        <time>2015-06-30T08:39:36.000Z</time>
      </trkpt>
      <trkpt lat="46.96111" lon="-0.89524">
        <ele>172</ele>
        <time>2015-06-30T08:39:38.000Z</time>
      </trkpt>
      <trkpt lat="46.96111" lon="-0.89524">
        <ele>172</ele>
        <time>2015-06-30T08:39:40.000Z</time>
      </trkpt>
      <trkpt lat="46.96111" lon="-0.89524">
        <ele>172</ele>
        <time>2015-06-30T08:39:42.000Z</time>
      </trkpt>
      <trkpt lat="46.96111" lon="-0.89524">
        <ele>172</ele>
        <time>2015-06-30T08:39:44.000Z</time>
      </trkpt>
      <trkpt lat="46.96107" lon="-0.89538">
        <ele>170</ele>
        <time>2015-06-30T08:39:50.000Z</time>
      </trkpt>
      <trkpt lat="46.96106" lon="-0.89548">
        <ele>170</ele>
        <time>2015-06-30T08:39:52.000Z</time>
      </trkpt>
      <trkpt lat="46.96106" lon="-0.89555">
        <ele>169</ele>
        <time>2015-06-30T08:39:56.000Z</time>
      </trkpt>
      <trkpt lat="46.96106" lon="-0.89555">
        <ele>169</ele>
        <time>2015-06-30T08:39:58.000Z</time>
      </trkpt>
      <trkpt lat="46.96106" lon="-0.89555">
        <ele>169</ele>
        <time>2015-06-30T08:40:00.000Z</time>
      </trkpt>
      <trkpt lat="46.96106" lon="-0.89555">
        <ele>169</ele>
        <time>2015-06-30T08:40:02.000Z</time>
      </trkpt>
      <trkpt lat="46.96106" lon="-0.89555">
        <ele>169</ele>
        <time>2015-06-30T08:40:04.000Z</time>
      </trkpt>
      <trkpt lat="46.96106" lon="-0.89555">
        <ele>169</ele>
        <time>2015-06-30T08:40:06.000Z</time>
      </trkpt>
      <trkpt lat="46.96106" lon="-0.89555">
        <ele>169</ele>
        <time>2015-06-30T08:40:08.000Z</time>
      </trkpt>
      <trkpt lat="46.96106" lon="-0.89555">
        <ele>169</ele>
        <time>2015-06-30T08:40:10.000Z</time>
      </trkpt>
      <trkpt lat="46.96107" lon="-0.89576">
        <ele>167</ele>
        <time>2015-06-30T08:40:16.000Z</time>
      </trkpt>
      <trkpt lat="46.96108" lon="-0.89589">
        <ele>167</ele>
        <time>2015-06-30T08:40:18.000Z</time>
      </trkpt>
      <trkpt lat="46.96109" lon="-0.89598">
        <ele>167</ele>
        <time>2015-06-30T08:40:20.000Z</time>
      </trkpt>
      <trkpt lat="46.96109" lon="-0.89604">
        <ele>166</ele>
        <time>2015-06-30T08:40:22.000Z</time>
      </trkpt>
      <trkpt lat="46.96111" lon="-0.89611">
        <ele>166</ele>
        <time>2015-06-30T08:40:28.000Z</time>
      </trkpt>
      <trkpt lat="46.96111" lon="-0.89611">
        <ele>166</ele>
        <time>2015-06-30T08:40:30.000Z</time>
      </trkpt>
      <trkpt lat="46.96114" lon="-0.89617">
        <ele>165</ele>
        <time>2015-06-30T08:40:34.000Z</time>
      </trkpt>
      <trkpt lat="46.96119" lon="-0.89622">
        <ele>164</ele>
        <time>2015-06-30T08:40:40.000Z</time>
      </trkpt>
      <trkpt lat="46.96119" lon="-0.89622">
        <ele>164</ele>
        <time>2015-06-30T08:40:42.000Z</time>
      </trkpt>
      <trkpt lat="46.96119" lon="-0.89622">
        <ele>164</ele>
        <time>2015-06-30T08:40:44.000Z</time>
      </trkpt>
      <trkpt lat="46.96119" lon="-0.89622">
        <ele>164</ele>
        <time>2015-06-30T08:40:46.000Z</time>
      </trkpt>
      <trkpt lat="46.96119" lon="-0.89622">
        <ele>164</ele>
        <time>2015-06-30T08:40:48.000Z</time>
      </trkpt>
      <trkpt lat="46.96119" lon="-0.89622">
        <ele>164</ele>
        <time>2015-06-30T08:40:50.000Z</time>
      </trkpt>
      <trkpt lat="46.96119" lon="-0.89622">
        <ele>164</ele>
        <time>2015-06-30T08:40:52.000Z</time>
      </trkpt>
      <trkpt lat="46.96131" lon="-0.89627">
        <ele>164</ele>
        <time>2015-06-30T08:40:58.000Z</time>
      </trkpt>
      <trkpt lat="46.96138" lon="-0.89629">
        <ele>164</ele>
        <time>2015-06-30T08:41:00.000Z</time>
      </trkpt>
      <trkpt lat="46.96143" lon="-0.89631">
        <ele>164</ele>
        <time>2015-06-30T08:41:02.000Z</time>
      </trkpt>
      <trkpt lat="46.96143" lon="-0.89631">
        <ele>164</ele>
        <time>2015-06-30T08:41:04.000Z</time>
      </trkpt>
      <trkpt lat="46.96143" lon="-0.89631">
        <ele>164</ele>
        <time>2015-06-30T08:41:06.000Z</time>
      </trkpt>
      <trkpt lat="46.9615" lon="-0.89637">
        <ele>164</ele>
        <time>2015-06-30T08:41:10.000Z</time>
      </trkpt>
      <trkpt lat="46.96155" lon="-0.8964">
        <ele>164</ele>
        <time>2015-06-30T08:41:12.000Z</time>
      </trkpt>
      <trkpt lat="46.96155" lon="-0.8964">
        <ele>164</ele>
        <time>2015-06-30T08:41:18.000Z</time>
      </trkpt>
      <trkpt lat="46.96155" lon="-0.8964">
        <ele>164</ele>
        <time>2015-06-30T08:41:20.000Z</time>
      </trkpt>
      <trkpt lat="46.96161" lon="-0.89637">
        <ele>163</ele>
        <time>2015-06-30T08:41:24.000Z</time>
      </trkpt>
      <trkpt lat="46.96161" lon="-0.89637">
        <ele>163</ele>
        <time>2015-06-30T08:41:26.000Z</time>
      </trkpt>
      <trkpt lat="46.96161" lon="-0.89637">
        <ele>163</ele>
        <time>2015-06-30T08:41:28.000Z</time>
      </trkpt>
      <trkpt lat="46.96161" lon="-0.89637">
        <ele>163</ele>
        <time>2015-06-30T08:41:30.000Z</time>
      </trkpt>
      <trkpt lat="46.96161" lon="-0.89637">
        <ele>163</ele>
        <time>2015-06-30T08:41:32.000Z</time>
      </trkpt>
      <trkpt lat="46.96161" lon="-0.89637">
        <ele>163</ele>
        <time>2015-06-30T08:41:34.000Z</time>
      </trkpt>
      <trkpt lat="46.96161" lon="-0.89637">
        <ele>163</ele>
        <time>2015-06-30T08:41:36.000Z</time>
      </trkpt>
      <trkpt lat="46.96161" lon="-0.89637">
        <ele>163</ele>
        <time>2015-06-30T08:41:38.000Z</time>
      </trkpt>
      <trkpt lat="46.96161" lon="-0.89637">
        <ele>163</ele>
        <time>2015-06-30T08:42:06.000Z</time>
      </trkpt>
      <trkpt lat="46.9618" lon="-0.89667">
        <ele>156</ele>
        <time>2015-06-30T08:42:18.000Z</time>
      </trkpt>
      <trkpt lat="46.9619" lon="-0.89683">
        <ele>156</ele>
        <time>2015-06-30T08:42:20.000Z</time>
      </trkpt>
      <trkpt lat="46.96196" lon="-0.89692">
        <ele>155</ele>
        <time>2015-06-30T08:42:22.000Z</time>
      </trkpt>
      <trkpt lat="46.962" lon="-0.89698">
        <ele>155</ele>
        <time>2015-06-30T08:42:24.000Z</time>
      </trkpt>
      <trkpt lat="46.962" lon="-0.89698">
        <ele>155</ele>
        <time>2015-06-30T08:42:26.000Z</time>
      </trkpt>
      <trkpt lat="46.962" lon="-0.89698">
        <ele>155</ele>
        <time>2015-06-30T08:42:28.000Z</time>
      </trkpt>
      <trkpt lat="46.962" lon="-0.89698">
        <ele>155</ele>
        <time>2015-06-30T08:42:32.000Z</time>
      </trkpt>
      <trkpt lat="46.962" lon="-0.89698">
        <ele>155</ele>
        <time>2015-06-30T08:42:34.000Z</time>
      </trkpt>
      <trkpt lat="46.962" lon="-0.89698">
        <ele>155</ele>
        <time>2015-06-30T08:42:36.000Z</time>
      </trkpt>
      <trkpt lat="46.962" lon="-0.89698">
        <ele>155</ele>
        <time>2015-06-30T08:42:38.000Z</time>
      </trkpt>
      <trkpt lat="46.962" lon="-0.89698">
        <ele>155</ele>
        <time>2015-06-30T08:42:40.000Z</time>
      </trkpt>
      <trkpt lat="46.962" lon="-0.89698">
        <ele>155</ele>
        <time>2015-06-30T08:42:42.000Z</time>
      </trkpt>
      <trkpt lat="46.9621" lon="-0.89711">
        <ele>153</ele>
        <time>2015-06-30T08:42:46.000Z</time>
      </trkpt>
      <trkpt lat="46.96216" lon="-0.89718">
        <ele>153</ele>
        <time>2015-06-30T08:42:48.000Z</time>
      </trkpt>
      <trkpt lat="46.9622" lon="-0.89722">
        <ele>153</ele>
        <time>2015-06-30T08:42:50.000Z</time>
      </trkpt>
      <trkpt lat="46.96224" lon="-0.89725">
        <ele>153</ele>
        <time>2015-06-30T08:42:52.000Z</time>
      </trkpt>
      <trkpt lat="46.96229" lon="-0.89729">
        <ele>152</ele>
        <time>2015-06-30T08:42:56.000Z</time>
      </trkpt>
      <trkpt lat="46.96233" lon="-0.89732">
        <ele>152</ele>
        <time>2015-06-30T08:42:58.000Z</time>
      </trkpt>
      <trkpt lat="46.96238" lon="-0.89734">
        <ele>153</ele>
        <time>2015-06-30T08:43:04.000Z</time>
      </trkpt>
      <trkpt lat="46.96238" lon="-0.89734">
        <ele>153</ele>
        <time>2015-06-30T08:43:06.000Z</time>
      </trkpt>
      <trkpt lat="46.96238" lon="-0.89734">
        <ele>153</ele>
        <time>2015-06-30T08:43:08.000Z</time>
      </trkpt>
      <trkpt lat="46.96238" lon="-0.89734">
        <ele>153</ele>
        <time>2015-06-30T08:43:10.000Z</time>
      </trkpt>
      <trkpt lat="46.96247" lon="-0.89737">
        <ele>154</ele>
        <time>2015-06-30T08:43:14.000Z</time>
      </trkpt>
      <trkpt lat="46.96255" lon="-0.89739">
        <ele>154</ele>
        <time>2015-06-30T08:43:16.000Z</time>
      </trkpt>
      <trkpt lat="46.96259" lon="-0.8974">
        <ele>154</ele>
        <time>2015-06-30T08:43:18.000Z</time>
      </trkpt>
      <trkpt lat="46.96259" lon="-0.8974">
        <ele>154</ele>
        <time>2015-06-30T08:43:20.000Z</time>
      </trkpt>
      <trkpt lat="46.96259" lon="-0.8974">
        <ele>154</ele>
        <time>2015-06-30T08:43:22.000Z</time>
      </trkpt>
      <trkpt lat="46.96259" lon="-0.8974">
        <ele>154</ele>
        <time>2015-06-30T08:43:24.000Z</time>
      </trkpt>
      <trkpt lat="46.96259" lon="-0.8974">
        <ele>154</ele>
        <time>2015-06-30T08:43:26.000Z</time>
      </trkpt>
      <trkpt lat="46.96259" lon="-0.8974">
        <ele>154</ele>
        <time>2015-06-30T08:43:28.000Z</time>
      </trkpt>
      <trkpt lat="46.96259" lon="-0.8974">
        <ele>154</ele>
        <time>2015-06-30T08:43:30.000Z</time>
      </trkpt>
      <trkpt lat="46.96259" lon="-0.8974">
        <ele>154</ele>
        <time>2015-06-30T08:43:32.000Z</time>
      </trkpt>
      <trkpt lat="46.96259" lon="-0.8974">
        <ele>154</ele>
        <time>2015-06-30T08:43:34.000Z</time>
      </trkpt>
      <trkpt lat="46.96259" lon="-0.8974">
        <ele>154</ele>
        <time>2015-06-30T08:43:36.000Z</time>
      </trkpt>
      <trkpt lat="46.96259" lon="-0.8974">
        <ele>154</ele>
        <time>2015-06-30T08:43:38.000Z</time>
      </trkpt>
      <trkpt lat="46.96259" lon="-0.8974">
        <ele>154</ele>
        <time>2015-06-30T08:43:40.000Z</time>
      </trkpt>
      <trkpt lat="46.96259" lon="-0.8974">
        <ele>154</ele>
        <time>2015-06-30T08:43:42.000Z</time>
      </trkpt>
      <trkpt lat="46.96259" lon="-0.8974">
        <ele>154</ele>
        <time>2015-06-30T08:43:44.000Z</time>
      </trkpt>
      <trkpt lat="46.96259" lon="-0.8974">
        <ele>154</ele>
        <time>2015-06-30T08:43:46.000Z</time>
      </trkpt>
      <trkpt lat="46.96259" lon="-0.8974">
        <ele>154</ele>
        <time>2015-06-30T08:43:48.000Z</time>
      </trkpt>
      <trkpt lat="46.96282" lon="-0.89751">
        <ele>157</ele>
        <time>2015-06-30T08:43:54.000Z</time>
      </trkpt>
      <trkpt lat="46.96294" lon="-0.89757">
        <ele>157</ele>
        <time>2015-06-30T08:43:56.000Z</time>
      </trkpt>
      <trkpt lat="46.96302" lon="-0.89763">
        <ele>157</ele>
        <time>2015-06-30T08:43:58.000Z</time>
      </trkpt>
      <trkpt lat="46.96307" lon="-0.89766">
        <ele>157</ele>
        <time>2015-06-30T08:44:00.000Z</time>
      </trkpt>
      <trkpt lat="46.96307" lon="-0.89766">
        <ele>157</ele>
        <time>2015-06-30T08:44:02.000Z</time>
      </trkpt>
      <trkpt lat="46.96307" lon="-0.89766">
        <ele>157</ele>
        <time>2015-06-30T08:44:04.000Z</time>
      </trkpt>
      <trkpt lat="46.96307" lon="-0.89766">
        <ele>157</ele>
        <time>2015-06-30T08:44:06.000Z</time>
      </trkpt>
      <trkpt lat="46.96307" lon="-0.89766">
        <ele>157</ele>
        <time>2015-06-30T08:44:08.000Z</time>
      </trkpt>
      <trkpt lat="46.96307" lon="-0.89766">
        <ele>157</ele>
        <time>2015-06-30T08:44:10.000Z</time>
      </trkpt>
      <trkpt lat="46.96307" lon="-0.89766">
        <ele>157</ele>
        <time>2015-06-30T08:44:12.000Z</time>
      </trkpt>
      <trkpt lat="46.96307" lon="-0.89766">
        <ele>157</ele>
        <time>2015-06-30T08:44:14.000Z</time>
      </trkpt>
      <trkpt lat="46.96307" lon="-0.89766">
        <ele>157</ele>
        <time>2015-06-30T08:44:16.000Z</time>
      </trkpt>
      <trkpt lat="46.96316" lon="-0.89781">
        <ele>156</ele>
        <time>2015-06-30T08:44:18.000Z</time>
      </trkpt>
      <trkpt lat="46.96322" lon="-0.8979">
        <ele>156</ele>
        <time>2015-06-30T08:44:20.000Z</time>
      </trkpt>
      <trkpt lat="46.96326" lon="-0.89796">
        <ele>156</ele>
        <time>2015-06-30T08:44:22.000Z</time>
      </trkpt>
      <trkpt lat="46.96329" lon="-0.89802">
        <ele>155</ele>
        <time>2015-06-30T08:44:26.000Z</time>
      </trkpt>
      <trkpt lat="46.96332" lon="-0.89807">
        <ele>155</ele>
        <time>2015-06-30T08:44:30.000Z</time>
      </trkpt>
      <trkpt lat="46.96332" lon="-0.89807">
        <ele>155</ele>
        <time>2015-06-30T08:44:32.000Z</time>
      </trkpt>
      <trkpt lat="46.96332" lon="-0.89807">
        <ele>155</ele>
        <time>2015-06-30T08:44:34.000Z</time>
      </trkpt>
      <trkpt lat="46.96332" lon="-0.89807">
        <ele>155</ele>
        <time>2015-06-30T08:44:36.000Z</time>
      </trkpt>
      <trkpt lat="46.96336" lon="-0.89816">
        <ele>153</ele>
        <time>2015-06-30T08:44:40.000Z</time>
      </trkpt>
      <trkpt lat="46.96339" lon="-0.89824">
        <ele>152</ele>
        <time>2015-06-30T08:44:44.000Z</time>
      </trkpt>
      <trkpt lat="46.96341" lon="-0.89832">
        <ele>151</ele>
        <time>2015-06-30T08:44:48.000Z</time>
      </trkpt>
      <trkpt lat="46.96343" lon="-0.89839">
        <ele>150</ele>
        <time>2015-06-30T08:44:52.000Z</time>
      </trkpt>
      <trkpt lat="46.96343" lon="-0.89839">
        <ele>150</ele>
        <time>2015-06-30T08:44:54.000Z</time>
      </trkpt>
      <trkpt lat="46.96345" lon="-0.89845">
        <ele>149</ele>
        <time>2015-06-30T08:44:56.000Z</time>
      </trkpt>
      <trkpt lat="46.96345" lon="-0.89845">
        <ele>149</ele>
        <time>2015-06-30T08:44:58.000Z</time>
      </trkpt>
      <trkpt lat="46.96347" lon="-0.89851">
        <ele>148</ele>
        <time>2015-06-30T08:45:00.000Z</time>
      </trkpt>
      <trkpt lat="46.9635" lon="-0.89857">
        <ele>148</ele>
        <time>2015-06-30T08:45:04.000Z</time>
      </trkpt>
      <trkpt lat="46.9635" lon="-0.89857">
        <ele>148</ele>
        <time>2015-06-30T08:45:06.000Z</time>
      </trkpt>
      <trkpt lat="46.9635" lon="-0.89857">
        <ele>148</ele>
        <time>2015-06-30T08:45:08.000Z</time>
      </trkpt>
      <trkpt lat="46.9635" lon="-0.89857">
        <ele>148</ele>
        <time>2015-06-30T08:45:10.000Z</time>
      </trkpt>
      <trkpt lat="46.9635" lon="-0.89857">
        <ele>148</ele>
        <time>2015-06-30T08:45:12.000Z</time>
      </trkpt>
      <trkpt lat="46.9635" lon="-0.89857">
        <ele>148</ele>
        <time>2015-06-30T08:45:14.000Z</time>
      </trkpt>
      <trkpt lat="46.9635" lon="-0.89857">
        <ele>148</ele>
        <time>2015-06-30T08:45:16.000Z</time>
      </trkpt>
      <trkpt lat="46.9635" lon="-0.89857">
        <ele>148</ele>
        <time>2015-06-30T08:45:18.000Z</time>
      </trkpt>
      <trkpt lat="46.9635" lon="-0.89857">
        <ele>148</ele>
        <time>2015-06-30T08:45:20.000Z</time>
      </trkpt>
      <trkpt lat="46.9635" lon="-0.89857">
        <ele>148</ele>
        <time>2015-06-30T08:45:22.000Z</time>
      </trkpt>
      <trkpt lat="46.9635" lon="-0.89857">
        <ele>148</ele>
        <time>2015-06-30T08:45:24.000Z</time>
      </trkpt>
      <trkpt lat="46.96358" lon="-0.89884">
        <ele>145</ele>
        <time>2015-06-30T08:45:30.000Z</time>
      </trkpt>
      <trkpt lat="46.96362" lon="-0.89898">
        <ele>145</ele>
        <time>2015-06-30T08:45:32.000Z</time>
      </trkpt>
      <trkpt lat="46.96365" lon="-0.89907">
        <ele>144</ele>
        <time>2015-06-30T08:45:34.000Z</time>
      </trkpt>
      <trkpt lat="46.96367" lon="-0.89913">
        <ele>144</ele>
        <time>2015-06-30T08:45:36.000Z</time>
      </trkpt>
      <trkpt lat="46.96368" lon="-0.89919">
        <ele>144</ele>
        <time>2015-06-30T08:45:40.000Z</time>
      </trkpt>
      <trkpt lat="46.9637" lon="-0.89926">
        <ele>143</ele>
        <time>2015-06-30T08:45:44.000Z</time>
      </trkpt>
      <trkpt lat="46.9637" lon="-0.89926">
        <ele>143</ele>
        <time>2015-06-30T08:45:46.000Z</time>
      </trkpt>
      <trkpt lat="46.9637" lon="-0.89926">
        <ele>143</ele>
        <time>2015-06-30T08:45:48.000Z</time>
      </trkpt>
      <trkpt lat="46.9637" lon="-0.89926">
        <ele>143</ele>
        <time>2015-06-30T08:45:50.000Z</time>
      </trkpt>
      <trkpt lat="46.96374" lon="-0.89937">
        <ele>142</ele>
        <time>2015-06-30T08:45:54.000Z</time>
      </trkpt>
      <trkpt lat="46.96376" lon="-0.89944">
        <ele>142</ele>
        <time>2015-06-30T08:45:56.000Z</time>
      </trkpt>
      <trkpt lat="46.96378" lon="-0.89951">
        <ele>141</ele>
        <time>2015-06-30T08:46:00.000Z</time>
      </trkpt>
      <trkpt lat="46.96378" lon="-0.89951">
        <ele>141</ele>
        <time>2015-06-30T08:46:02.000Z</time>
      </trkpt>
      <trkpt lat="46.96378" lon="-0.89951">
        <ele>141</ele>
        <time>2015-06-30T08:46:04.000Z</time>
      </trkpt>
      <trkpt lat="46.96378" lon="-0.89951">
        <ele>141</ele>
        <time>2015-06-30T08:46:06.000Z</time>
      </trkpt>
      <trkpt lat="46.96378" lon="-0.89951">
        <ele>141</ele>
        <time>2015-06-30T08:46:14.000Z</time>
      </trkpt>
      <trkpt lat="46.96378" lon="-0.89951">
        <ele>141</ele>
        <time>2015-06-30T08:46:16.000Z</time>
      </trkpt>
      <trkpt lat="46.96378" lon="-0.89951">
        <ele>141</ele>
        <time>2015-06-30T08:46:18.000Z</time>
      </trkpt>
      <trkpt lat="46.96384" lon="-0.89972">
        <ele>144</ele>
        <time>2015-06-30T08:46:22.000Z</time>
      </trkpt>
      <trkpt lat="46.96388" lon="-0.89984">
        <ele>144</ele>
        <time>2015-06-30T08:46:24.000Z</time>
      </trkpt>
      <trkpt lat="46.96391" lon="-0.89993">
        <ele>144</ele>
        <time>2015-06-30T08:46:26.000Z</time>
      </trkpt>
      <trkpt lat="46.96392" lon="-0.9">
        <ele>144</ele>
        <time>2015-06-30T08:46:30.000Z</time>
      </trkpt>
      <trkpt lat="46.96392" lon="-0.9">
        <ele>144</ele>
        <time>2015-06-30T08:46:32.000Z</time>
      </trkpt>
      <trkpt lat="46.96392" lon="-0.9">
        <ele>144</ele>
        <time>2015-06-30T08:46:34.000Z</time>
      </trkpt>
      <trkpt lat="46.96392" lon="-0.9">
        <ele>144</ele>
        <time>2015-06-30T08:46:36.000Z</time>
      </trkpt>
      <trkpt lat="46.96392" lon="-0.9">
        <ele>144</ele>
        <time>2015-06-30T08:46:38.000Z</time>
      </trkpt>
      <trkpt lat="46.96392" lon="-0.9">
        <ele>144</ele>
        <time>2015-06-30T08:46:40.000Z</time>
      </trkpt>
      <trkpt lat="46.96392" lon="-0.9">
        <ele>144</ele>
        <time>2015-06-30T08:46:42.000Z</time>
      </trkpt>
      <trkpt lat="46.96392" lon="-0.90016">
        <ele>144</ele>
        <time>2015-06-30T08:46:44.000Z</time>
      </trkpt>
      <trkpt lat="46.96391" lon="-0.90025">
        <ele>144</ele>
        <time>2015-06-30T08:46:46.000Z</time>
      </trkpt>
      <trkpt lat="46.96389" lon="-0.90031">
        <ele>144</ele>
        <time>2015-06-30T08:46:48.000Z</time>
      </trkpt>
      <trkpt lat="46.96386" lon="-0.90036">
        <ele>144</ele>
        <time>2015-06-30T08:46:52.000Z</time>
      </trkpt>
      <trkpt lat="46.96386" lon="-0.90036">
        <ele>144</ele>
        <time>2015-06-30T08:46:54.000Z</time>
      </trkpt>
      <trkpt lat="46.96386" lon="-0.90036">
        <ele>144</ele>
        <time>2015-06-30T08:46:56.000Z</time>
      </trkpt>
      <trkpt lat="46.96386" lon="-0.90036">
        <ele>144</ele>
        <time>2015-06-30T08:46:58.000Z</time>
      </trkpt>
      <trkpt lat="46.96386" lon="-0.90036">
        <ele>144</ele>
        <time>2015-06-30T08:47:00.000Z</time>
      </trkpt>
      <trkpt lat="46.96377" lon="-0.90043">
        <ele>144</ele>
        <time>2015-06-30T08:47:06.000Z</time>
      </trkpt>
      <trkpt lat="46.96371" lon="-0.90046">
        <ele>144</ele>
        <time>2015-06-30T08:47:08.000Z</time>
      </trkpt>
      <trkpt lat="46.96366" lon="-0.90049">
        <ele>143</ele>
        <time>2015-06-30T08:47:14.000Z</time>
      </trkpt>
      <trkpt lat="46.96366" lon="-0.90049">
        <ele>143</ele>
        <time>2015-06-30T08:47:16.000Z</time>
      </trkpt>
      <trkpt lat="46.96366" lon="-0.90049">
        <ele>143</ele>
        <time>2015-06-30T08:47:18.000Z</time>
      </trkpt>
      <trkpt lat="46.96366" lon="-0.90049">
        <ele>143</ele>
        <time>2015-06-30T08:47:20.000Z</time>
      </trkpt>
      <trkpt lat="46.96366" lon="-0.90049">
        <ele>143</ele>
        <time>2015-06-30T08:47:22.000Z</time>
      </trkpt>
      <trkpt lat="46.96366" lon="-0.90049">
        <ele>143</ele>
        <time>2015-06-30T08:47:24.000Z</time>
      </trkpt>
      <trkpt lat="46.96366" lon="-0.90049">
        <ele>143</ele>
        <time>2015-06-30T08:47:26.000Z</time>
      </trkpt>
      <trkpt lat="46.96366" lon="-0.90049">
        <ele>143</ele>
        <time>2015-06-30T08:47:28.000Z</time>
      </trkpt>
      <trkpt lat="46.96366" lon="-0.90049">
        <ele>143</ele>
        <time>2015-06-30T08:47:30.000Z</time>
      </trkpt>
      <trkpt lat="46.96352" lon="-0.90058">
        <ele>142</ele>
        <time>2015-06-30T08:47:42.000Z</time>
      </trkpt>
      <trkpt lat="46.96344" lon="-0.90063">
        <ele>144</ele>
        <time>2015-06-30T08:47:44.000Z</time>
      </trkpt>
      <trkpt lat="46.96338" lon="-0.90066">
        <ele>145</ele>
        <time>2015-06-30T08:47:46.000Z</time>
      </trkpt>
      <trkpt lat="46.96338" lon="-0.90066">
        <ele>145</ele>
        <time>2015-06-30T08:47:48.000Z</time>
      </trkpt>
      <trkpt lat="46.96338" lon="-0.90066">
        <ele>145</ele>
        <time>2015-06-30T08:47:52.000Z</time>
      </trkpt>
      <trkpt lat="46.96338" lon="-0.90066">
        <ele>145</ele>
        <time>2015-06-30T08:47:54.000Z</time>
      </trkpt>
      <trkpt lat="46.96326" lon="-0.90072">
        <ele>151</ele>
        <time>2015-06-30T08:48:00.000Z</time>
      </trkpt>
      <trkpt lat="46.96319" lon="-0.90075">
        <ele>152</ele>
        <time>2015-06-30T08:48:02.000Z</time>
      </trkpt>
      <trkpt lat="46.96319" lon="-0.90075">
        <ele>152</ele>
        <time>2015-06-30T08:48:04.000Z</time>
      </trkpt>
      <trkpt lat="46.96312" lon="-0.90078">
        <ele>156</ele>
        <time>2015-06-30T08:48:10.000Z</time>
      </trkpt>
      <trkpt lat="46.96312" lon="-0.90078">
        <ele>156</ele>
        <time>2015-06-30T08:48:14.000Z</time>
      </trkpt>
      <trkpt lat="46.96312" lon="-0.90078">
        <ele>156</ele>
        <time>2015-06-30T08:48:16.000Z</time>
      </trkpt>
      <trkpt lat="46.96312" lon="-0.90078">
        <ele>156</ele>
        <time>2015-06-30T08:48:18.000Z</time>
      </trkpt>
      <trkpt lat="46.96303" lon="-0.90085">
        <ele>159</ele>
        <time>2015-06-30T08:48:22.000Z</time>
      </trkpt>
      <trkpt lat="46.96299" lon="-0.90087">
        <ele>159</ele>
        <time>2015-06-30T08:48:24.000Z</time>
      </trkpt>
      <trkpt lat="46.96299" lon="-0.90087">
        <ele>159</ele>
        <time>2015-06-30T08:48:26.000Z</time>
      </trkpt>
      <trkpt lat="46.96299" lon="-0.90087">
        <ele>159</ele>
        <time>2015-06-30T08:48:28.000Z</time>
      </trkpt>
      <trkpt lat="46.96299" lon="-0.90087">
        <ele>159</ele>
        <time>2015-06-30T08:48:30.000Z</time>
      </trkpt>
      <trkpt lat="46.96299" lon="-0.90087">
        <ele>159</ele>
        <time>2015-06-30T08:48:32.000Z</time>
      </trkpt>
      <trkpt lat="46.96299" lon="-0.90087">
        <ele>159</ele>
        <time>2015-06-30T08:48:34.000Z</time>
      </trkpt>
      <trkpt lat="46.96299" lon="-0.90087">
        <ele>159</ele>
        <time>2015-06-30T08:48:36.000Z</time>
      </trkpt>
      <trkpt lat="46.96299" lon="-0.90087">
        <ele>159</ele>
        <time>2015-06-30T08:48:38.000Z</time>
      </trkpt>
      <trkpt lat="46.96287" lon="-0.90089">
        <ele>160</ele>
        <time>2015-06-30T08:48:42.000Z</time>
      </trkpt>
      <trkpt lat="46.96281" lon="-0.9009">
        <ele>160</ele>
        <time>2015-06-30T08:48:44.000Z</time>
      </trkpt>
      <trkpt lat="46.96281" lon="-0.9009">
        <ele>160</ele>
        <time>2015-06-30T08:48:46.000Z</time>
      </trkpt>
      <trkpt lat="46.96281" lon="-0.9009">
        <ele>160</ele>
        <time>2015-06-30T08:48:48.000Z</time>
      </trkpt>
      <trkpt lat="46.96281" lon="-0.9009">
        <ele>160</ele>
        <time>2015-06-30T08:48:50.000Z</time>
      </trkpt>
      <trkpt lat="46.96266" lon="-0.90084">
        <ele>162</ele>
        <time>2015-06-30T08:49:04.000Z</time>
      </trkpt>
      <trkpt lat="46.96258" lon="-0.9008">
        <ele>162</ele>
        <time>2015-06-30T08:49:06.000Z</time>
      </trkpt>
      <trkpt lat="46.96253" lon="-0.90078">
        <ele>162</ele>
        <time>2015-06-30T08:49:08.000Z</time>
      </trkpt>
      <trkpt lat="46.96253" lon="-0.90078">
        <ele>162</ele>
        <time>2015-06-30T08:49:10.000Z</time>
      </trkpt>
      <trkpt lat="46.96249" lon="-0.90075">
        <ele>163</ele>
        <time>2015-06-30T08:49:12.000Z</time>
      </trkpt>
      <trkpt lat="46.96249" lon="-0.90075">
        <ele>163</ele>
        <time>2015-06-30T08:49:14.000Z</time>
      </trkpt>
      <trkpt lat="46.96249" lon="-0.90075">
        <ele>163</ele>
        <time>2015-06-30T08:49:16.000Z</time>
      </trkpt>
      <trkpt lat="46.96241" lon="-0.90072">
        <ele>166</ele>
        <time>2015-06-30T08:49:22.000Z</time>
      </trkpt>
      <trkpt lat="46.96241" lon="-0.90072">
        <ele>166</ele>
        <time>2015-06-30T08:49:24.000Z</time>
      </trkpt>
      <trkpt lat="46.96235" lon="-0.90068">
        <ele>167</ele>
        <time>2015-06-30T08:49:26.000Z</time>
      </trkpt>
      <trkpt lat="46.9623" lon="-0.90064">
        <ele>167</ele>
        <time>2015-06-30T08:49:28.000Z</time>
      </trkpt>
      <trkpt lat="46.96222" lon="-0.90061">
        <ele>167</ele>
        <time>2015-06-30T08:49:34.000Z</time>
      </trkpt>
      <trkpt lat="46.96217" lon="-0.90059">
        <ele>168</ele>
        <time>2015-06-30T08:49:36.000Z</time>
      </trkpt>
      <trkpt lat="46.96212" lon="-0.90058">
        <ele>168</ele>
        <time>2015-06-30T08:49:40.000Z</time>
      </trkpt>
      <trkpt lat="46.96212" lon="-0.90058">
        <ele>168</ele>
        <time>2015-06-30T08:49:42.000Z</time>
      </trkpt>
      <trkpt lat="46.96212" lon="-0.90058">
        <ele>168</ele>
        <time>2015-06-30T08:49:44.000Z</time>
      </trkpt>
      <trkpt lat="46.96212" lon="-0.90058">
        <ele>168</ele>
        <time>2015-06-30T08:49:46.000Z</time>
      </trkpt>
      <trkpt lat="46.96212" lon="-0.90058">
        <ele>168</ele>
        <time>2015-06-30T08:49:48.000Z</time>
      </trkpt>
      <trkpt lat="46.96212" lon="-0.90058">
        <ele>168</ele>
        <time>2015-06-30T08:49:50.000Z</time>
      </trkpt>
      <trkpt lat="46.96212" lon="-0.90058">
        <ele>168</ele>
        <time>2015-06-30T08:49:52.000Z</time>
      </trkpt>
      <trkpt lat="46.96212" lon="-0.90058">
        <ele>168</ele>
        <time>2015-06-30T08:49:54.000Z</time>
      </trkpt>
      <trkpt lat="46.96212" lon="-0.90058">
        <ele>168</ele>
        <time>2015-06-30T08:49:56.000Z</time>
      </trkpt>
      <trkpt lat="46.96212" lon="-0.90058">
        <ele>168</ele>
        <time>2015-06-30T08:49:58.000Z</time>
      </trkpt>
      <trkpt lat="46.96212" lon="-0.90058">
        <ele>168</ele>
        <time>2015-06-30T08:50:04.000Z</time>
      </trkpt>
      <trkpt lat="46.96212" lon="-0.90058">
        <ele>168</ele>
        <time>2015-06-30T08:50:06.000Z</time>
      </trkpt>
      <trkpt lat="46.96212" lon="-0.90058">
        <ele>168</ele>
        <time>2015-06-30T08:50:08.000Z</time>
      </trkpt>
      <trkpt lat="46.96198" lon="-0.90068">
        <ele>168</ele>
        <time>2015-06-30T08:53:16.000Z</time>
      </trkpt>
      <trkpt lat="46.96198" lon="-0.90068">
        <ele>168</ele>
        <time>2015-06-30T08:53:18.000Z</time>
      </trkpt>
      <trkpt lat="46.96198" lon="-0.90068">
        <ele>168</ele>
        <time>2015-06-30T08:53:20.000Z</time>
      </trkpt>
      <trkpt lat="46.96181" lon="-0.90072">
        <ele>172</ele>
        <time>2015-06-30T08:53:46.000Z</time>
      </trkpt>
      <trkpt lat="46.96181" lon="-0.90072">
        <ele>172</ele>
        <time>2015-06-30T08:53:48.000Z</time>
      </trkpt>
      <trkpt lat="46.96181" lon="-0.90072">
        <ele>172</ele>
        <time>2015-06-30T08:53:50.000Z</time>
      </trkpt>
      <trkpt lat="46.96163" lon="-0.90069">
        <ele>176</ele>
        <time>2015-06-30T08:54:00.000Z</time>
      </trkpt>
      <trkpt lat="46.96163" lon="-0.90069">
        <ele>176</ele>
        <time>2015-06-30T08:54:02.000Z</time>
      </trkpt>
      <trkpt lat="46.96151" lon="-0.90064">
        <ele>177</ele>
        <time>2015-06-30T08:54:08.000Z</time>
      </trkpt>
      <trkpt lat="46.96144" lon="-0.9006">
        <ele>177</ele>
        <time>2015-06-30T08:54:10.000Z</time>
      </trkpt>
      <trkpt lat="46.96139" lon="-0.90057">
        <ele>177</ele>
        <time>2015-06-30T08:54:12.000Z</time>
      </trkpt>
      <trkpt lat="46.96133" lon="-0.90055">
        <ele>178</ele>
        <time>2015-06-30T08:54:16.000Z</time>
      </trkpt>
      <trkpt lat="46.96128" lon="-0.90053">
        <ele>178</ele>
        <time>2015-06-30T08:54:18.000Z</time>
      </trkpt>
      <trkpt lat="46.96122" lon="-0.90051">
        <ele>179</ele>
        <time>2015-06-30T08:54:22.000Z</time>
      </trkpt>
      <trkpt lat="46.96117" lon="-0.90048">
        <ele>180</ele>
        <time>2015-06-30T08:54:26.000Z</time>
      </trkpt>
      <trkpt lat="46.96117" lon="-0.90048">
        <ele>180</ele>
        <time>2015-06-30T08:54:28.000Z</time>
      </trkpt>
      <trkpt lat="46.96117" lon="-0.90048">
        <ele>180</ele>
        <time>2015-06-30T08:54:30.000Z</time>
      </trkpt>
      <trkpt lat="46.96117" lon="-0.90048">
        <ele>180</ele>
        <time>2015-06-30T08:54:32.000Z</time>
      </trkpt>
      <trkpt lat="46.96117" lon="-0.90048">
        <ele>180</ele>
        <time>2015-06-30T08:54:34.000Z</time>
      </trkpt>
      <trkpt lat="46.96117" lon="-0.90048">
        <ele>180</ele>
        <time>2015-06-30T08:54:36.000Z</time>
      </trkpt>
      <trkpt lat="46.96117" lon="-0.90048">
        <ele>180</ele>
        <time>2015-06-30T08:54:38.000Z</time>
      </trkpt>
      <trkpt lat="46.96117" lon="-0.90048">
        <ele>180</ele>
        <time>2015-06-30T08:54:40.000Z</time>
      </trkpt>
      <trkpt lat="46.96117" lon="-0.90048">
        <ele>180</ele>
        <time>2015-06-30T08:54:42.000Z</time>
      </trkpt>
      <trkpt lat="46.96117" lon="-0.90048">
        <ele>180</ele>
        <time>2015-06-30T08:54:44.000Z</time>
      </trkpt>
      <trkpt lat="46.96099" lon="-0.90048">
        <ele>181</ele>
        <time>2015-06-30T08:55:04.000Z</time>
      </trkpt>
      <trkpt lat="46.96088" lon="-0.90048">
        <ele>180</ele>
        <time>2015-06-30T08:55:06.000Z</time>
      </trkpt>
      <trkpt lat="46.96082" lon="-0.90047">
        <ele>180</ele>
        <time>2015-06-30T08:55:08.000Z</time>
      </trkpt>
      <trkpt lat="46.96075" lon="-0.90047">
        <ele>180</ele>
        <time>2015-06-30T08:55:12.000Z</time>
      </trkpt>
      <trkpt lat="46.9607" lon="-0.90046">
        <ele>180</ele>
        <time>2015-06-30T08:55:14.000Z</time>
      </trkpt>
      <trkpt lat="46.96066" lon="-0.90044">
        <ele>179</ele>
        <time>2015-06-30T08:55:20.000Z</time>
      </trkpt>
      <trkpt lat="46.96066" lon="-0.90044">
        <ele>179</ele>
        <time>2015-06-30T08:55:22.000Z</time>
      </trkpt>
      <trkpt lat="46.96066" lon="-0.90044">
        <ele>179</ele>
        <time>2015-06-30T08:55:24.000Z</time>
      </trkpt>
      <trkpt lat="46.96066" lon="-0.90044">
        <ele>179</ele>
        <time>2015-06-30T08:55:26.000Z</time>
      </trkpt>
      <trkpt lat="46.96066" lon="-0.90044">
        <ele>179</ele>
        <time>2015-06-30T08:55:28.000Z</time>
      </trkpt>
      <trkpt lat="46.9605" lon="-0.90035">
        <ele>178</ele>
        <time>2015-06-30T08:55:44.000Z</time>
      </trkpt>
      <trkpt lat="46.96042" lon="-0.9003">
        <ele>178</ele>
        <time>2015-06-30T08:55:46.000Z</time>
      </trkpt>
      <trkpt lat="46.96036" lon="-0.90028">
        <ele>178</ele>
        <time>2015-06-30T08:55:48.000Z</time>
      </trkpt>
      <trkpt lat="46.96031" lon="-0.90028">
        <ele>178</ele>
        <time>2015-06-30T08:55:50.000Z</time>
      </trkpt>
      <trkpt lat="46.96026" lon="-0.90029">
        <ele>178</ele>
        <time>2015-06-30T08:55:52.000Z</time>
      </trkpt>
      <trkpt lat="46.96015" lon="-0.90032">
        <ele>178</ele>
        <time>2015-06-30T08:55:54.000Z</time>
      </trkpt>
      <trkpt lat="46.96003" lon="-0.9003">
        <ele>179</ele>
        <time>2015-06-30T08:56:02.000Z</time>
      </trkpt>
      <trkpt lat="46.95993" lon="-0.90025">
        <ele>180</ele>
        <time>2015-06-30T08:56:08.000Z</time>
      </trkpt>
      <trkpt lat="46.95982" lon="-0.90023">
        <ele>182</ele>
        <time>2015-06-30T08:56:16.000Z</time>
      </trkpt>
      <trkpt lat="46.95951" lon="-0.90003">
        <ele>185</ele>
        <time>2015-06-30T08:56:42.000Z</time>
      </trkpt>
      <trkpt lat="46.95942" lon="-0.89999">
        <ele>185</ele>
        <time>2015-06-30T08:56:48.000Z</time>
      </trkpt>
      <trkpt lat="46.95942" lon="-0.89999">
        <ele>185</ele>
        <time>2015-06-30T08:56:54.000Z</time>
      </trkpt>
      <trkpt lat="46.95942" lon="-0.89999">
        <ele>185</ele>
        <time>2015-06-30T08:56:56.000Z</time>
      </trkpt>
      <trkpt lat="46.95942" lon="-0.89999">
        <ele>185</ele>
        <time>2015-06-30T08:56:58.000Z</time>
      </trkpt>
      <trkpt lat="46.95942" lon="-0.89999">
        <ele>185</ele>
        <time>2015-06-30T08:57:00.000Z</time>
      </trkpt>
      <trkpt lat="46.95942" lon="-0.89999">
        <ele>185</ele>
        <time>2015-06-30T08:57:02.000Z</time>
      </trkpt>
      <trkpt lat="46.95925" lon="-0.89984">
        <ele>183</ele>
        <time>2015-06-30T08:57:26.000Z</time>
      </trkpt>
      <trkpt lat="46.95916" lon="-0.89975">
        <ele>183</ele>
        <time>2015-06-30T08:57:28.000Z</time>
      </trkpt>
      <trkpt lat="46.95911" lon="-0.8997">
        <ele>183</ele>
        <time>2015-06-30T08:57:30.000Z</time>
      </trkpt>
      <trkpt lat="46.95911" lon="-0.8997">
        <ele>183</ele>
        <time>2015-06-30T08:57:36.000Z</time>
      </trkpt>
      <trkpt lat="46.95911" lon="-0.8997">
        <ele>183</ele>
        <time>2015-06-30T08:57:38.000Z</time>
      </trkpt>
      <trkpt lat="46.95911" lon="-0.8997">
        <ele>183</ele>
        <time>2015-06-30T08:57:40.000Z</time>
      </trkpt>
      <trkpt lat="46.95911" lon="-0.8997">
        <ele>183</ele>
        <time>2015-06-30T08:57:42.000Z</time>
      </trkpt>
      <trkpt lat="46.95903" lon="-0.8996">
        <ele>182</ele>
        <time>2015-06-30T08:57:52.000Z</time>
      </trkpt>
      <trkpt lat="46.95898" lon="-0.89954">
        <ele>182</ele>
        <time>2015-06-30T08:57:54.000Z</time>
      </trkpt>
      <trkpt lat="46.95898" lon="-0.89954">
        <ele>182</ele>
        <time>2015-06-30T08:57:56.000Z</time>
      </trkpt>
      <trkpt lat="46.95893" lon="-0.89948">
        <ele>182</ele>
        <time>2015-06-30T08:57:58.000Z</time>
      </trkpt>
      <trkpt lat="46.95893" lon="-0.89948">
        <ele>182</ele>
        <time>2015-06-30T08:58:00.000Z</time>
      </trkpt>
      <trkpt lat="46.95893" lon="-0.89948">
        <ele>182</ele>
        <time>2015-06-30T08:58:02.000Z</time>
      </trkpt>
      <trkpt lat="46.95893" lon="-0.89948">
        <ele>182</ele>
        <time>2015-06-30T08:58:04.000Z</time>
      </trkpt>
      <trkpt lat="46.95893" lon="-0.89948">
        <ele>182</ele>
        <time>2015-06-30T08:58:06.000Z</time>
      </trkpt>
      <trkpt lat="46.95893" lon="-0.89948">
        <ele>182</ele>
        <time>2015-06-30T08:58:08.000Z</time>
      </trkpt>
      <trkpt lat="46.95893" lon="-0.89948">
        <ele>182</ele>
        <time>2015-06-30T08:58:10.000Z</time>
      </trkpt>
      <trkpt lat="46.95882" lon="-0.89944">
        <ele>182</ele>
        <time>2015-06-30T08:58:14.000Z</time>
      </trkpt>
      <trkpt lat="46.95876" lon="-0.89941">
        <ele>182</ele>
        <time>2015-06-30T08:58:16.000Z</time>
      </trkpt>
      <trkpt lat="46.95871" lon="-0.8994">
        <ele>182</ele>
        <time>2015-06-30T08:58:18.000Z</time>
      </trkpt>
      <trkpt lat="46.95864" lon="-0.89939">
        <ele>181</ele>
        <time>2015-06-30T08:58:22.000Z</time>
      </trkpt>
      <trkpt lat="46.9586" lon="-0.89939">
        <ele>181</ele>
        <time>2015-06-30T08:58:26.000Z</time>
      </trkpt>
      <trkpt lat="46.95855" lon="-0.89944">
        <ele>181</ele>
        <time>2015-06-30T08:58:30.000Z</time>
      </trkpt>
      <trkpt lat="46.9585" lon="-0.89948">
        <ele>180</ele>
        <time>2015-06-30T08:58:34.000Z</time>
      </trkpt>
      <trkpt lat="46.9585" lon="-0.89948">
        <ele>180</ele>
        <time>2015-06-30T08:58:36.000Z</time>
      </trkpt>
      <trkpt lat="46.9585" lon="-0.89948">
        <ele>180</ele>
        <time>2015-06-30T08:58:38.000Z</time>
      </trkpt>
      <trkpt lat="46.9585" lon="-0.89948">
        <ele>180</ele>
        <time>2015-06-30T08:58:40.000Z</time>
      </trkpt>
      <trkpt lat="46.9585" lon="-0.89948">
        <ele>180</ele>
        <time>2015-06-30T08:58:42.000Z</time>
      </trkpt>
      <trkpt lat="46.9585" lon="-0.89948">
        <ele>180</ele>
        <time>2015-06-30T08:58:44.000Z</time>
      </trkpt>
      <trkpt lat="46.9585" lon="-0.89948">
        <ele>180</ele>
        <time>2015-06-30T08:58:46.000Z</time>
      </trkpt>
      <trkpt lat="46.9585" lon="-0.89948">
        <ele>180</ele>
        <time>2015-06-30T08:58:48.000Z</time>
      </trkpt>
      <trkpt lat="46.95842" lon="-0.89955">
        <ele>179</ele>
        <time>2015-06-30T08:58:52.000Z</time>
      </trkpt>
      <trkpt lat="46.95836" lon="-0.89959">
        <ele>179</ele>
        <time>2015-06-30T08:58:54.000Z</time>
      </trkpt>
      <trkpt lat="46.95836" lon="-0.89959">
        <ele>179</ele>
        <time>2015-06-30T08:58:56.000Z</time>
      </trkpt>
      <trkpt lat="46.95836" lon="-0.89959">
        <ele>179</ele>
        <time>2015-06-30T08:58:58.000Z</time>
      </trkpt>
      <trkpt lat="46.95836" lon="-0.89959">
        <ele>179</ele>
        <time>2015-06-30T08:59:00.000Z</time>
      </trkpt>
      <trkpt lat="46.95823" lon="-0.89966">
        <ele>178</ele>
        <time>2015-06-30T08:59:14.000Z</time>
      </trkpt>
      <trkpt lat="46.95823" lon="-0.89966">
        <ele>178</ele>
        <time>2015-06-30T08:59:16.000Z</time>
      </trkpt>
      <trkpt lat="46.95823" lon="-0.89966">
        <ele>178</ele>
        <time>2015-06-30T08:59:18.000Z</time>
      </trkpt>
      <trkpt lat="46.95823" lon="-0.89966">
        <ele>178</ele>
        <time>2015-06-30T08:59:20.000Z</time>
      </trkpt>
      <trkpt lat="46.95823" lon="-0.89966">
        <ele>178</ele>
        <time>2015-06-30T08:59:22.000Z</time>
      </trkpt>
      <trkpt lat="46.95806" lon="-0.89973">
        <ele>179</ele>
        <time>2015-06-30T08:59:34.000Z</time>
      </trkpt>
      <trkpt lat="46.95806" lon="-0.89973">
        <ele>179</ele>
        <time>2015-06-30T08:59:36.000Z</time>
      </trkpt>
      <trkpt lat="46.95806" lon="-0.89973">
        <ele>179</ele>
        <time>2015-06-30T08:59:38.000Z</time>
      </trkpt>
      <trkpt lat="46.95788" lon="-0.89976">
        <ele>180</ele>
        <time>2015-06-30T08:59:50.000Z</time>
      </trkpt>
      <trkpt lat="46.95777" lon="-0.89976">
        <ele>180</ele>
        <time>2015-06-30T08:59:52.000Z</time>
      </trkpt>
      <trkpt lat="46.9577" lon="-0.89975">
        <ele>180</ele>
        <time>2015-06-30T08:59:54.000Z</time>
      </trkpt>
      <trkpt lat="46.95765" lon="-0.89974">
        <ele>180</ele>
        <time>2015-06-30T08:59:56.000Z</time>
      </trkpt>
      <trkpt lat="46.9576" lon="-0.89972">
        <ele>180</ele>
        <time>2015-06-30T09:00:00.000Z</time>
      </trkpt>
      <trkpt lat="46.95756" lon="-0.89969">
        <ele>180</ele>
        <time>2015-06-30T09:00:04.000Z</time>
      </trkpt>
      <trkpt lat="46.95756" lon="-0.89969">
        <ele>180</ele>
        <time>2015-06-30T09:00:06.000Z</time>
      </trkpt>
      <trkpt lat="46.95756" lon="-0.89969">
        <ele>180</ele>
        <time>2015-06-30T09:00:08.000Z</time>
      </trkpt>
      <trkpt lat="46.95756" lon="-0.89969">
        <ele>180</ele>
        <time>2015-06-30T09:00:10.000Z</time>
      </trkpt>
      <trkpt lat="46.95756" lon="-0.89969">
        <ele>180</ele>
        <time>2015-06-30T09:00:12.000Z</time>
      </trkpt>
      <trkpt lat="46.95746" lon="-0.89961">
        <ele>180</ele>
        <time>2015-06-30T09:00:16.000Z</time>
      </trkpt>
      <trkpt lat="46.9574" lon="-0.89956">
        <ele>180</ele>
        <time>2015-06-30T09:00:18.000Z</time>
      </trkpt>
      <trkpt lat="46.95736" lon="-0.89952">
        <ele>180</ele>
        <time>2015-06-30T09:00:20.000Z</time>
      </trkpt>
      <trkpt lat="46.95736" lon="-0.89952">
        <ele>180</ele>
        <time>2015-06-30T09:00:22.000Z</time>
      </trkpt>
      <trkpt lat="46.95736" lon="-0.89952">
        <ele>180</ele>
        <time>2015-06-30T09:00:26.000Z</time>
      </trkpt>
      <trkpt lat="46.95736" lon="-0.89952">
        <ele>180</ele>
        <time>2015-06-30T09:00:28.000Z</time>
      </trkpt>
      <trkpt lat="46.95736" lon="-0.89952">
        <ele>180</ele>
        <time>2015-06-30T09:00:30.000Z</time>
      </trkpt>
      <trkpt lat="46.95729" lon="-0.89947">
        <ele>179</ele>
        <time>2015-06-30T09:00:48.000Z</time>
      </trkpt>
      <trkpt lat="46.95725" lon="-0.89943">
        <ele>179</ele>
        <time>2015-06-30T09:00:50.000Z</time>
      </trkpt>
      <trkpt lat="46.95719" lon="-0.89939">
        <ele>179</ele>
        <time>2015-06-30T09:00:54.000Z</time>
      </trkpt>
      <trkpt lat="46.95715" lon="-0.89936">
        <ele>179</ele>
        <time>2015-06-30T09:00:56.000Z</time>
      </trkpt>
      <trkpt lat="46.9571" lon="-0.89934">
        <ele>179</ele>
        <time>2015-06-30T09:01:00.000Z</time>
      </trkpt>
      <trkpt lat="46.95705" lon="-0.89932">
        <ele>179</ele>
        <time>2015-06-30T09:01:02.000Z</time>
      </trkpt>
      <trkpt lat="46.957" lon="-0.8993">
        <ele>180</ele>
        <time>2015-06-30T09:01:06.000Z</time>
      </trkpt>
      <trkpt lat="46.95695" lon="-0.89927">
        <ele>180</ele>
        <time>2015-06-30T09:01:10.000Z</time>
      </trkpt>
      <trkpt lat="46.95691" lon="-0.89923">
        <ele>181</ele>
        <time>2015-06-30T09:01:14.000Z</time>
      </trkpt>
      <trkpt lat="46.95691" lon="-0.89923">
        <ele>181</ele>
        <time>2015-06-30T09:01:16.000Z</time>
      </trkpt>
      <trkpt lat="46.95691" lon="-0.89923">
        <ele>181</ele>
        <time>2015-06-30T09:01:18.000Z</time>
      </trkpt>
      <trkpt lat="46.95691" lon="-0.89923">
        <ele>181</ele>
        <time>2015-06-30T09:01:20.000Z</time>
      </trkpt>
      <trkpt lat="46.95691" lon="-0.89923">
        <ele>181</ele>
        <time>2015-06-30T09:01:22.000Z</time>
      </trkpt>
      <trkpt lat="46.95691" lon="-0.89923">
        <ele>181</ele>
        <time>2015-06-30T09:01:24.000Z</time>
      </trkpt>
      <trkpt lat="46.95691" lon="-0.89923">
        <ele>181</ele>
        <time>2015-06-30T09:01:26.000Z</time>
      </trkpt>
      <trkpt lat="46.95691" lon="-0.89923">
        <ele>181</ele>
        <time>2015-06-30T09:01:28.000Z</time>
      </trkpt>
      <trkpt lat="46.95681" lon="-0.89913">
        <ele>181</ele>
        <time>2015-06-30T09:01:32.000Z</time>
      </trkpt>
      <trkpt lat="46.95675" lon="-0.89906">
        <ele>181</ele>
        <time>2015-06-30T09:01:34.000Z</time>
      </trkpt>
      <trkpt lat="46.95671" lon="-0.899">
        <ele>181</ele>
        <time>2015-06-30T09:01:36.000Z</time>
      </trkpt>
      <trkpt lat="46.95668" lon="-0.89894">
        <ele>181</ele>
        <time>2015-06-30T09:01:38.000Z</time>
      </trkpt>
      <trkpt lat="46.95667" lon="-0.89888">
        <ele>181</ele>
        <time>2015-06-30T09:01:42.000Z</time>
      </trkpt>
      <trkpt lat="46.95667" lon="-0.89888">
        <ele>181</ele>
        <time>2015-06-30T09:01:44.000Z</time>
      </trkpt>
      <trkpt lat="46.95667" lon="-0.89888">
        <ele>181</ele>
        <time>2015-06-30T09:01:46.000Z</time>
      </trkpt>
      <trkpt lat="46.95667" lon="-0.89888">
        <ele>181</ele>
        <time>2015-06-30T09:01:48.000Z</time>
      </trkpt>
      <trkpt lat="46.95667" lon="-0.89888">
        <ele>181</ele>
        <time>2015-06-30T09:01:50.000Z</time>
      </trkpt>
      <trkpt lat="46.95667" lon="-0.89888">
        <ele>181</ele>
        <time>2015-06-30T09:01:52.000Z</time>
      </trkpt>
      <trkpt lat="46.95667" lon="-0.89888">
        <ele>181</ele>
        <time>2015-06-30T09:01:54.000Z</time>
      </trkpt>
      <trkpt lat="46.95666" lon="-0.89869">
        <ele>181</ele>
        <time>2015-06-30T09:02:00.000Z</time>
      </trkpt>
      <trkpt lat="46.95666" lon="-0.89859">
        <ele>181</ele>
        <time>2015-06-30T09:02:02.000Z</time>
      </trkpt>
      <trkpt lat="46.95666" lon="-0.89859">
        <ele>181</ele>
        <time>2015-06-30T09:02:04.000Z</time>
      </trkpt>
      <trkpt lat="46.95666" lon="-0.89859">
        <ele>181</ele>
        <time>2015-06-30T09:02:06.000Z</time>
      </trkpt>
      <trkpt lat="46.95666" lon="-0.89859">
        <ele>181</ele>
        <time>2015-06-30T09:02:08.000Z</time>
      </trkpt>
      <trkpt lat="46.95666" lon="-0.89859">
        <ele>181</ele>
        <time>2015-06-30T09:02:10.000Z</time>
      </trkpt>
      <trkpt lat="46.95666" lon="-0.89859">
        <ele>181</ele>
        <time>2015-06-30T09:02:12.000Z</time>
      </trkpt>
      <trkpt lat="46.95662" lon="-0.89849">
        <ele>181</ele>
        <time>2015-06-30T09:02:16.000Z</time>
      </trkpt>
      <trkpt lat="46.95658" lon="-0.89844">
        <ele>181</ele>
        <time>2015-06-30T09:02:18.000Z</time>
      </trkpt>
      <trkpt lat="46.95654" lon="-0.89841">
        <ele>182</ele>
        <time>2015-06-30T09:02:22.000Z</time>
      </trkpt>
      <trkpt lat="46.95649" lon="-0.89839">
        <ele>182</ele>
        <time>2015-06-30T09:02:26.000Z</time>
      </trkpt>
      <trkpt lat="46.95644" lon="-0.89837">
        <ele>182</ele>
        <time>2015-06-30T09:02:30.000Z</time>
      </trkpt>
      <trkpt lat="46.95644" lon="-0.89837">
        <ele>182</ele>
        <time>2015-06-30T09:02:32.000Z</time>
      </trkpt>
      <trkpt lat="46.95644" lon="-0.89837">
        <ele>182</ele>
        <time>2015-06-30T09:02:34.000Z</time>
      </trkpt>
      <trkpt lat="46.95644" lon="-0.89837">
        <ele>182</ele>
        <time>2015-06-30T09:02:36.000Z</time>
      </trkpt>
      <trkpt lat="46.95636" lon="-0.89838">
        <ele>183</ele>
        <time>2015-06-30T09:02:40.000Z</time>
      </trkpt>
      <trkpt lat="46.9563" lon="-0.89838">
        <ele>183</ele>
        <time>2015-06-30T09:02:42.000Z</time>
      </trkpt>
      <trkpt lat="46.95625" lon="-0.89838">
        <ele>183</ele>
        <time>2015-06-30T09:02:46.000Z</time>
      </trkpt>
      <trkpt lat="46.95621" lon="-0.89839">
        <ele>182</ele>
        <time>2015-06-30T09:02:50.000Z</time>
      </trkpt>
      <trkpt lat="46.95621" lon="-0.89839">
        <ele>182</ele>
        <time>2015-06-30T09:02:52.000Z</time>
      </trkpt>
      <trkpt lat="46.95621" lon="-0.89839">
        <ele>182</ele>
        <time>2015-06-30T09:02:54.000Z</time>
      </trkpt>
      <trkpt lat="46.95621" lon="-0.89839">
        <ele>182</ele>
        <time>2015-06-30T09:02:56.000Z</time>
      </trkpt>
      <trkpt lat="46.95621" lon="-0.89839">
        <ele>182</ele>
        <time>2015-06-30T09:02:58.000Z</time>
      </trkpt>
      <trkpt lat="46.95621" lon="-0.89839">
        <ele>182</ele>
        <time>2015-06-30T09:03:00.000Z</time>
      </trkpt>
      <trkpt lat="46.95621" lon="-0.89839">
        <ele>182</ele>
        <time>2015-06-30T09:03:02.000Z</time>
      </trkpt>
      <trkpt lat="46.95621" lon="-0.89839">
        <ele>182</ele>
        <time>2015-06-30T09:03:04.000Z</time>
      </trkpt>
      <trkpt lat="46.95621" lon="-0.89839">
        <ele>182</ele>
        <time>2015-06-30T09:03:06.000Z</time>
      </trkpt>
      <trkpt lat="46.95621" lon="-0.89839">
        <ele>182</ele>
        <time>2015-06-30T09:03:08.000Z</time>
      </trkpt>
      <trkpt lat="46.95621" lon="-0.89839">
        <ele>182</ele>
        <time>2015-06-30T09:03:10.000Z</time>
      </trkpt>
      <trkpt lat="46.95621" lon="-0.89839">
        <ele>182</ele>
        <time>2015-06-30T09:03:12.000Z</time>
      </trkpt>
      <trkpt lat="46.95621" lon="-0.89839">
        <ele>182</ele>
        <time>2015-06-30T09:03:14.000Z</time>
      </trkpt>
      <trkpt lat="46.95621" lon="-0.89839">
        <ele>182</ele>
        <time>2015-06-30T09:03:16.000Z</time>
      </trkpt>
      <trkpt lat="46.95621" lon="-0.89839">
        <ele>182</ele>
        <time>2015-06-30T09:03:18.000Z</time>
      </trkpt>
      <trkpt lat="46.95621" lon="-0.89839">
        <ele>182</ele>
        <time>2015-06-30T09:03:20.000Z</time>
      </trkpt>
      <trkpt lat="46.95621" lon="-0.89839">
        <ele>182</ele>
        <time>2015-06-30T09:03:22.000Z</time>
      </trkpt>
      <trkpt lat="46.95621" lon="-0.89839">
        <ele>182</ele>
        <time>2015-06-30T09:03:24.000Z</time>
      </trkpt>
      <trkpt lat="46.95621" lon="-0.89839">
        <ele>182</ele>
        <time>2015-06-30T09:03:26.000Z</time>
      </trkpt>
      <trkpt lat="46.95621" lon="-0.89839">
        <ele>182</ele>
        <time>2015-06-30T09:03:28.000Z</time>
      </trkpt>
      <trkpt lat="46.95621" lon="-0.89839">
        <ele>182</ele>
        <time>2015-06-30T09:03:30.000Z</time>
      </trkpt>
      <trkpt lat="46.95621" lon="-0.89839">
        <ele>182</ele>
        <time>2015-06-30T09:03:32.000Z</time>
      </trkpt>
      <trkpt lat="46.95621" lon="-0.89839">
        <ele>182</ele>
        <time>2015-06-30T09:03:34.000Z</time>
      </trkpt>
      <trkpt lat="46.95621" lon="-0.89839">
        <ele>182</ele>
        <time>2015-06-30T09:03:36.000Z</time>
      </trkpt>
      <trkpt lat="46.95621" lon="-0.89839">
        <ele>182</ele>
        <time>2015-06-30T09:03:38.000Z</time>
      </trkpt>
      <trkpt lat="46.95621" lon="-0.89839">
        <ele>182</ele>
        <time>2015-06-30T09:03:40.000Z</time>
      </trkpt>
      <trkpt lat="46.95621" lon="-0.89839">
        <ele>182</ele>
        <time>2015-06-30T09:03:42.000Z</time>
      </trkpt>
      <trkpt lat="46.95594" lon="-0.89834">
        <ele>183</ele>
        <time>2015-06-30T09:03:46.000Z</time>
      </trkpt>
      <trkpt lat="46.9558" lon="-0.8983">
        <ele>183</ele>
        <time>2015-06-30T09:03:48.000Z</time>
      </trkpt>
      <trkpt lat="46.95573" lon="-0.89827">
        <ele>183</ele>
        <time>2015-06-30T09:03:50.000Z</time>
      </trkpt>
      <trkpt lat="46.95573" lon="-0.89827">
        <ele>183</ele>
        <time>2015-06-30T09:03:52.000Z</time>
      </trkpt>
      <trkpt lat="46.95573" lon="-0.89827">
        <ele>183</ele>
        <time>2015-06-30T09:03:54.000Z</time>
      </trkpt>
      <trkpt lat="46.95573" lon="-0.89827">
        <ele>183</ele>
        <time>2015-06-30T09:03:56.000Z</time>
      </trkpt>
      <trkpt lat="46.95573" lon="-0.89827">
        <ele>183</ele>
        <time>2015-06-30T09:03:58.000Z</time>
      </trkpt>
      <trkpt lat="46.95573" lon="-0.89827">
        <ele>183</ele>
        <time>2015-06-30T09:04:00.000Z</time>
      </trkpt>
      <trkpt lat="46.95571" lon="-0.89812">
        <ele>184</ele>
        <time>2015-06-30T09:05:30.000Z</time>
      </trkpt>
      <trkpt lat="46.95571" lon="-0.89803">
        <ele>184</ele>
        <time>2015-06-30T09:05:32.000Z</time>
      </trkpt>
      <trkpt lat="46.95573" lon="-0.89796">
        <ele>184</ele>
        <time>2015-06-30T09:05:36.000Z</time>
      </trkpt>
      <trkpt lat="46.95573" lon="-0.89796">
        <ele>184</ele>
        <time>2015-06-30T09:05:38.000Z</time>
      </trkpt>
      <trkpt lat="46.95573" lon="-0.89796">
        <ele>184</ele>
        <time>2015-06-30T09:05:40.000Z</time>
      </trkpt>
      <trkpt lat="46.95573" lon="-0.89796">
        <ele>184</ele>
        <time>2015-06-30T09:05:42.000Z</time>
      </trkpt>
      <trkpt lat="46.95573" lon="-0.89796">
        <ele>184</ele>
        <time>2015-06-30T09:05:44.000Z</time>
      </trkpt>
      <trkpt lat="46.95573" lon="-0.89796">
        <ele>184</ele>
        <time>2015-06-30T09:05:46.000Z</time>
      </trkpt>
      <trkpt lat="46.95573" lon="-0.89796">
        <ele>184</ele>
        <time>2015-06-30T09:05:48.000Z</time>
      </trkpt>
      <trkpt lat="46.95573" lon="-0.89796">
        <ele>184</ele>
        <time>2015-06-30T09:05:50.000Z</time>
      </trkpt>
      <trkpt lat="46.95573" lon="-0.89796">
        <ele>184</ele>
        <time>2015-06-30T09:05:52.000Z</time>
      </trkpt>
      <trkpt lat="46.95573" lon="-0.89796">
        <ele>184</ele>
        <time>2015-06-30T09:05:54.000Z</time>
      </trkpt>
      <trkpt lat="46.95573" lon="-0.89796">
        <ele>184</ele>
        <time>2015-06-30T09:05:56.000Z</time>
      </trkpt>
      <trkpt lat="46.95573" lon="-0.89796">
        <ele>184</ele>
        <time>2015-06-30T09:05:58.000Z</time>
      </trkpt>
      <trkpt lat="46.95573" lon="-0.89796">
        <ele>184</ele>
        <time>2015-06-30T09:06:00.000Z</time>
      </trkpt>
      <trkpt lat="46.95573" lon="-0.89796">
        <ele>184</ele>
        <time>2015-06-30T09:06:02.000Z</time>
      </trkpt>
      <trkpt lat="46.95573" lon="-0.89796">
        <ele>184</ele>
        <time>2015-06-30T09:06:04.000Z</time>
      </trkpt>
      <trkpt lat="46.95573" lon="-0.89796">
        <ele>184</ele>
        <time>2015-06-30T09:06:06.000Z</time>
      </trkpt>
      <trkpt lat="46.95573" lon="-0.89796">
        <ele>184</ele>
        <time>2015-06-30T09:06:08.000Z</time>
      </trkpt>
      <trkpt lat="46.95582" lon="-0.89783">
        <ele>186</ele>
        <time>2015-06-30T09:06:14.000Z</time>
      </trkpt>
      <trkpt lat="46.95586" lon="-0.89776">
        <ele>186</ele>
        <time>2015-06-30T09:06:16.000Z</time>
      </trkpt>
      <trkpt lat="46.95586" lon="-0.89776">
        <ele>186</ele>
        <time>2015-06-30T09:06:26.000Z</time>
      </trkpt>
      <trkpt lat="46.95586" lon="-0.89776">
        <ele>186</ele>
        <time>2015-06-30T09:06:28.000Z</time>
      </trkpt>
      <trkpt lat="46.95579" lon="-0.89773">
        <ele>187</ele>
        <time>2015-06-30T09:06:32.000Z</time>
      </trkpt>
      <trkpt lat="46.95573" lon="-0.89772">
        <ele>187</ele>
        <time>2015-06-30T09:06:34.000Z</time>
      </trkpt>
      <trkpt lat="46.95569" lon="-0.89771">
        <ele>187</ele>
        <time>2015-06-30T09:06:38.000Z</time>
      </trkpt>
      <trkpt lat="46.95569" lon="-0.89771">
        <ele>187</ele>
        <time>2015-06-30T09:06:42.000Z</time>
      </trkpt>
      <trkpt lat="46.95569" lon="-0.89771">
        <ele>187</ele>
        <time>2015-06-30T09:06:44.000Z</time>
      </trkpt>
      <trkpt lat="46.9556" lon="-0.89772">
        <ele>188</ele>
        <time>2015-06-30T09:06:48.000Z</time>
      </trkpt>
      <trkpt lat="46.95555" lon="-0.89772">
        <ele>188</ele>
        <time>2015-06-30T09:06:50.000Z</time>
      </trkpt>
      <trkpt lat="46.9555" lon="-0.89772">
        <ele>188</ele>
        <time>2015-06-30T09:06:54.000Z</time>
      </trkpt>
      <trkpt lat="46.95544" lon="-0.89774">
        <ele>188</ele>
        <time>2015-06-30T09:06:58.000Z</time>
      </trkpt>
      <trkpt lat="46.95539" lon="-0.89775">
        <ele>188</ele>
        <time>2015-06-30T09:07:02.000Z</time>
      </trkpt>
      <trkpt lat="46.95533" lon="-0.89777">
        <ele>188</ele>
        <time>2015-06-30T09:07:08.000Z</time>
      </trkpt>
      <trkpt lat="46.95528" lon="-0.89777">
        <ele>188</ele>
        <time>2015-06-30T09:07:12.000Z</time>
      </trkpt>
      <trkpt lat="46.95528" lon="-0.89777">
        <ele>188</ele>
        <time>2015-06-30T09:07:14.000Z</time>
      </trkpt>
      <trkpt lat="46.95522" lon="-0.89776">
        <ele>188</ele>
        <time>2015-06-30T09:07:18.000Z</time>
      </trkpt>
      <trkpt lat="46.95517" lon="-0.89773">
        <ele>188</ele>
        <time>2015-06-30T09:07:22.000Z</time>
      </trkpt>
      <trkpt lat="46.95512" lon="-0.89771">
        <ele>188</ele>
        <time>2015-06-30T09:07:28.000Z</time>
      </trkpt>
      <trkpt lat="46.95512" lon="-0.89771">
        <ele>188</ele>
        <time>2015-06-30T09:07:30.000Z</time>
      </trkpt>
      <trkpt lat="46.95512" lon="-0.89771">
        <ele>188</ele>
        <time>2015-06-30T09:07:32.000Z</time>
      </trkpt>
      <trkpt lat="46.95512" lon="-0.89771">
        <ele>188</ele>
        <time>2015-06-30T09:07:36.000Z</time>
      </trkpt>
      <trkpt lat="46.95512" lon="-0.89771">
        <ele>188</ele>
        <time>2015-06-30T09:07:38.000Z</time>
      </trkpt>
      <trkpt lat="46.95512" lon="-0.89771">
        <ele>188</ele>
        <time>2015-06-30T09:07:40.000Z</time>
      </trkpt>
      <trkpt lat="46.95512" lon="-0.89771">
        <ele>188</ele>
        <time>2015-06-30T09:07:42.000Z</time>
      </trkpt>
      <trkpt lat="46.95512" lon="-0.89771">
        <ele>188</ele>
        <time>2015-06-30T09:07:44.000Z</time>
      </trkpt>
      <trkpt lat="46.95512" lon="-0.89771">
        <ele>188</ele>
        <time>2015-06-30T09:07:46.000Z</time>
      </trkpt>
      <trkpt lat="46.95498" lon="-0.89764">
        <ele>189</ele>
        <time>2015-06-30T09:07:50.000Z</time>
      </trkpt>
      <trkpt lat="46.9549" lon="-0.89759">
        <ele>189</ele>
        <time>2015-06-30T09:07:52.000Z</time>
      </trkpt>
      <trkpt lat="46.9549" lon="-0.89759">
        <ele>189</ele>
        <time>2015-06-30T09:07:54.000Z</time>
      </trkpt>
      <trkpt lat="46.9549" lon="-0.89759">
        <ele>189</ele>
        <time>2015-06-30T09:07:56.000Z</time>
      </trkpt>
      <trkpt lat="46.9549" lon="-0.89759">
        <ele>189</ele>
        <time>2015-06-30T09:07:58.000Z</time>
      </trkpt>
      <trkpt lat="46.9549" lon="-0.89759">
        <ele>189</ele>
        <time>2015-06-30T09:08:00.000Z</time>
      </trkpt>
      <trkpt lat="46.95479" lon="-0.89751">
        <ele>190</ele>
        <time>2015-06-30T09:08:06.000Z</time>
      </trkpt>
      <trkpt lat="46.95473" lon="-0.89746">
        <ele>190</ele>
        <time>2015-06-30T09:08:08.000Z</time>
      </trkpt>
      <trkpt lat="46.95469" lon="-0.89743">
        <ele>190</ele>
        <time>2015-06-30T09:08:10.000Z</time>
      </trkpt>
      <trkpt lat="46.95469" lon="-0.89743">
        <ele>190</ele>
        <time>2015-06-30T09:08:12.000Z</time>
      </trkpt>
      <trkpt lat="46.95469" lon="-0.89743">
        <ele>190</ele>
        <time>2015-06-30T09:08:14.000Z</time>
      </trkpt>
      <trkpt lat="46.95469" lon="-0.89743">
        <ele>190</ele>
        <time>2015-06-30T09:08:16.000Z</time>
      </trkpt>
      <trkpt lat="46.95469" lon="-0.89743">
        <ele>190</ele>
        <time>2015-06-30T09:08:18.000Z</time>
      </trkpt>
      <trkpt lat="46.95469" lon="-0.89743">
        <ele>190</ele>
        <time>2015-06-30T09:08:20.000Z</time>
      </trkpt>
      <trkpt lat="46.95469" lon="-0.89743">
        <ele>190</ele>
        <time>2015-06-30T09:08:24.000Z</time>
      </trkpt>
      <trkpt lat="46.95469" lon="-0.89743">
        <ele>190</ele>
        <time>2015-06-30T09:08:26.000Z</time>
      </trkpt>
      <trkpt lat="46.95469" lon="-0.89743">
        <ele>190</ele>
        <time>2015-06-30T09:08:28.000Z</time>
      </trkpt>
      <trkpt lat="46.95469" lon="-0.89743">
        <ele>190</ele>
        <time>2015-06-30T09:08:30.000Z</time>
      </trkpt>
      <trkpt lat="46.95469" lon="-0.89743">
        <ele>190</ele>
        <time>2015-06-30T09:08:32.000Z</time>
      </trkpt>
      <trkpt lat="46.95469" lon="-0.89743">
        <ele>190</ele>
        <time>2015-06-30T09:08:34.000Z</time>
      </trkpt>
      <trkpt lat="46.95469" lon="-0.89743">
        <ele>190</ele>
        <time>2015-06-30T09:08:36.000Z</time>
      </trkpt>
      <trkpt lat="46.95469" lon="-0.89743">
        <ele>190</ele>
        <time>2015-06-30T09:08:38.000Z</time>
      </trkpt>
      <trkpt lat="46.95469" lon="-0.89743">
        <ele>190</ele>
        <time>2015-06-30T09:08:40.000Z</time>
      </trkpt>
      <trkpt lat="46.95446" lon="-0.89731">
        <ele>194</ele>
        <time>2015-06-30T09:08:44.000Z</time>
      </trkpt>
      <trkpt lat="46.95435" lon="-0.89725">
        <ele>194</ele>
        <time>2015-06-30T09:08:46.000Z</time>
      </trkpt>
      <trkpt lat="46.95427" lon="-0.89721">
        <ele>194</ele>
        <time>2015-06-30T09:08:48.000Z</time>
      </trkpt>
      <trkpt lat="46.95422" lon="-0.89718">
        <ele>194</ele>
        <time>2015-06-30T09:08:50.000Z</time>
      </trkpt>
      <trkpt lat="46.95418" lon="-0.89713">
        <ele>193</ele>
        <time>2015-06-30T09:08:54.000Z</time>
      </trkpt>
      <trkpt lat="46.95414" lon="-0.89709">
        <ele>193</ele>
        <time>2015-06-30T09:08:58.000Z</time>
      </trkpt>
      <trkpt lat="46.9541" lon="-0.89705">
        <ele>193</ele>
        <time>2015-06-30T09:09:04.000Z</time>
      </trkpt>
      <trkpt lat="46.9541" lon="-0.89705">
        <ele>193</ele>
        <time>2015-06-30T09:09:06.000Z</time>
      </trkpt>
      <trkpt lat="46.9541" lon="-0.89705">
        <ele>193</ele>
        <time>2015-06-30T09:09:08.000Z</time>
      </trkpt>
      <trkpt lat="46.9541" lon="-0.89705">
        <ele>193</ele>
        <time>2015-06-30T09:09:10.000Z</time>
      </trkpt>
      <trkpt lat="46.9541" lon="-0.89705">
        <ele>193</ele>
        <time>2015-06-30T09:09:12.000Z</time>
      </trkpt>
      <trkpt lat="46.9541" lon="-0.89705">
        <ele>193</ele>
        <time>2015-06-30T09:09:14.000Z</time>
      </trkpt>
      <trkpt lat="46.9541" lon="-0.89705">
        <ele>193</ele>
        <time>2015-06-30T09:09:16.000Z</time>
      </trkpt>
      <trkpt lat="46.9541" lon="-0.89705">
        <ele>193</ele>
        <time>2015-06-30T09:09:18.000Z</time>
      </trkpt>
      <trkpt lat="46.9541" lon="-0.89705">
        <ele>193</ele>
        <time>2015-06-30T09:09:20.000Z</time>
      </trkpt>
      <trkpt lat="46.9541" lon="-0.89705">
        <ele>193</ele>
        <time>2015-06-30T09:09:22.000Z</time>
      </trkpt>
      <trkpt lat="46.9541" lon="-0.89705">
        <ele>193</ele>
        <time>2015-06-30T09:09:24.000Z</time>
      </trkpt>
      <trkpt lat="46.9541" lon="-0.89705">
        <ele>193</ele>
        <time>2015-06-30T09:09:26.000Z</time>
      </trkpt>
      <trkpt lat="46.9541" lon="-0.89705">
        <ele>193</ele>
        <time>2015-06-30T09:09:28.000Z</time>
      </trkpt>
      <trkpt lat="46.9541" lon="-0.89705">
        <ele>193</ele>
        <time>2015-06-30T09:09:30.000Z</time>
      </trkpt>
      <trkpt lat="46.9541" lon="-0.89705">
        <ele>193</ele>
        <time>2015-06-30T09:09:32.000Z</time>
      </trkpt>
      <trkpt lat="46.95393" lon="-0.8969">
        <ele>195</ele>
        <time>2015-06-30T09:09:36.000Z</time>
      </trkpt>
      <trkpt lat="46.95382" lon="-0.89681">
        <ele>195</ele>
        <time>2015-06-30T09:09:38.000Z</time>
      </trkpt>
      <trkpt lat="46.95376" lon="-0.89675">
        <ele>195</ele>
        <time>2015-06-30T09:09:40.000Z</time>
      </trkpt>
      <trkpt lat="46.95372" lon="-0.89672">
        <ele>195</ele>
        <time>2015-06-30T09:09:42.000Z</time>
      </trkpt>
      <trkpt lat="46.95367" lon="-0.89668">
        <ele>195</ele>
        <time>2015-06-30T09:09:48.000Z</time>
      </trkpt>
      <trkpt lat="46.95363" lon="-0.89665">
        <ele>196</ele>
        <time>2015-06-30T09:09:52.000Z</time>
      </trkpt>
      <trkpt lat="46.95363" lon="-0.89665">
        <ele>196</ele>
        <time>2015-06-30T09:09:54.000Z</time>
      </trkpt>
      <trkpt lat="46.95363" lon="-0.89665">
        <ele>196</ele>
        <time>2015-06-30T09:09:56.000Z</time>
      </trkpt>
      <trkpt lat="46.95363" lon="-0.89665">
        <ele>196</ele>
        <time>2015-06-30T09:09:58.000Z</time>
      </trkpt>
      <trkpt lat="46.95357" lon="-0.89658">
        <ele>196</ele>
        <time>2015-06-30T09:10:02.000Z</time>
      </trkpt>
      <trkpt lat="46.95357" lon="-0.89658">
        <ele>196</ele>
        <time>2015-06-30T09:10:04.000Z</time>
      </trkpt>
      <trkpt lat="46.95357" lon="-0.89658">
        <ele>196</ele>
        <time>2015-06-30T09:10:06.000Z</time>
      </trkpt>
      <trkpt lat="46.95351" lon="-0.89652">
        <ele>196</ele>
        <time>2015-06-30T09:10:08.000Z</time>
      </trkpt>
      <trkpt lat="46.95347" lon="-0.89648">
        <ele>196</ele>
        <time>2015-06-30T09:10:10.000Z</time>
      </trkpt>
      <trkpt lat="46.95347" lon="-0.89648">
        <ele>196</ele>
        <time>2015-06-30T09:10:16.000Z</time>
      </trkpt>
      <trkpt lat="46.95347" lon="-0.89648">
        <ele>196</ele>
        <time>2015-06-30T09:10:18.000Z</time>
      </trkpt>
      <trkpt lat="46.95347" lon="-0.89648">
        <ele>196</ele>
        <time>2015-06-30T09:10:20.000Z</time>
      </trkpt>
      <trkpt lat="46.95338" lon="-0.89638">
        <ele>198</ele>
        <time>2015-06-30T09:10:26.000Z</time>
      </trkpt>
      <trkpt lat="46.95333" lon="-0.89631">
        <ele>198</ele>
        <time>2015-06-30T09:10:28.000Z</time>
      </trkpt>
      <trkpt lat="46.9533" lon="-0.89626">
        <ele>198</ele>
        <time>2015-06-30T09:10:30.000Z</time>
      </trkpt>
      <trkpt lat="46.95326" lon="-0.8962">
        <ele>198</ele>
        <time>2015-06-30T09:10:34.000Z</time>
      </trkpt>
      <trkpt lat="46.95326" lon="-0.8962">
        <ele>198</ele>
        <time>2015-06-30T09:10:36.000Z</time>
      </trkpt>
      <trkpt lat="46.95326" lon="-0.8962">
        <ele>198</ele>
        <time>2015-06-30T09:10:38.000Z</time>
      </trkpt>
      <trkpt lat="46.95326" lon="-0.8962">
        <ele>198</ele>
        <time>2015-06-30T09:10:40.000Z</time>
      </trkpt>
      <trkpt lat="46.95326" lon="-0.8962">
        <ele>198</ele>
        <time>2015-06-30T09:10:42.000Z</time>
      </trkpt>
      <trkpt lat="46.9532" lon="-0.89609">
        <ele>199</ele>
        <time>2015-06-30T09:10:46.000Z</time>
      </trkpt>
      <trkpt lat="46.95316" lon="-0.89602">
        <ele>199</ele>
        <time>2015-06-30T09:10:48.000Z</time>
      </trkpt>
      <trkpt lat="46.95313" lon="-0.89597">
        <ele>199</ele>
        <time>2015-06-30T09:10:50.000Z</time>
      </trkpt>
      <trkpt lat="46.95309" lon="-0.89591">
        <ele>200</ele>
        <time>2015-06-30T09:10:54.000Z</time>
      </trkpt>
      <trkpt lat="46.95306" lon="-0.89585">
        <ele>200</ele>
        <time>2015-06-30T09:10:56.000Z</time>
      </trkpt>
      <trkpt lat="46.95303" lon="-0.89579">
        <ele>200</ele>
        <time>2015-06-30T09:11:02.000Z</time>
      </trkpt>
      <trkpt lat="46.95303" lon="-0.89579">
        <ele>200</ele>
        <time>2015-06-30T09:11:04.000Z</time>
      </trkpt>
      <trkpt lat="46.953" lon="-0.89572">
        <ele>200</ele>
        <time>2015-06-30T09:11:06.000Z</time>
      </trkpt>
      <trkpt lat="46.95298" lon="-0.89566">
        <ele>200</ele>
        <time>2015-06-30T09:11:08.000Z</time>
      </trkpt>
      <trkpt lat="46.95295" lon="-0.8956">
        <ele>199</ele>
        <time>2015-06-30T09:11:14.000Z</time>
      </trkpt>
      <trkpt lat="46.95295" lon="-0.8956">
        <ele>199</ele>
        <time>2015-06-30T09:11:16.000Z</time>
      </trkpt>
      <trkpt lat="46.95292" lon="-0.89555">
        <ele>200</ele>
        <time>2015-06-30T09:11:18.000Z</time>
      </trkpt>
      <trkpt lat="46.95292" lon="-0.89555">
        <ele>200</ele>
        <time>2015-06-30T09:11:20.000Z</time>
      </trkpt>
      <trkpt lat="46.95292" lon="-0.89555">
        <ele>200</ele>
        <time>2015-06-30T09:11:22.000Z</time>
      </trkpt>
      <trkpt lat="46.95292" lon="-0.89555">
        <ele>200</ele>
        <time>2015-06-30T09:11:24.000Z</time>
      </trkpt>
      <trkpt lat="46.95292" lon="-0.89555">
        <ele>200</ele>
        <time>2015-06-30T09:11:26.000Z</time>
      </trkpt>
      <trkpt lat="46.95292" lon="-0.89555">
        <ele>200</ele>
        <time>2015-06-30T09:11:28.000Z</time>
      </trkpt>
      <trkpt lat="46.95292" lon="-0.89555">
        <ele>200</ele>
        <time>2015-06-30T09:11:30.000Z</time>
      </trkpt>
      <trkpt lat="46.95285" lon="-0.89537">
        <ele>200</ele>
        <time>2015-06-30T09:11:36.000Z</time>
      </trkpt>
      <trkpt lat="46.95282" lon="-0.89526">
        <ele>200</ele>
        <time>2015-06-30T09:11:38.000Z</time>
      </trkpt>
      <trkpt lat="46.9528" lon="-0.8952">
        <ele>200</ele>
        <time>2015-06-30T09:11:40.000Z</time>
      </trkpt>
      <trkpt lat="46.95278" lon="-0.89513">
        <ele>201</ele>
        <time>2015-06-30T09:11:44.000Z</time>
      </trkpt>
      <trkpt lat="46.95278" lon="-0.89513">
        <ele>201</ele>
        <time>2015-06-30T09:11:46.000Z</time>
      </trkpt>
      <trkpt lat="46.95278" lon="-0.89513">
        <ele>201</ele>
        <time>2015-06-30T09:11:48.000Z</time>
      </trkpt>
      <trkpt lat="46.95278" lon="-0.89513">
        <ele>201</ele>
        <time>2015-06-30T09:11:50.000Z</time>
      </trkpt>
      <trkpt lat="46.95278" lon="-0.89513">
        <ele>201</ele>
        <time>2015-06-30T09:11:52.000Z</time>
      </trkpt>
      <trkpt lat="46.95278" lon="-0.89513">
        <ele>201</ele>
        <time>2015-06-30T09:11:54.000Z</time>
      </trkpt>
      <trkpt lat="46.95273" lon="-0.89498">
        <ele>201</ele>
        <time>2015-06-30T09:11:58.000Z</time>
      </trkpt>
      <trkpt lat="46.95271" lon="-0.89489">
        <ele>201</ele>
        <time>2015-06-30T09:12:00.000Z</time>
      </trkpt>
      <trkpt lat="46.95269" lon="-0.89482">
        <ele>201</ele>
        <time>2015-06-30T09:12:02.000Z</time>
      </trkpt>
      <trkpt lat="46.95269" lon="-0.89482">
        <ele>201</ele>
        <time>2015-06-30T09:12:06.000Z</time>
      </trkpt>
      <trkpt lat="46.95269" lon="-0.89482">
        <ele>201</ele>
        <time>2015-06-30T09:12:08.000Z</time>
      </trkpt>
      <trkpt lat="46.95269" lon="-0.89482">
        <ele>201</ele>
        <time>2015-06-30T09:12:10.000Z</time>
      </trkpt>
      <trkpt lat="46.95269" lon="-0.89482">
        <ele>201</ele>
        <time>2015-06-30T09:12:12.000Z</time>
      </trkpt>
      <trkpt lat="46.95269" lon="-0.89482">
        <ele>201</ele>
        <time>2015-06-30T09:12:20.000Z</time>
      </trkpt>
      <trkpt lat="46.95269" lon="-0.89482">
        <ele>201</ele>
        <time>2015-06-30T09:12:22.000Z</time>
      </trkpt>
      <trkpt lat="46.95269" lon="-0.89482">
        <ele>201</ele>
        <time>2015-06-30T09:12:24.000Z</time>
      </trkpt>
      <trkpt lat="46.95258" lon="-0.89462">
        <ele>203</ele>
        <time>2015-06-30T09:12:28.000Z</time>
      </trkpt>
      <trkpt lat="46.95252" lon="-0.89449">
        <ele>203</ele>
        <time>2015-06-30T09:12:30.000Z</time>
      </trkpt>
      <trkpt lat="46.95248" lon="-0.89442">
        <ele>203</ele>
        <time>2015-06-30T09:12:32.000Z</time>
      </trkpt>
      <trkpt lat="46.95245" lon="-0.89436">
        <ele>203</ele>
        <time>2015-06-30T09:12:36.000Z</time>
      </trkpt>
      <trkpt lat="46.95245" lon="-0.89436">
        <ele>203</ele>
        <time>2015-06-30T09:12:38.000Z</time>
      </trkpt>
      <trkpt lat="46.95245" lon="-0.89436">
        <ele>203</ele>
        <time>2015-06-30T09:12:40.000Z</time>
      </trkpt>
      <trkpt lat="46.95245" lon="-0.89436">
        <ele>203</ele>
        <time>2015-06-30T09:12:42.000Z</time>
      </trkpt>
      <trkpt lat="46.95245" lon="-0.89436">
        <ele>203</ele>
        <time>2015-06-30T09:12:44.000Z</time>
      </trkpt>
      <trkpt lat="46.95245" lon="-0.89436">
        <ele>203</ele>
        <time>2015-06-30T09:12:46.000Z</time>
      </trkpt>
      <trkpt lat="46.95245" lon="-0.89436">
        <ele>203</ele>
        <time>2015-06-30T09:12:48.000Z</time>
      </trkpt>
      <trkpt lat="46.95245" lon="-0.89436">
        <ele>203</ele>
        <time>2015-06-30T09:12:50.000Z</time>
      </trkpt>
      <trkpt lat="46.95245" lon="-0.89436">
        <ele>203</ele>
        <time>2015-06-30T09:12:52.000Z</time>
      </trkpt>
      <trkpt lat="46.95245" lon="-0.89436">
        <ele>203</ele>
        <time>2015-06-30T09:12:54.000Z</time>
      </trkpt>
      <trkpt lat="46.95245" lon="-0.89436">
        <ele>203</ele>
        <time>2015-06-30T09:12:56.000Z</time>
      </trkpt>
      <trkpt lat="46.95245" lon="-0.89436">
        <ele>203</ele>
        <time>2015-06-30T09:12:58.000Z</time>
      </trkpt>
      <trkpt lat="46.95245" lon="-0.89436">
        <ele>203</ele>
        <time>2015-06-30T09:13:00.000Z</time>
      </trkpt>
      <trkpt lat="46.95245" lon="-0.89436">
        <ele>203</ele>
        <time>2015-06-30T09:13:02.000Z</time>
      </trkpt>
      <trkpt lat="46.95236" lon="-0.89408">
        <ele>202</ele>
        <time>2015-06-30T09:13:06.000Z</time>
      </trkpt>
      <trkpt lat="46.95231" lon="-0.89392">
        <ele>202</ele>
        <time>2015-06-30T09:13:08.000Z</time>
      </trkpt>
      <trkpt lat="46.95228" lon="-0.89382">
        <ele>202</ele>
        <time>2015-06-30T09:13:10.000Z</time>
      </trkpt>
      <trkpt lat="46.95226" lon="-0.89375">
        <ele>202</ele>
        <time>2015-06-30T09:13:12.000Z</time>
      </trkpt>
      <trkpt lat="46.95226" lon="-0.89375">
        <ele>202</ele>
        <time>2015-06-30T09:13:16.000Z</time>
      </trkpt>
      <trkpt lat="46.95226" lon="-0.89375">
        <ele>202</ele>
        <time>2015-06-30T09:13:18.000Z</time>
      </trkpt>
      <trkpt lat="46.95226" lon="-0.89375">
        <ele>202</ele>
        <time>2015-06-30T09:13:20.000Z</time>
      </trkpt>
      <trkpt lat="46.95226" lon="-0.89375">
        <ele>202</ele>
        <time>2015-06-30T09:13:22.000Z</time>
      </trkpt>
      <trkpt lat="46.95226" lon="-0.89375">
        <ele>202</ele>
        <time>2015-06-30T09:13:26.000Z</time>
      </trkpt>
      <trkpt lat="46.95226" lon="-0.89375">
        <ele>202</ele>
        <time>2015-06-30T09:13:28.000Z</time>
      </trkpt>
      <trkpt lat="46.95226" lon="-0.89375">
        <ele>202</ele>
        <time>2015-06-30T09:13:30.000Z</time>
      </trkpt>
      <trkpt lat="46.95226" lon="-0.89375">
        <ele>202</ele>
        <time>2015-06-30T09:13:32.000Z</time>
      </trkpt>
      <trkpt lat="46.95226" lon="-0.89375">
        <ele>202</ele>
        <time>2015-06-30T09:13:34.000Z</time>
      </trkpt>
      <trkpt lat="46.95226" lon="-0.89375">
        <ele>202</ele>
        <time>2015-06-30T09:13:36.000Z</time>
      </trkpt>
      <trkpt lat="46.95224" lon="-0.89353">
        <ele>202</ele>
        <time>2015-06-30T09:13:40.000Z</time>
      </trkpt>
      <trkpt lat="46.95224" lon="-0.89341">
        <ele>202</ele>
        <time>2015-06-30T09:13:42.000Z</time>
      </trkpt>
      <trkpt lat="46.95226" lon="-0.89334">
        <ele>202</ele>
        <time>2015-06-30T09:13:44.000Z</time>
      </trkpt>
      <trkpt lat="46.95226" lon="-0.89334">
        <ele>202</ele>
        <time>2015-06-30T09:13:50.000Z</time>
      </trkpt>
      <trkpt lat="46.95226" lon="-0.89334">
        <ele>202</ele>
        <time>2015-06-30T09:13:52.000Z</time>
      </trkpt>
      <trkpt lat="46.95223" lon="-0.89322">
        <ele>202</ele>
        <time>2015-06-30T09:13:58.000Z</time>
      </trkpt>
      <trkpt lat="46.95221" lon="-0.89314">
        <ele>202</ele>
        <time>2015-06-30T09:14:00.000Z</time>
      </trkpt>
      <trkpt lat="46.95221" lon="-0.89314">
        <ele>202</ele>
        <time>2015-06-30T09:14:02.000Z</time>
      </trkpt>
      <trkpt lat="46.9522" lon="-0.89308">
        <ele>201</ele>
        <time>2015-06-30T09:14:04.000Z</time>
      </trkpt>
      <trkpt lat="46.9522" lon="-0.89308">
        <ele>201</ele>
        <time>2015-06-30T09:14:06.000Z</time>
      </trkpt>
      <trkpt lat="46.95218" lon="-0.893">
        <ele>201</ele>
        <time>2015-06-30T09:14:10.000Z</time>
      </trkpt>
      <trkpt lat="46.95216" lon="-0.89293">
        <ele>200</ele>
        <time>2015-06-30T09:14:14.000Z</time>
      </trkpt>
      <trkpt lat="46.95216" lon="-0.89293">
        <ele>200</ele>
        <time>2015-06-30T09:14:16.000Z</time>
      </trkpt>
      <trkpt lat="46.95216" lon="-0.89293">
        <ele>200</ele>
        <time>2015-06-30T09:14:18.000Z</time>
      </trkpt>
      <trkpt lat="46.95216" lon="-0.89293">
        <ele>200</ele>
        <time>2015-06-30T09:14:20.000Z</time>
      </trkpt>
      <trkpt lat="46.95216" lon="-0.89293">
        <ele>200</ele>
        <time>2015-06-30T09:14:22.000Z</time>
      </trkpt>
      <trkpt lat="46.95216" lon="-0.89293">
        <ele>200</ele>
        <time>2015-06-30T09:14:24.000Z</time>
      </trkpt>
      <trkpt lat="46.95216" lon="-0.89293">
        <ele>200</ele>
        <time>2015-06-30T09:14:26.000Z</time>
      </trkpt>
      <trkpt lat="46.95216" lon="-0.89293">
        <ele>200</ele>
        <time>2015-06-30T09:14:28.000Z</time>
      </trkpt>
      <trkpt lat="46.95216" lon="-0.89274">
        <ele>199</ele>
        <time>2015-06-30T09:14:34.000Z</time>
      </trkpt>
      <trkpt lat="46.95216" lon="-0.89264">
        <ele>199</ele>
        <time>2015-06-30T09:14:36.000Z</time>
      </trkpt>
      <trkpt lat="46.95217" lon="-0.89256">
        <ele>198</ele>
        <time>2015-06-30T09:14:38.000Z</time>
      </trkpt>
      <trkpt lat="46.95218" lon="-0.8925">
        <ele>198</ele>
        <time>2015-06-30T09:14:42.000Z</time>
      </trkpt>
      <trkpt lat="46.95218" lon="-0.89242">
        <ele>197</ele>
        <time>2015-06-30T09:14:48.000Z</time>
      </trkpt>
      <trkpt lat="46.95219" lon="-0.89234">
        <ele>197</ele>
        <time>2015-06-30T09:14:52.000Z</time>
      </trkpt>
      <trkpt lat="46.95219" lon="-0.89226">
        <ele>196</ele>
        <time>2015-06-30T09:14:56.000Z</time>
      </trkpt>
      <trkpt lat="46.95219" lon="-0.89226">
        <ele>196</ele>
        <time>2015-06-30T09:14:58.000Z</time>
      </trkpt>
      <trkpt lat="46.9522" lon="-0.89218">
        <ele>196</ele>
        <time>2015-06-30T09:15:00.000Z</time>
      </trkpt>
      <trkpt lat="46.9522" lon="-0.8921">
        <ele>196</ele>
        <time>2015-06-30T09:15:04.000Z</time>
      </trkpt>
      <trkpt lat="46.95221" lon="-0.89202">
        <ele>195</ele>
        <time>2015-06-30T09:15:08.000Z</time>
      </trkpt>
      <trkpt lat="46.95221" lon="-0.89195">
        <ele>195</ele>
        <time>2015-06-30T09:15:12.000Z</time>
      </trkpt>
      <trkpt lat="46.95221" lon="-0.89195">
        <ele>195</ele>
        <time>2015-06-30T09:15:14.000Z</time>
      </trkpt>
      <trkpt lat="46.95221" lon="-0.89195">
        <ele>195</ele>
        <time>2015-06-30T09:15:16.000Z</time>
      </trkpt>
      <trkpt lat="46.95221" lon="-0.89195">
        <ele>195</ele>
        <time>2015-06-30T09:15:18.000Z</time>
      </trkpt>
      <trkpt lat="46.95221" lon="-0.89195">
        <ele>195</ele>
        <time>2015-06-30T09:15:20.000Z</time>
      </trkpt>
      <trkpt lat="46.95221" lon="-0.89195">
        <ele>195</ele>
        <time>2015-06-30T09:15:22.000Z</time>
      </trkpt>
      <trkpt lat="46.95221" lon="-0.89195">
        <ele>195</ele>
        <time>2015-06-30T09:15:24.000Z</time>
      </trkpt>
      <trkpt lat="46.95221" lon="-0.89195">
        <ele>195</ele>
        <time>2015-06-30T09:15:26.000Z</time>
      </trkpt>
      <trkpt lat="46.95221" lon="-0.89195">
        <ele>195</ele>
        <time>2015-06-30T09:15:28.000Z</time>
      </trkpt>
      <trkpt lat="46.95222" lon="-0.89174">
        <ele>194</ele>
        <time>2015-06-30T09:15:32.000Z</time>
      </trkpt>
      <trkpt lat="46.95222" lon="-0.89162">
        <ele>194</ele>
        <time>2015-06-30T09:15:34.000Z</time>
      </trkpt>
      <trkpt lat="46.95222" lon="-0.89154">
        <ele>194</ele>
        <time>2015-06-30T09:15:36.000Z</time>
      </trkpt>
      <trkpt lat="46.95222" lon="-0.89146">
        <ele>194</ele>
        <time>2015-06-30T09:15:40.000Z</time>
      </trkpt>
      <trkpt lat="46.95222" lon="-0.89146">
        <ele>194</ele>
        <time>2015-06-30T09:15:42.000Z</time>
      </trkpt>
      <trkpt lat="46.95222" lon="-0.89146">
        <ele>194</ele>
        <time>2015-06-30T09:15:44.000Z</time>
      </trkpt>
      <trkpt lat="46.95222" lon="-0.89146">
        <ele>194</ele>
        <time>2015-06-30T09:15:46.000Z</time>
      </trkpt>
      <trkpt lat="46.95222" lon="-0.89146">
        <ele>194</ele>
        <time>2015-06-30T09:15:48.000Z</time>
      </trkpt>
      <trkpt lat="46.95222" lon="-0.89146">
        <ele>194</ele>
        <time>2015-06-30T09:15:50.000Z</time>
      </trkpt>
      <trkpt lat="46.95221" lon="-0.8913">
        <ele>193</ele>
        <time>2015-06-30T09:15:54.000Z</time>
      </trkpt>
      <trkpt lat="46.9522" lon="-0.8912">
        <ele>193</ele>
        <time>2015-06-30T09:15:56.000Z</time>
      </trkpt>
      <trkpt lat="46.95219" lon="-0.89113">
        <ele>193</ele>
        <time>2015-06-30T09:16:00.000Z</time>
      </trkpt>
      <trkpt lat="46.95219" lon="-0.89113">
        <ele>193</ele>
        <time>2015-06-30T09:16:02.000Z</time>
      </trkpt>
      <trkpt lat="46.95219" lon="-0.89113">
        <ele>193</ele>
        <time>2015-06-30T09:16:04.000Z</time>
      </trkpt>
      <trkpt lat="46.95219" lon="-0.89113">
        <ele>193</ele>
        <time>2015-06-30T09:16:06.000Z</time>
      </trkpt>
      <trkpt lat="46.95219" lon="-0.89113">
        <ele>193</ele>
        <time>2015-06-30T09:16:08.000Z</time>
      </trkpt>
      <trkpt lat="46.95219" lon="-0.89113">
        <ele>193</ele>
        <time>2015-06-30T09:16:10.000Z</time>
      </trkpt>
      <trkpt lat="46.95212" lon="-0.89098">
        <ele>194</ele>
        <time>2015-06-30T09:16:14.000Z</time>
      </trkpt>
      <trkpt lat="46.95208" lon="-0.89089">
        <ele>194</ele>
        <time>2015-06-30T09:16:16.000Z</time>
      </trkpt>
      <trkpt lat="46.95205" lon="-0.89082">
        <ele>194</ele>
        <time>2015-06-30T09:16:18.000Z</time>
      </trkpt>
      <trkpt lat="46.95203" lon="-0.89076">
        <ele>193</ele>
        <time>2015-06-30T09:16:22.000Z</time>
      </trkpt>
      <trkpt lat="46.95203" lon="-0.89076">
        <ele>193</ele>
        <time>2015-06-30T09:16:24.000Z</time>
      </trkpt>
      <trkpt lat="46.95203" lon="-0.89076">
        <ele>193</ele>
        <time>2015-06-30T09:16:26.000Z</time>
      </trkpt>
      <trkpt lat="46.952" lon="-0.89068">
        <ele>193</ele>
        <time>2015-06-30T09:16:28.000Z</time>
      </trkpt>
      <trkpt lat="46.95198" lon="-0.89061">
        <ele>193</ele>
        <time>2015-06-30T09:16:30.000Z</time>
      </trkpt>
      <trkpt lat="46.95198" lon="-0.89054">
        <ele>193</ele>
        <time>2015-06-30T09:16:34.000Z</time>
      </trkpt>
      <trkpt lat="46.95198" lon="-0.89054">
        <ele>193</ele>
        <time>2015-06-30T09:16:36.000Z</time>
      </trkpt>
      <trkpt lat="46.95198" lon="-0.89054">
        <ele>193</ele>
        <time>2015-06-30T09:16:38.000Z</time>
      </trkpt>
      <trkpt lat="46.95198" lon="-0.89054">
        <ele>193</ele>
        <time>2015-06-30T09:16:40.000Z</time>
      </trkpt>
      <trkpt lat="46.95198" lon="-0.89054">
        <ele>193</ele>
        <time>2015-06-30T09:16:42.000Z</time>
      </trkpt>
      <trkpt lat="46.952" lon="-0.89041">
        <ele>193</ele>
        <time>2015-06-30T09:16:46.000Z</time>
      </trkpt>
      <trkpt lat="46.95202" lon="-0.89032">
        <ele>193</ele>
        <time>2015-06-30T09:16:48.000Z</time>
      </trkpt>
      <trkpt lat="46.95202" lon="-0.89032">
        <ele>193</ele>
        <time>2015-06-30T09:16:50.000Z</time>
      </trkpt>
      <trkpt lat="46.95202" lon="-0.89032">
        <ele>193</ele>
        <time>2015-06-30T09:16:52.000Z</time>
      </trkpt>
      <trkpt lat="46.95202" lon="-0.89032">
        <ele>193</ele>
        <time>2015-06-30T09:16:54.000Z</time>
      </trkpt>
      <trkpt lat="46.95202" lon="-0.89032">
        <ele>193</ele>
        <time>2015-06-30T09:16:56.000Z</time>
      </trkpt>
      <trkpt lat="46.95202" lon="-0.89032">
        <ele>193</ele>
        <time>2015-06-30T09:16:58.000Z</time>
      </trkpt>
      <trkpt lat="46.95202" lon="-0.89032">
        <ele>193</ele>
        <time>2015-06-30T09:17:00.000Z</time>
      </trkpt>
      <trkpt lat="46.95202" lon="-0.89032">
        <ele>193</ele>
        <time>2015-06-30T09:17:02.000Z</time>
      </trkpt>
      <trkpt lat="46.95202" lon="-0.89032">
        <ele>193</ele>
        <time>2015-06-30T09:17:04.000Z</time>
      </trkpt>
      <trkpt lat="46.95213" lon="-0.89019">
        <ele>193</ele>
        <time>2015-06-30T09:17:08.000Z</time>
      </trkpt>
      <trkpt lat="46.95219" lon="-0.89011">
        <ele>193</ele>
        <time>2015-06-30T09:17:10.000Z</time>
      </trkpt>
      <trkpt lat="46.95222" lon="-0.89006">
        <ele>192</ele>
        <time>2015-06-30T09:17:12.000Z</time>
      </trkpt>
      <trkpt lat="46.95226" lon="-0.89001">
        <ele>192</ele>
        <time>2015-06-30T09:17:16.000Z</time>
      </trkpt>
      <trkpt lat="46.95229" lon="-0.88995">
        <ele>192</ele>
        <time>2015-06-30T09:17:20.000Z</time>
      </trkpt>
      <trkpt lat="46.95229" lon="-0.88995">
        <ele>192</ele>
        <time>2015-06-30T09:17:22.000Z</time>
      </trkpt>
      <trkpt lat="46.95229" lon="-0.88995">
        <ele>192</ele>
        <time>2015-06-30T09:17:24.000Z</time>
      </trkpt>
      <trkpt lat="46.95229" lon="-0.88995">
        <ele>192</ele>
        <time>2015-06-30T09:17:26.000Z</time>
      </trkpt>
      <trkpt lat="46.95229" lon="-0.88995">
        <ele>192</ele>
        <time>2015-06-30T09:17:28.000Z</time>
      </trkpt>
      <trkpt lat="46.95229" lon="-0.88995">
        <ele>192</ele>
        <time>2015-06-30T09:17:30.000Z</time>
      </trkpt>
      <trkpt lat="46.95229" lon="-0.88995">
        <ele>192</ele>
        <time>2015-06-30T09:17:32.000Z</time>
      </trkpt>
      <trkpt lat="46.95229" lon="-0.88995">
        <ele>192</ele>
        <time>2015-06-30T09:17:34.000Z</time>
      </trkpt>
      <trkpt lat="46.95229" lon="-0.88995">
        <ele>192</ele>
        <time>2015-06-30T09:17:36.000Z</time>
      </trkpt>
      <trkpt lat="46.95229" lon="-0.88995">
        <ele>192</ele>
        <time>2015-06-30T09:17:40.000Z</time>
      </trkpt>
      <trkpt lat="46.95229" lon="-0.88995">
        <ele>192</ele>
        <time>2015-06-30T09:17:42.000Z</time>
      </trkpt>
      <trkpt lat="46.95229" lon="-0.88995">
        <ele>192</ele>
        <time>2015-06-30T09:17:44.000Z</time>
      </trkpt>
      <trkpt lat="46.95229" lon="-0.88995">
        <ele>192</ele>
        <time>2015-06-30T09:17:46.000Z</time>
      </trkpt>
      <trkpt lat="46.95229" lon="-0.88995">
        <ele>192</ele>
        <time>2015-06-30T09:17:48.000Z</time>
      </trkpt>
      <trkpt lat="46.95229" lon="-0.88995">
        <ele>192</ele>
        <time>2015-06-30T09:17:50.000Z</time>
      </trkpt>
      <trkpt lat="46.95239" lon="-0.88991">
        <ele>191</ele>
        <time>2015-06-30T09:17:56.000Z</time>
      </trkpt>
      <trkpt lat="46.95239" lon="-0.88991">
        <ele>191</ele>
        <time>2015-06-30T09:17:58.000Z</time>
      </trkpt>
      <trkpt lat="46.95239" lon="-0.88991">
        <ele>191</ele>
        <time>2015-06-30T09:18:00.000Z</time>
      </trkpt>
      <trkpt lat="46.95239" lon="-0.88991">
        <ele>191</ele>
        <time>2015-06-30T09:18:02.000Z</time>
      </trkpt>
      <trkpt lat="46.95239" lon="-0.88991">
        <ele>191</ele>
        <time>2015-06-30T09:18:04.000Z</time>
      </trkpt>
      <trkpt lat="46.95239" lon="-0.88991">
        <ele>191</ele>
        <time>2015-06-30T09:18:06.000Z</time>
      </trkpt>
      <trkpt lat="46.95239" lon="-0.88991">
        <ele>191</ele>
        <time>2015-06-30T09:18:14.000Z</time>
      </trkpt>
      <trkpt lat="46.95239" lon="-0.88991">
        <ele>191</ele>
        <time>2015-06-30T09:18:16.000Z</time>
      </trkpt>
      <trkpt lat="46.95239" lon="-0.88991">
        <ele>191</ele>
        <time>2015-06-30T09:18:18.000Z</time>
      </trkpt>
      <trkpt lat="46.95239" lon="-0.88991">
        <ele>191</ele>
        <time>2015-06-30T09:18:20.000Z</time>
      </trkpt>
      <trkpt lat="46.95247" lon="-0.88994">
        <ele>188</ele>
        <time>2015-06-30T09:18:26.000Z</time>
      </trkpt>
      <trkpt lat="46.95252" lon="-0.88992">
        <ele>188</ele>
        <time>2015-06-30T09:18:30.000Z</time>
      </trkpt>
      <trkpt lat="46.95255" lon="-0.88988">
        <ele>188</ele>
        <time>2015-06-30T09:18:34.000Z</time>
      </trkpt>
      <trkpt lat="46.95259" lon="-0.88981">
        <ele>188</ele>
        <time>2015-06-30T09:18:40.000Z</time>
      </trkpt>
      <trkpt lat="46.95262" lon="-0.88974">
        <ele>187</ele>
        <time>2015-06-30T09:18:44.000Z</time>
      </trkpt>
      <trkpt lat="46.95264" lon="-0.88967">
        <ele>187</ele>
        <time>2015-06-30T09:18:48.000Z</time>
      </trkpt>
      <trkpt lat="46.95266" lon="-0.8896">
        <ele>186</ele>
        <time>2015-06-30T09:18:52.000Z</time>
      </trkpt>
      <trkpt lat="46.95266" lon="-0.8896">
        <ele>186</ele>
        <time>2015-06-30T09:18:54.000Z</time>
      </trkpt>
      <trkpt lat="46.95266" lon="-0.8896">
        <ele>186</ele>
        <time>2015-06-30T09:18:56.000Z</time>
      </trkpt>
      <trkpt lat="46.95266" lon="-0.8896">
        <ele>186</ele>
        <time>2015-06-30T09:18:58.000Z</time>
      </trkpt>
      <trkpt lat="46.95266" lon="-0.8896">
        <ele>186</ele>
        <time>2015-06-30T09:19:00.000Z</time>
      </trkpt>
      <trkpt lat="46.95266" lon="-0.8896">
        <ele>186</ele>
        <time>2015-06-30T09:19:02.000Z</time>
      </trkpt>
      <trkpt lat="46.95266" lon="-0.8896">
        <ele>186</ele>
        <time>2015-06-30T09:19:04.000Z</time>
      </trkpt>
      <trkpt lat="46.95266" lon="-0.8896">
        <ele>186</ele>
        <time>2015-06-30T09:19:06.000Z</time>
      </trkpt>
      <trkpt lat="46.95273" lon="-0.88954">
        <ele>184</ele>
        <time>2015-06-30T09:19:10.000Z</time>
      </trkpt>
      <trkpt lat="46.95273" lon="-0.88954">
        <ele>184</ele>
        <time>2015-06-30T09:19:20.000Z</time>
      </trkpt>
      <trkpt lat="46.95273" lon="-0.88954">
        <ele>184</ele>
        <time>2015-06-30T09:19:22.000Z</time>
      </trkpt>
      <trkpt lat="46.95273" lon="-0.88954">
        <ele>184</ele>
        <time>2015-06-30T09:19:24.000Z</time>
      </trkpt>
      <trkpt lat="46.95278" lon="-0.88968">
        <ele>183</ele>
        <time>2015-06-30T09:19:28.000Z</time>
      </trkpt>
      <trkpt lat="46.9528" lon="-0.88978">
        <ele>182</ele>
        <time>2015-06-30T09:19:30.000Z</time>
      </trkpt>
      <trkpt lat="46.95279" lon="-0.88985">
        <ele>182</ele>
        <time>2015-06-30T09:19:34.000Z</time>
      </trkpt>
      <trkpt lat="46.95279" lon="-0.88985">
        <ele>182</ele>
        <time>2015-06-30T09:19:36.000Z</time>
      </trkpt>
      <trkpt lat="46.95277" lon="-0.88992">
        <ele>182</ele>
        <time>2015-06-30T09:19:38.000Z</time>
      </trkpt>
      <trkpt lat="46.95275" lon="-0.89">
        <ele>182</ele>
        <time>2015-06-30T09:19:42.000Z</time>
      </trkpt>
      <trkpt lat="46.95272" lon="-0.89007">
        <ele>182</ele>
        <time>2015-06-30T09:19:46.000Z</time>
      </trkpt>
      <trkpt lat="46.95272" lon="-0.89007">
        <ele>182</ele>
        <time>2015-06-30T09:19:48.000Z</time>
      </trkpt>
      <trkpt lat="46.95272" lon="-0.89007">
        <ele>182</ele>
        <time>2015-06-30T09:19:50.000Z</time>
      </trkpt>
      <trkpt lat="46.95272" lon="-0.89007">
        <ele>182</ele>
        <time>2015-06-30T09:19:52.000Z</time>
      </trkpt>
      <trkpt lat="46.95272" lon="-0.89007">
        <ele>182</ele>
        <time>2015-06-30T09:19:54.000Z</time>
      </trkpt>
      <trkpt lat="46.95272" lon="-0.89007">
        <ele>182</ele>
        <time>2015-06-30T09:19:56.000Z</time>
      </trkpt>
      <trkpt lat="46.95272" lon="-0.89007">
        <ele>182</ele>
        <time>2015-06-30T09:19:58.000Z</time>
      </trkpt>
      <trkpt lat="46.95272" lon="-0.89007">
        <ele>182</ele>
        <time>2015-06-30T09:20:00.000Z</time>
      </trkpt>
      <trkpt lat="46.95272" lon="-0.89007">
        <ele>182</ele>
        <time>2015-06-30T09:20:02.000Z</time>
      </trkpt>
      <trkpt lat="46.95272" lon="-0.89007">
        <ele>182</ele>
        <time>2015-06-30T09:20:04.000Z</time>
      </trkpt>
      <trkpt lat="46.95272" lon="-0.89007">
        <ele>182</ele>
        <time>2015-06-30T09:20:06.000Z</time>
      </trkpt>
      <trkpt lat="46.95272" lon="-0.89007">
        <ele>182</ele>
        <time>2015-06-30T09:20:08.000Z</time>
      </trkpt>
      <trkpt lat="46.95279" lon="-0.89018">
        <ele>180</ele>
        <time>2015-06-30T09:20:12.000Z</time>
      </trkpt>
      <trkpt lat="46.95285" lon="-0.89024">
        <ele>180</ele>
        <time>2015-06-30T09:20:14.000Z</time>
      </trkpt>
      <trkpt lat="46.95289" lon="-0.89028">
        <ele>179</ele>
        <time>2015-06-30T09:20:18.000Z</time>
      </trkpt>
      <trkpt lat="46.95289" lon="-0.89028">
        <ele>179</ele>
        <time>2015-06-30T09:20:20.000Z</time>
      </trkpt>
      <trkpt lat="46.95294" lon="-0.89028">
        <ele>179</ele>
        <time>2015-06-30T09:20:24.000Z</time>
      </trkpt>
      <trkpt lat="46.95298" lon="-0.89026">
        <ele>179</ele>
        <time>2015-06-30T09:20:28.000Z</time>
      </trkpt>
      <trkpt lat="46.95302" lon="-0.89023">
        <ele>179</ele>
        <time>2015-06-30T09:20:32.000Z</time>
      </trkpt>
      <trkpt lat="46.95302" lon="-0.89023">
        <ele>179</ele>
        <time>2015-06-30T09:20:34.000Z</time>
      </trkpt>
      <trkpt lat="46.95302" lon="-0.89023">
        <ele>179</ele>
        <time>2015-06-30T09:20:36.000Z</time>
      </trkpt>
      <trkpt lat="46.95302" lon="-0.89023">
        <ele>179</ele>
        <time>2015-06-30T09:20:38.000Z</time>
      </trkpt>
      <trkpt lat="46.95302" lon="-0.89023">
        <ele>179</ele>
        <time>2015-06-30T09:20:40.000Z</time>
      </trkpt>
      <trkpt lat="46.95302" lon="-0.89023">
        <ele>179</ele>
        <time>2015-06-30T09:20:42.000Z</time>
      </trkpt>
      <trkpt lat="46.95311" lon="-0.89016">
        <ele>180</ele>
        <time>2015-06-30T09:20:46.000Z</time>
      </trkpt>
      <trkpt lat="46.95316" lon="-0.89012">
        <ele>180</ele>
        <time>2015-06-30T09:20:48.000Z</time>
      </trkpt>
      <trkpt lat="46.95321" lon="-0.89008">
        <ele>180</ele>
        <time>2015-06-30T09:20:52.000Z</time>
      </trkpt>
      <trkpt lat="46.95326" lon="-0.89005">
        <ele>180</ele>
        <time>2015-06-30T09:20:56.000Z</time>
      </trkpt>
      <trkpt lat="46.95326" lon="-0.89005">
        <ele>180</ele>
        <time>2015-06-30T09:20:58.000Z</time>
      </trkpt>
      <trkpt lat="46.95326" lon="-0.89005">
        <ele>180</ele>
        <time>2015-06-30T09:21:00.000Z</time>
      </trkpt>
      <trkpt lat="46.95326" lon="-0.89005">
        <ele>180</ele>
        <time>2015-06-30T09:21:02.000Z</time>
      </trkpt>
      <trkpt lat="46.95326" lon="-0.89005">
        <ele>180</ele>
        <time>2015-06-30T09:21:04.000Z</time>
      </trkpt>
      <trkpt lat="46.95326" lon="-0.89005">
        <ele>180</ele>
        <time>2015-06-30T09:21:06.000Z</time>
      </trkpt>
      <trkpt lat="46.95326" lon="-0.89005">
        <ele>180</ele>
        <time>2015-06-30T09:21:08.000Z</time>
      </trkpt>
      <trkpt lat="46.9534" lon="-0.88992">
        <ele>180</ele>
        <time>2015-06-30T09:21:14.000Z</time>
      </trkpt>
      <trkpt lat="46.95348" lon="-0.88984">
        <ele>180</ele>
        <time>2015-06-30T09:21:16.000Z</time>
      </trkpt>
      <trkpt lat="46.95352" lon="-0.88979">
        <ele>180</ele>
        <time>2015-06-30T09:21:18.000Z</time>
      </trkpt>
      <trkpt lat="46.95356" lon="-0.88974">
        <ele>180</ele>
        <time>2015-06-30T09:21:22.000Z</time>
      </trkpt>
      <trkpt lat="46.95361" lon="-0.8897">
        <ele>180</ele>
        <time>2015-06-30T09:21:26.000Z</time>
      </trkpt>
      <trkpt lat="46.95361" lon="-0.8897">
        <ele>180</ele>
        <time>2015-06-30T09:21:28.000Z</time>
      </trkpt>
      <trkpt lat="46.95361" lon="-0.8897">
        <ele>180</ele>
        <time>2015-06-30T09:21:30.000Z</time>
      </trkpt>
      <trkpt lat="46.95361" lon="-0.8897">
        <ele>180</ele>
        <time>2015-06-30T09:21:32.000Z</time>
      </trkpt>
      <trkpt lat="46.95361" lon="-0.8897">
        <ele>180</ele>
        <time>2015-06-30T09:21:34.000Z</time>
      </trkpt>
      <trkpt lat="46.95361" lon="-0.8897">
        <ele>180</ele>
        <time>2015-06-30T09:21:36.000Z</time>
      </trkpt>
      <trkpt lat="46.95361" lon="-0.8897">
        <ele>180</ele>
        <time>2015-06-30T09:21:38.000Z</time>
      </trkpt>
      <trkpt lat="46.95361" lon="-0.8897">
        <ele>180</ele>
        <time>2015-06-30T09:21:40.000Z</time>
      </trkpt>
      <trkpt lat="46.95374" lon="-0.88962">
        <ele>181</ele>
        <time>2015-06-30T09:21:44.000Z</time>
      </trkpt>
      <trkpt lat="46.95382" lon="-0.88958">
        <ele>181</ele>
        <time>2015-06-30T09:21:46.000Z</time>
      </trkpt>
      <trkpt lat="46.95388" lon="-0.88956">
        <ele>182</ele>
        <time>2015-06-30T09:21:48.000Z</time>
      </trkpt>
      <trkpt lat="46.95393" lon="-0.88955">
        <ele>182</ele>
        <time>2015-06-30T09:21:52.000Z</time>
      </trkpt>
      <trkpt lat="46.95398" lon="-0.88957">
        <ele>183</ele>
        <time>2015-06-30T09:21:58.000Z</time>
      </trkpt>
      <trkpt lat="46.95398" lon="-0.88957">
        <ele>183</ele>
        <time>2015-06-30T09:22:00.000Z</time>
      </trkpt>
      <trkpt lat="46.95398" lon="-0.88957">
        <ele>183</ele>
        <time>2015-06-30T09:22:02.000Z</time>
      </trkpt>
      <trkpt lat="46.95398" lon="-0.88957">
        <ele>183</ele>
        <time>2015-06-30T09:22:04.000Z</time>
      </trkpt>
      <trkpt lat="46.95403" lon="-0.88966">
        <ele>183</ele>
        <time>2015-06-30T09:22:08.000Z</time>
      </trkpt>
      <trkpt lat="46.95405" lon="-0.88973">
        <ele>183</ele>
        <time>2015-06-30T09:22:10.000Z</time>
      </trkpt>
      <trkpt lat="46.95404" lon="-0.88981">
        <ele>183</ele>
        <time>2015-06-30T09:22:14.000Z</time>
      </trkpt>
      <trkpt lat="46.95402" lon="-0.88987">
        <ele>184</ele>
        <time>2015-06-30T09:22:18.000Z</time>
      </trkpt>
      <trkpt lat="46.95399" lon="-0.88992">
        <ele>184</ele>
        <time>2015-06-30T09:22:22.000Z</time>
      </trkpt>
      <trkpt lat="46.95394" lon="-0.88996">
        <ele>184</ele>
        <time>2015-06-30T09:22:26.000Z</time>
      </trkpt>
      <trkpt lat="46.9539" lon="-0.89">
        <ele>184</ele>
        <time>2015-06-30T09:22:30.000Z</time>
      </trkpt>
      <trkpt lat="46.9539" lon="-0.89">
        <ele>184</ele>
        <time>2015-06-30T09:22:32.000Z</time>
      </trkpt>
      <trkpt lat="46.9539" lon="-0.89">
        <ele>184</ele>
        <time>2015-06-30T09:22:34.000Z</time>
      </trkpt>
      <trkpt lat="46.9539" lon="-0.89">
        <ele>184</ele>
        <time>2015-06-30T09:22:36.000Z</time>
      </trkpt>
      <trkpt lat="46.9539" lon="-0.89">
        <ele>184</ele>
        <time>2015-06-30T09:22:38.000Z</time>
      </trkpt>
      <trkpt lat="46.9539" lon="-0.89">
        <ele>184</ele>
        <time>2015-06-30T09:22:40.000Z</time>
      </trkpt>
      <trkpt lat="46.9539" lon="-0.89">
        <ele>184</ele>
        <time>2015-06-30T09:22:42.000Z</time>
      </trkpt>
      <trkpt lat="46.95389" lon="-0.8901">
        <ele>185</ele>
        <time>2015-06-30T09:22:46.000Z</time>
      </trkpt>
      <trkpt lat="46.9539" lon="-0.89017">
        <ele>185</ele>
        <time>2015-06-30T09:22:48.000Z</time>
      </trkpt>
      <trkpt lat="46.95391" lon="-0.89024">
        <ele>185</ele>
        <time>2015-06-30T09:22:52.000Z</time>
      </trkpt>
      <trkpt lat="46.95395" lon="-0.89029">
        <ele>185</ele>
        <time>2015-06-30T09:22:56.000Z</time>
      </trkpt>
      <trkpt lat="46.95395" lon="-0.89029">
        <ele>185</ele>
        <time>2015-06-30T09:22:58.000Z</time>
      </trkpt>
      <trkpt lat="46.95395" lon="-0.89029">
        <ele>185</ele>
        <time>2015-06-30T09:23:00.000Z</time>
      </trkpt>
      <trkpt lat="46.95395" lon="-0.89029">
        <ele>185</ele>
        <time>2015-06-30T09:23:02.000Z</time>
      </trkpt>
      <trkpt lat="46.95395" lon="-0.89029">
        <ele>185</ele>
        <time>2015-06-30T09:23:04.000Z</time>
      </trkpt>
      <trkpt lat="46.95395" lon="-0.89029">
        <ele>185</ele>
        <time>2015-06-30T09:23:06.000Z</time>
      </trkpt>
      <trkpt lat="46.95395" lon="-0.89029">
        <ele>185</ele>
        <time>2015-06-30T09:23:08.000Z</time>
      </trkpt>
      <trkpt lat="46.95395" lon="-0.89029">
        <ele>185</ele>
        <time>2015-06-30T09:23:10.000Z</time>
      </trkpt>
      <trkpt lat="46.95405" lon="-0.89026">
        <ele>187</ele>
        <time>2015-06-30T09:23:14.000Z</time>
      </trkpt>
      <trkpt lat="46.95411" lon="-0.89024">
        <ele>187</ele>
        <time>2015-06-30T09:23:16.000Z</time>
      </trkpt>
      <trkpt lat="46.95415" lon="-0.89024">
        <ele>187</ele>
        <time>2015-06-30T09:23:18.000Z</time>
      </trkpt>
      <trkpt lat="46.9542" lon="-0.89027">
        <ele>187</ele>
        <time>2015-06-30T09:23:22.000Z</time>
      </trkpt>
      <trkpt lat="46.95425" lon="-0.89029">
        <ele>187</ele>
        <time>2015-06-30T09:23:26.000Z</time>
      </trkpt>
      <trkpt lat="46.9543" lon="-0.89033">
        <ele>187</ele>
        <time>2015-06-30T09:23:30.000Z</time>
      </trkpt>
      <trkpt lat="46.9543" lon="-0.89033">
        <ele>187</ele>
        <time>2015-06-30T09:23:32.000Z</time>
      </trkpt>
      <trkpt lat="46.9543" lon="-0.89033">
        <ele>187</ele>
        <time>2015-06-30T09:23:34.000Z</time>
      </trkpt>
      <trkpt lat="46.9543" lon="-0.89033">
        <ele>187</ele>
        <time>2015-06-30T09:23:36.000Z</time>
      </trkpt>
      <trkpt lat="46.9543" lon="-0.89033">
        <ele>187</ele>
        <time>2015-06-30T09:23:38.000Z</time>
      </trkpt>
      <trkpt lat="46.9543" lon="-0.89033">
        <ele>187</ele>
        <time>2015-06-30T09:23:40.000Z</time>
      </trkpt>
      <trkpt lat="46.9543" lon="-0.89033">
        <ele>187</ele>
        <time>2015-06-30T09:23:42.000Z</time>
      </trkpt>
      <trkpt lat="46.9543" lon="-0.89033">
        <ele>187</ele>
        <time>2015-06-30T09:23:44.000Z</time>
      </trkpt>
      <trkpt lat="46.9543" lon="-0.89033">
        <ele>187</ele>
        <time>2015-06-30T09:23:46.000Z</time>
      </trkpt>
      <trkpt lat="46.9543" lon="-0.89033">
        <ele>187</ele>
        <time>2015-06-30T09:24:12.000Z</time>
      </trkpt>
    </trkseg>
  </trk>
</gpx>